Wetterdaten: Mittwoch, 05.06.2019
Datum Zeit Temp. A. Feuchte A. Luftdruck Regen Wind Richtung Richtung Sonnenschein ET UV Solar Taupunkt Windchill Windböen
05.06.2019 00:00 15,9 °C 82 % 1006,7 hPa 0,0 mm 0,0 km/h (0 Bft) W-NW 289 ° 0 min 0,000 mm 0,0 UV-I 0 W/m² 12,8 °C 15,9 °C 0,0 km/h (0 Bft)
05.06.2019 00:01 15,9 °C 82 % 1006,7 hPa 0,0 mm 0,0 km/h (0 Bft) W-NW 289 ° 0 min 0,000 mm 0,0 UV-I 0 W/m² 12,8 °C 15,9 °C 0,0 km/h (0 Bft)
05.06.2019 00:02 15,9 °C 82 % 1006,7 hPa 0,0 mm 0,0 km/h (0 Bft) W-NW 289 ° 0 min 0,000 mm 0,0 UV-I 0 W/m² 12,8 °C 15,9 °C 0,0 km/h (0 Bft)
05.06.2019 00:03 15,9 °C 82 % 1006,7 hPa 0,0 mm 0,0 km/h (0 Bft) W-NW 289 ° 0 min 0,000 mm 0,0 UV-I 0 W/m² 12,8 °C 15,9 °C 0,0 km/h (0 Bft)
05.06.2019 00:04 15,9 °C 82 % 1006,7 hPa 0,0 mm 0,0 km/h (0 Bft) W-NW 289 ° 0 min 0,000 mm 0,0 UV-I 0 W/m² 12,8 °C 15,9 °C 0,0 km/h (0 Bft)
05.06.2019 00:05 15,8 °C 83 % 1006,7 hPa 0,0 mm 0,0 km/h (0 Bft) W-NW 289 ° 0 min 0,000 mm 0,0 UV-I 0 W/m² 12,9 °C 15,8 °C 0,0 km/h (0 Bft)
05.06.2019 00:06 15,8 °C 83 % 1006,7 hPa 0,0 mm 0,1 km/h (0 Bft) W-NW 289 ° 0 min 0,000 mm 0,0 UV-I 0 W/m² 12,9 °C 15,8 °C 1,6 km/h (1 Bft)
05.06.2019 00:07 15,7 °C 83 % 1006,7 hPa 0,0 mm 0,0 km/h (0 Bft) W-NW 289 ° 0 min 0,000 mm 0,0 UV-I 0 W/m² 12,8 °C 15,7 °C 0,0 km/h (0 Bft)
05.06.2019 00:08 15,7 °C 83 % 1006,7 hPa 0,0 mm 0,0 km/h (0 Bft) W-NW 289 ° 0 min 0,000 mm 0,0 UV-I 0 W/m² 12,8 °C 15,7 °C 0,0 km/h (0 Bft)
05.06.2019 00:09 15,7 °C 83 % 1006,7 hPa 0,0 mm 0,0 km/h (0 Bft) W-NW 289 ° 0 min 0,000 mm 0,0 UV-I 0 W/m² 12,8 °C 15,7 °C 0,0 km/h (0 Bft)
05.06.2019 00:10 15,7 °C 83 % 1006,7 hPa 0,0 mm 0,0 km/h (0 Bft) W-NW 289 ° 0 min 0,000 mm 0,0 UV-I 0 W/m² 12,8 °C 15,7 °C 0,0 km/h (0 Bft)
05.06.2019 00:11 15,7 °C 83 % 1006,7 hPa 0,0 mm 0,0 km/h (0 Bft) W-NW 289 ° 0 min 0,000 mm 0,0 UV-I 0 W/m² 12,8 °C 15,7 °C 0,0 km/h (0 Bft)
05.06.2019 00:12 15,7 °C 83 % 1006,7 hPa 0,0 mm 0,0 km/h (0 Bft) W-NW 289 ° 0 min 0,000 mm 0,0 UV-I 0 W/m² 12,8 °C 15,7 °C 0,0 km/h (0 Bft)
05.06.2019 00:13 15,7 °C 83 % 1006,7 hPa 0,0 mm 0,0 km/h (0 Bft) W-NW 289 ° 0 min 0,000 mm 0,0 UV-I 0 W/m² 12,8 °C 15,7 °C 0,0 km/h (0 Bft)
05.06.2019 00:14 15,7 °C 83 % 1006,7 hPa 0,0 mm 0,0 km/h (0 Bft) W-NW 289 ° 0 min 0,000 mm 0,0 UV-I 0 W/m² 12,8 °C 15,7 °C 0,0 km/h (0 Bft)
05.06.2019 00:15 15,6 °C 83 % 1006,7 hPa 0,0 mm 0,0 km/h (0 Bft) W-NW 289 ° 0 min 0,000 mm 0,0 UV-I 0 W/m² 12,7 °C 15,6 °C 0,0 km/h (0 Bft)
05.06.2019 00:16 15,6 °C 83 % 1006,7 hPa 0,0 mm 0,0 km/h (0 Bft) W-NW 289 ° 0 min 0,000 mm 0,0 UV-I 0 W/m² 12,7 °C 15,6 °C 0,0 km/h (0 Bft)
05.06.2019 00:17 15,6 °C 83 % 1006,7 hPa 0,0 mm 0,0 km/h (0 Bft) W-NW 289 ° 0 min 0,000 mm 0,0 UV-I 0 W/m² 12,7 °C 15,6 °C 0,0 km/h (0 Bft)
05.06.2019 00:18 15,6 °C 83 % 1006,6 hPa 0,0 mm 0,0 km/h (0 Bft) W-NW 289 ° 0 min 0,000 mm 0,0 UV-I 0 W/m² 12,7 °C 15,6 °C 0,0 km/h (0 Bft)
05.06.2019 00:19 15,6 °C 83 % 1006,6 hPa 0,0 mm 0,0 km/h (0 Bft) W-NW 289 ° 0 min 0,000 mm 0,0 UV-I 0 W/m² 12,7 °C 15,6 °C 0,0 km/h (0 Bft)
05.06.2019 00:20 15,5 °C 83 % 1006,6 hPa 0,0 mm 0,7 km/h (0 Bft) W-NW 284 ° 0 min 0,000 mm 0,0 UV-I 0 W/m² 12,6 °C 15,5 °C 3,2 km/h (1 Bft)
05.06.2019 00:21 15,5 °C 83 % 1006,6 hPa 0,0 mm 0,1 km/h (0 Bft) W-NW 296 ° 0 min 0,000 mm 0,0 UV-I 0 W/m² 12,6 °C 15,5 °C 1,6 km/h (1 Bft)
05.06.2019 00:22 15,6 °C 83 % 1006,7 hPa 0,0 mm 0,2 km/h (0 Bft) W-NW 296 ° 0 min 0,000 mm 0,0 UV-I 0 W/m² 12,7 °C 15,6 °C 1,6 km/h (1 Bft)
05.06.2019 00:23 15,6 °C 83 % 1006,6 hPa 0,0 mm 0,1 km/h (0 Bft) W-NW 296 ° 0 min 0,000 mm 0,0 UV-I 0 W/m² 12,7 °C 15,6 °C 1,6 km/h (1 Bft)
05.06.2019 00:24 15,6 °C 83 % 1006,6 hPa 0,0 mm 0,0 km/h (0 Bft) W-NW 296 ° 0 min 0,000 mm 0,0 UV-I 0 W/m² 12,7 °C 15,6 °C 0,0 km/h (0 Bft)
05.06.2019 00:25 15,4 °C 83 % 1006,7 hPa 0,0 mm 0,0 km/h (0 Bft) W-NW 296 ° 0 min 0,000 mm 0,0 UV-I 0 W/m² 12,5 °C 15,4 °C 0,0 km/h (0 Bft)
05.06.2019 00:26 15,4 °C 83 % 1006,7 hPa 0,0 mm 2,1 km/h (1 Bft) NW 315 ° 0 min 0,000 mm 0,0 UV-I 0 W/m² 12,5 °C 15,4 °C 4,8 km/h (1 Bft)
05.06.2019 00:27 15,3 °C 83 % 1006,6 hPa 0,0 mm 0,6 km/h (0 Bft) NW 315 ° 0 min 0,000 mm 0,0 UV-I 0 W/m² 12,4 °C 15,3 °C 3,2 km/h (1 Bft)
05.06.2019 00:28 15,4 °C 84 % 1006,6 hPa 0,0 mm 1,4 km/h (1 Bft) NW 326 ° 0 min 0,000 mm 0,0 UV-I 0 W/m² 12,7 °C 15,4 °C 4,8 km/h (1 Bft)
05.06.2019 00:29 15,4 °C 84 % 1006,7 hPa 0,0 mm 0,8 km/h (0 Bft) NW 326 ° 0 min 0,000 mm 0,0 UV-I 0 W/m² 12,7 °C 15,4 °C 4,8 km/h (1 Bft)
05.06.2019 00:30 15,4 °C 84 % 1006,7 hPa 0,0 mm 0,4 km/h (0 Bft) NW 326 ° 0 min 0,000 mm 0,0 UV-I 0 W/m² 12,7 °C 15,4 °C 1,6 km/h (1 Bft)
05.06.2019 00:31 15,6 °C 84 % 1006,7 hPa 0,0 mm 0,0 km/h (0 Bft) NW 326 ° 0 min 0,000 mm 0,0 UV-I 0 W/m² 12,9 °C 15,6 °C 0,0 km/h (0 Bft)
05.06.2019 00:32 15,6 °C 83 % 1006,6 hPa 0,0 mm 0,0 km/h (0 Bft) NW 326 ° 0 min 0,000 mm 0,0 UV-I 0 W/m² 12,7 °C 15,6 °C 0,0 km/h (0 Bft)
05.06.2019 00:33 15,6 °C 83 % 1006,7 hPa 0,0 mm 0,0 km/h (0 Bft) NW 326 ° 0 min 0,000 mm 0,0 UV-I 0 W/m² 12,7 °C 15,6 °C 0,0 km/h (0 Bft)
05.06.2019 00:34 15,7 °C 83 % 1006,7 hPa 0,0 mm 0,0 km/h (0 Bft) NW 326 ° 0 min 0,000 mm 0,0 UV-I 0 W/m² 12,8 °C 15,7 °C 0,0 km/h (0 Bft)
05.06.2019 00:35 15,7 °C 83 % 1006,7 hPa 0,0 mm 0,0 km/h (0 Bft) NW 326 ° 0 min 0,000 mm 0,0 UV-I 0 W/m² 12,8 °C 15,7 °C 0,0 km/h (0 Bft)
05.06.2019 00:36 15,7 °C 82 % 1006,7 hPa 0,0 mm 0,0 km/h (0 Bft) NW 326 ° 0 min 0,000 mm 0,0 UV-I 0 W/m² 12,6 °C 15,7 °C 0,0 km/h (0 Bft)
05.06.2019 00:37 15,7 °C 83 % 1006,7 hPa 0,0 mm 0,0 km/h (0 Bft) NW 326 ° 0 min 0,000 mm 0,0 UV-I 0 W/m² 12,8 °C 15,7 °C 0,0 km/h (0 Bft)
05.06.2019 00:38 15,7 °C 82 % 1006,6 hPa 0,0 mm 0,0 km/h (0 Bft) NW 326 ° 0 min 0,000 mm 0,0 UV-I 0 W/m² 12,6 °C 15,7 °C 0,0 km/h (0 Bft)
05.06.2019 00:39 15,7 °C 82 % 1006,6 hPa 0,0 mm 0,0 km/h (0 Bft) NW 326 ° 0 min 0,000 mm 0,0 UV-I 0 W/m² 12,6 °C 15,7 °C 0,0 km/h (0 Bft)
05.06.2019 00:40 15,7 °C 82 % 1006,6 hPa 0,0 mm 0,0 km/h (0 Bft) NW 326 ° 0 min 0,000 mm 0,0 UV-I 0 W/m² 12,6 °C 15,7 °C 0,0 km/h (0 Bft)
05.06.2019 00:41 15,7 °C 82 % 1006,7 hPa 0,0 mm 0,1 km/h (0 Bft) NW 326 ° 0 min 0,000 mm 0,0 UV-I 0 W/m² 12,6 °C 15,7 °C 1,6 km/h (1 Bft)
05.06.2019 00:42 15,8 °C 82 % 1006,6 hPa 0,0 mm 0,5 km/h (0 Bft) NW 326 ° 0 min 0,000 mm 0,0 UV-I 0 W/m² 12,7 °C 15,8 °C 1,6 km/h (1 Bft)
05.06.2019 00:43 15,8 °C 82 % 1006,6 hPa 0,0 mm 0,0 km/h (0 Bft) NW 326 ° 0 min 0,000 mm 0,0 UV-I 0 W/m² 12,7 °C 15,8 °C 0,0 km/h (0 Bft)
05.06.2019 00:44 15,8 °C 82 % 1006,5 hPa 0,0 mm 0,8 km/h (0 Bft) N-NW 328 ° 0 min 0,000 mm 0,0 UV-I 0 W/m² 12,7 °C 15,8 °C 3,2 km/h (1 Bft)
05.06.2019 00:45 15,8 °C 82 % 1006,6 hPa 0,0 mm 0,9 km/h (0 Bft) N-NW 328 ° 0 min 0,000 mm 0,0 UV-I 0 W/m² 12,7 °C 15,8 °C 4,8 km/h (1 Bft)
05.06.2019 00:46 15,9 °C 82 % 1006,6 hPa 0,0 mm 0,0 km/h (0 Bft) N-NW 328 ° 0 min 0,000 mm 0,0 UV-I 0 W/m² 12,8 °C 15,9 °C 0,0 km/h (0 Bft)
05.06.2019 00:47 15,8 °C 82 % 1006,6 hPa 0,0 mm 0,0 km/h (0 Bft) N-NW 328 ° 0 min 0,000 mm 0,0 UV-I 0 W/m² 12,7 °C 15,8 °C 0,0 km/h (0 Bft)
05.06.2019 00:48 15,8 °C 82 % 1006,6 hPa 0,0 mm 0,0 km/h (0 Bft) N-NW 328 ° 0 min 0,000 mm 0,0 UV-I 0 W/m² 12,7 °C 15,8 °C 0,0 km/h (0 Bft)
05.06.2019 00:49 15,9 °C 82 % 1006,5 hPa 0,0 mm 0,0 km/h (0 Bft) N-NW 328 ° 0 min 0,000 mm 0,0 UV-I 0 W/m² 12,8 °C 15,9 °C 0,0 km/h (0 Bft)
05.06.2019 00:50 15,8 °C 81 % 1006,6 hPa 0,0 mm 0,0 km/h (0 Bft) N-NW 328 ° 0 min 0,000 mm 0,0 UV-I 0 W/m² 12,5 °C 15,8 °C 0,0 km/h (0 Bft)
05.06.2019 00:51 15,9 °C 82 % 1006,5 hPa 0,0 mm 0,0 km/h (0 Bft) N-NW 328 ° 0 min 0,000 mm 0,0 UV-I 0 W/m² 12,8 °C 15,9 °C 0,0 km/h (0 Bft)
05.06.2019 00:52 15,9 °C 82 % 1006,5 hPa 0,0 mm 0,0 km/h (0 Bft) N-NW 328 ° 0 min 0,000 mm 0,0 UV-I 0 W/m² 12,8 °C 15,9 °C 0,0 km/h (0 Bft)
05.06.2019 00:53 16,0 °C 82 % 1006,5 hPa 0,0 mm 0,0 km/h (0 Bft) N-NW 328 ° 0 min 0,000 mm 0,0 UV-I 0 W/m² 12,9 °C 16,0 °C 0,0 km/h (0 Bft)
05.06.2019 00:54 15,9 °C 82 % 1006,5 hPa 0,0 mm 0,0 km/h (0 Bft) N-NW 328 ° 0 min 0,000 mm 0,0 UV-I 0 W/m² 12,8 °C 15,9 °C 0,0 km/h (0 Bft)
05.06.2019 00:55 15,9 °C 82 % 1006,5 hPa 0,0 mm 0,0 km/h (0 Bft) N-NW 328 ° 0 min 0,000 mm 0,0 UV-I 0 W/m² 12,8 °C 15,9 °C 0,0 km/h (0 Bft)
05.06.2019 00:56 15,9 °C 82 % 1006,5 hPa 0,0 mm 0,0 km/h (0 Bft) N-NW 328 ° 0 min 0,000 mm 0,0 UV-I 0 W/m² 12,8 °C 15,9 °C 0,0 km/h (0 Bft)
05.06.2019 00:57 15,8 °C 82 % 1006,5 hPa 0,0 mm 0,0 km/h (0 Bft) N-NW 328 ° 0 min 0,000 mm 0,0 UV-I 0 W/m² 12,7 °C 15,8 °C 0,0 km/h (0 Bft)
05.06.2019 00:58 15,7 °C 82 % 1006,5 hPa 0,0 mm 0,0 km/h (0 Bft) N-NW 328 ° 0 min 0,000 mm 0,0 UV-I 0 W/m² 12,6 °C 15,7 °C 0,0 km/h (0 Bft)
05.06.2019 00:59 15,6 °C 82 % 1006,4 hPa 0,0 mm 0,0 km/h (0 Bft) N-NW 328 ° 0 min 0,000 mm 0,0 UV-I 0 W/m² 12,5 °C 15,6 °C 0,0 km/h (0 Bft)
05.06.2019 01:00 15,6 °C 83 % 1006,5 hPa 0,0 mm 1,1 km/h (1 Bft) N-NW 329 ° 0 min 0,025 mm 0,0 UV-I 0 W/m² 12,7 °C 15,6 °C 4,8 km/h (1 Bft)
05.06.2019 01:01 15,4 °C 83 % 1006,4 hPa 0,0 mm 0,5 km/h (0 Bft) N-NW 329 ° 0 min 0,000 mm 0,0 UV-I 0 W/m² 12,5 °C 15,4 °C 3,2 km/h (1 Bft)
05.06.2019 01:02 15,4 °C 83 % 1006,4 hPa 0,0 mm 0,0 km/h (0 Bft) N-NW 329 ° 0 min 0,000 mm 0,0 UV-I 0 W/m² 12,5 °C 15,4 °C 0,0 km/h (0 Bft)
05.06.2019 01:03 15,4 °C 84 % 1006,4 hPa 0,0 mm 0,0 km/h (0 Bft) N-NW 329 ° 0 min 0,000 mm 0,0 UV-I 0 W/m² 12,7 °C 15,4 °C 0,0 km/h (0 Bft)
05.06.2019 01:04 15,4 °C 84 % 1006,4 hPa 0,0 mm 0,0 km/h (0 Bft) N-NW 329 ° 0 min 0,000 mm 0,0 UV-I 0 W/m² 12,7 °C 15,4 °C 0,0 km/h (0 Bft)
05.06.2019 01:05 15,3 °C 84 % 1006,4 hPa 0,0 mm 0,0 km/h (0 Bft) N-NW 329 ° 0 min 0,000 mm 0,0 UV-I 0 W/m² 12,6 °C 15,3 °C 0,0 km/h (0 Bft)
05.06.2019 01:06 15,3 °C 83 % 1006,4 hPa 0,0 mm 0,0 km/h (0 Bft) N-NW 329 ° 0 min 0,000 mm 0,0 UV-I 0 W/m² 12,4 °C 15,3 °C 0,0 km/h (0 Bft)
05.06.2019 01:07 15,4 °C 83 % 1006,4 hPa 0,0 mm 0,4 km/h (0 Bft) N-NW 329 ° 0 min 0,000 mm 0,0 UV-I 0 W/m² 12,5 °C 15,4 °C 1,6 km/h (1 Bft)
05.06.2019 01:08 15,4 °C 83 % 1006,4 hPa 0,0 mm 0,0 km/h (0 Bft) N-NW 329 ° 0 min 0,000 mm 0,0 UV-I 0 W/m² 12,5 °C 15,4 °C 0,0 km/h (0 Bft)
05.06.2019 01:09 15,4 °C 83 % 1006,4 hPa 0,0 mm 0,0 km/h (0 Bft) N-NW 329 ° 0 min 0,000 mm 0,0 UV-I 0 W/m² 12,5 °C 15,4 °C 0,0 km/h (0 Bft)
05.06.2019 01:10 15,4 °C 83 % 1006,4 hPa 0,0 mm 0,0 km/h (0 Bft) N-NW 329 ° 0 min 0,000 mm 0,0 UV-I 0 W/m² 12,5 °C 15,4 °C 0,0 km/h (0 Bft)
05.06.2019 01:11 15,4 °C 84 % 1006,4 hPa 0,0 mm 0,1 km/h (0 Bft) N-NW 329 ° 0 min 0,000 mm 0,0 UV-I 0 W/m² 12,7 °C 15,4 °C 1,6 km/h (1 Bft)
05.06.2019 01:12 15,5 °C 84 % 1006,4 hPa 0,0 mm 0,0 km/h (0 Bft) N-NW 329 ° 0 min 0,000 mm 0,0 UV-I 0 W/m² 12,8 °C 15,5 °C 0,0 km/h (0 Bft)
05.06.2019 01:13 15,5 °C 83 % 1006,4 hPa 0,0 mm 0,0 km/h (0 Bft) N-NW 329 ° 0 min 0,000 mm 0,0 UV-I 0 W/m² 12,6 °C 15,5 °C 0,0 km/h (0 Bft)
05.06.2019 01:14 15,6 °C 83 % 1006,4 hPa 0,0 mm 0,0 km/h (0 Bft) N-NW 329 ° 0 min 0,000 mm 0,0 UV-I 0 W/m² 12,7 °C 15,6 °C 0,0 km/h (0 Bft)
05.06.2019 01:15 15,6 °C 82 % 1006,4 hPa 0,0 mm 0,0 km/h (0 Bft) N-NW 329 ° 0 min 0,000 mm 0,0 UV-I 0 W/m² 12,5 °C 15,6 °C 0,0 km/h (0 Bft)
05.06.2019 01:16 15,6 °C 82 % 1006,3 hPa 0,0 mm 0,0 km/h (0 Bft) N-NW 329 ° 0 min 0,000 mm 0,0 UV-I 0 W/m² 12,5 °C 15,6 °C 0,0 km/h (0 Bft)
05.06.2019 01:17 15,7 °C 83 % 1006,3 hPa 0,0 mm 0,0 km/h (0 Bft) N-NW 329 ° 0 min 0,000 mm 0,0 UV-I 0 W/m² 12,8 °C 15,7 °C 0,0 km/h (0 Bft)
05.06.2019 01:18 15,7 °C 82 % 1006,4 hPa 0,0 mm 0,0 km/h (0 Bft) N-NW 329 ° 0 min 0,000 mm 0,0 UV-I 0 W/m² 12,6 °C 15,7 °C 0,0 km/h (0 Bft)
05.06.2019 01:19 15,7 °C 83 % 1006,3 hPa 0,0 mm 0,0 km/h (0 Bft) N-NW 329 ° 0 min 0,000 mm 0,0 UV-I 0 W/m² 12,8 °C 15,7 °C 0,0 km/h (0 Bft)
05.06.2019 01:20 15,7 °C 82 % 1006,3 hPa 0,0 mm 0,0 km/h (0 Bft) N-NW 329 ° 0 min 0,000 mm 0,0 UV-I 0 W/m² 12,6 °C 15,7 °C 0,0 km/h (0 Bft)
05.06.2019 01:21 15,7 °C 82 % 1006,3 hPa 0,0 mm 0,0 km/h (0 Bft) N-NW 329 ° 0 min 0,000 mm 0,0 UV-I 0 W/m² 12,6 °C 15,7 °C 0,0 km/h (0 Bft)
05.06.2019 01:22 15,7 °C 82 % 1006,3 hPa 0,0 mm 2,4 km/h (1 Bft) NW 318 ° 0 min 0,000 mm 0,0 UV-I 0 W/m² 12,6 °C 15,7 °C 3,2 km/h (1 Bft)
05.06.2019 01:23 15,7 °C 82 % 1006,3 hPa 0,0 mm 0,2 km/h (0 Bft) NW 318 ° 0 min 0,000 mm 0,0 UV-I 0 W/m² 12,6 °C 15,7 °C 1,6 km/h (1 Bft)
05.06.2019 01:24 15,8 °C 81 % 1006,4 hPa 0,0 mm 0,0 km/h (0 Bft) NW 318 ° 0 min 0,000 mm 0,0 UV-I 0 W/m² 12,5 °C 15,8 °C 0,0 km/h (0 Bft)
05.06.2019 01:25 15,8 °C 81 % 1006,3 hPa 0,0 mm 0,0 km/h (0 Bft) NW 318 ° 0 min 0,000 mm 0,0 UV-I 0 W/m² 12,5 °C 15,8 °C 0,0 km/h (0 Bft)
05.06.2019 01:26 15,8 °C 81 % 1006,3 hPa 0,0 mm 0,0 km/h (0 Bft) NW 318 ° 0 min 0,000 mm 0,0 UV-I 0 W/m² 12,5 °C 15,8 °C 0,0 km/h (0 Bft)
05.06.2019 01:27 15,8 °C 81 % 1006,3 hPa 0,0 mm 0,0 km/h (0 Bft) NW 318 ° 0 min 0,000 mm 0,0 UV-I 0 W/m² 12,5 °C 15,8 °C 0,0 km/h (0 Bft)
05.06.2019 01:28 15,8 °C 81 % 1006,3 hPa 0,0 mm 0,0 km/h (0 Bft) NW 318 ° 0 min 0,000 mm 0,0 UV-I 0 W/m² 12,5 °C 15,8 °C 0,0 km/h (0 Bft)
05.06.2019 01:29 15,9 °C 81 % 1006,3 hPa 0,0 mm 0,0 km/h (0 Bft) NW 318 ° 0 min 0,000 mm 0,0 UV-I 0 W/m² 12,6 °C 15,9 °C 0,0 km/h (0 Bft)
05.06.2019 01:30 15,9 °C 81 % 1006,3 hPa 0,0 mm 0,0 km/h (0 Bft) NW 318 ° 0 min 0,000 mm 0,0 UV-I 0 W/m² 12,6 °C 15,9 °C 0,0 km/h (0 Bft)
05.06.2019 01:31 15,8 °C 81 % 1006,3 hPa 0,0 mm 0,0 km/h (0 Bft) NW 318 ° 0 min 0,000 mm 0,0 UV-I 0 W/m² 12,5 °C 15,8 °C 0,0 km/h (0 Bft)
05.06.2019 01:32 15,9 °C 81 % 1006,3 hPa 0,0 mm 0,0 km/h (0 Bft) NW 318 ° 0 min 0,000 mm 0,0 UV-I 0 W/m² 12,6 °C 15,9 °C 0,0 km/h (0 Bft)
05.06.2019 01:33 15,8 °C 81 % 1006,3 hPa 0,0 mm 0,0 km/h (0 Bft) NW 318 ° 0 min 0,000 mm 0,0 UV-I 0 W/m² 12,5 °C 15,8 °C 0,0 km/h (0 Bft)
05.06.2019 01:34 15,8 °C 81 % 1006,3 hPa 0,0 mm 0,0 km/h (0 Bft) NW 318 ° 0 min 0,000 mm 0,0 UV-I 0 W/m² 12,5 °C 15,8 °C 0,0 km/h (0 Bft)
05.06.2019 01:35 15,8 °C 81 % 1006,2 hPa 0,0 mm 0,0 km/h (0 Bft) NW 318 ° 0 min 0,000 mm 0,0 UV-I 0 W/m² 12,5 °C 15,8 °C 0,0 km/h (0 Bft)
05.06.2019 01:36 15,8 °C 81 % 1006,2 hPa 0,0 mm 0,0 km/h (0 Bft) NW 318 ° 0 min 0,000 mm 0,0 UV-I 0 W/m² 12,5 °C 15,8 °C 0,0 km/h (0 Bft)
05.06.2019 01:37 15,8 °C 81 % 1006,2 hPa 0,0 mm 0,0 km/h (0 Bft) NW 318 ° 0 min 0,000 mm 0,0 UV-I 0 W/m² 12,5 °C 15,8 °C 0,0 km/h (0 Bft)
05.06.2019 01:38 15,8 °C 81 % 1006,2 hPa 0,0 mm 1,2 km/h (1 Bft) W-NW 288 ° 0 min 0,000 mm 0,0 UV-I 0 W/m² 12,5 °C 15,8 °C 3,2 km/h (1 Bft)
05.06.2019 01:39 15,8 °C 81 % 1006,2 hPa 0,0 mm 0,0 km/h (0 Bft) W-NW 288 ° 0 min 0,000 mm 0,0 UV-I 0 W/m² 12,5 °C 15,8 °C 0,0 km/h (0 Bft)
05.06.2019 01:40 15,8 °C 81 % 1006,2 hPa 0,0 mm 0,0 km/h (0 Bft) W-NW 288 ° 0 min 0,000 mm 0,0 UV-I 0 W/m² 12,5 °C 15,8 °C 0,0 km/h (0 Bft)
05.06.2019 01:41 15,8 °C 81 % 1006,1 hPa 0,0 mm 0,0 km/h (0 Bft) W-NW 288 ° 0 min 0,000 mm 0,0 UV-I 0 W/m² 12,5 °C 15,8 °C 0,0 km/h (0 Bft)
05.06.2019 01:42 15,8 °C 81 % 1006,2 hPa 0,0 mm 0,6 km/h (0 Bft) N-NW 339 ° 0 min 0,000 mm 0,0 UV-I 0 W/m² 12,5 °C 15,8 °C 3,2 km/h (1 Bft)
05.06.2019 01:43 15,8 °C 81 % 1006,1 hPa 0,0 mm 0,1 km/h (0 Bft) N-NW 339 ° 0 min 0,000 mm 0,0 UV-I 0 W/m² 12,5 °C 15,8 °C 1,6 km/h (1 Bft)
05.06.2019 01:44 15,8 °C 81 % 1006,1 hPa 0,0 mm 0,0 km/h (0 Bft) N-NW 339 ° 0 min 0,000 mm 0,0 UV-I 0 W/m² 12,5 °C 15,8 °C 0,0 km/h (0 Bft)
05.06.2019 01:45 15,8 °C 81 % 1006,1 hPa 0,0 mm 0,0 km/h (0 Bft) N-NW 339 ° 0 min 0,000 mm 0,0 UV-I 0 W/m² 12,5 °C 15,8 °C 0,0 km/h (0 Bft)
05.06.2019 01:46 15,8 °C 81 % 1006,1 hPa 0,0 mm 0,0 km/h (0 Bft) N-NW 339 ° 0 min 0,000 mm 0,0 UV-I 0 W/m² 12,5 °C 15,8 °C 0,0 km/h (0 Bft)
05.06.2019 01:47 15,8 °C 81 % 1006,1 hPa 0,0 mm 0,2 km/h (0 Bft) N-NW 339 ° 0 min 0,000 mm 0,0 UV-I 0 W/m² 12,5 °C 15,8 °C 1,6 km/h (1 Bft)
05.06.2019 01:48 15,8 °C 81 % 1006,1 hPa 0,0 mm 0,0 km/h (0 Bft) N-NW 339 ° 0 min 0,000 mm 0,0 UV-I 0 W/m² 12,5 °C 15,8 °C 0,0 km/h (0 Bft)
05.06.2019 01:49 15,9 °C 80 % 1006,1 hPa 0,0 mm 0,0 km/h (0 Bft) N-NW 339 ° 0 min 0,000 mm 0,0 UV-I 0 W/m² 12,5 °C 15,9 °C 0,0 km/h (0 Bft)
05.06.2019 01:50 15,9 °C 80 % 1006,1 hPa 0,0 mm 1,4 km/h (1 Bft) W-NW 293 ° 0 min 0,000 mm 0,0 UV-I 0 W/m² 12,5 °C 15,9 °C 4,8 km/h (1 Bft)
05.06.2019 01:51 15,9 °C 80 % 1006,1 hPa 0,0 mm 0,8 km/h (0 Bft) W-NW 290 ° 0 min 0,000 mm 0,0 UV-I 0 W/m² 12,5 °C 15,9 °C 3,2 km/h (1 Bft)
05.06.2019 01:52 15,9 °C 80 % 1006,1 hPa 0,0 mm 0,2 km/h (0 Bft) W-NW 290 ° 0 min 0,000 mm 0,0 UV-I 0 W/m² 12,5 °C 15,9 °C 1,6 km/h (1 Bft)
05.06.2019 01:53 15,9 °C 80 % 1006,1 hPa 0,0 mm 0,0 km/h (0 Bft) W-NW 290 ° 0 min 0,000 mm 0,0 UV-I 0 W/m² 12,5 °C 15,9 °C 0,0 km/h (0 Bft)
05.06.2019 01:54 15,9 °C 80 % 1006,1 hPa 0,0 mm 0,0 km/h (0 Bft) W-NW 290 ° 0 min 0,000 mm 0,0 UV-I 0 W/m² 12,5 °C 15,9 °C 0,0 km/h (0 Bft)
05.06.2019 01:55 15,8 °C 80 % 1006,1 hPa 0,0 mm 0,0 km/h (0 Bft) W-NW 290 ° 0 min 0,000 mm 0,0 UV-I 0 W/m² 12,4 °C 15,8 °C 0,0 km/h (0 Bft)
05.06.2019 01:56 15,9 °C 80 % 1006,1 hPa 0,0 mm 0,0 km/h (0 Bft) W-NW 290 ° 0 min 0,000 mm 0,0 UV-I 0 W/m² 12,5 °C 15,9 °C 0,0 km/h (0 Bft)
05.06.2019 01:57 15,8 °C 80 % 1006,1 hPa 0,0 mm 0,0 km/h (0 Bft) W-NW 290 ° 0 min 0,000 mm 0,0 UV-I 0 W/m² 12,4 °C 15,8 °C 0,0 km/h (0 Bft)
05.06.2019 01:58 15,8 °C 80 % 1006,1 hPa 0,0 mm 0,0 km/h (0 Bft) W-NW 290 ° 0 min 0,000 mm 0,0 UV-I 0 W/m² 12,4 °C 15,8 °C 0,0 km/h (0 Bft)
05.06.2019 01:59 15,8 °C 80 % 1006,0 hPa 0,0 mm 0,7 km/h (0 Bft) N 360 ° 0 min 0,000 mm 0,0 UV-I 0 W/m² 12,4 °C 15,8 °C 3,2 km/h (1 Bft)
05.06.2019 02:00 15,8 °C 80 % 1006,0 hPa 0,0 mm 0,0 km/h (0 Bft) N 360 ° 0 min 0,026 mm 0,0 UV-I 0 W/m² 12,4 °C 15,8 °C 0,0 km/h (0 Bft)
05.06.2019 02:01 15,9 °C 80 % 1006,0 hPa 0,0 mm 0,0 km/h (0 Bft) N 360 ° 0 min 0,000 mm 0,0 UV-I 0 W/m² 12,5 °C 15,9 °C 0,0 km/h (0 Bft)
05.06.2019 02:02 16,0 °C 79 % 1006,1 hPa 0,0 mm 0,0 km/h (0 Bft) N 360 ° 0 min 0,000 mm 0,0 UV-I 0 W/m² 12,4 °C 16,0 °C 0,0 km/h (0 Bft)
05.06.2019 02:03 16,0 °C 79 % 1006,0 hPa 0,0 mm 1,1 km/h (1 Bft) N 360 ° 0 min 0,000 mm 0,0 UV-I 0 W/m² 12,4 °C 16,0 °C 3,2 km/h (1 Bft)
05.06.2019 02:04 16,0 °C 80 % 1006,0 hPa 0,0 mm 1,1 km/h (1 Bft) N 351 ° 0 min 0,000 mm 0,0 UV-I 0 W/m² 12,5 °C 16,0 °C 3,2 km/h (1 Bft)
05.06.2019 02:05 16,0 °C 80 % 1006,0 hPa 0,0 mm 1,3 km/h (1 Bft) N 350 ° 0 min 0,000 mm 0,0 UV-I 0 W/m² 12,5 °C 16,0 °C 3,2 km/h (1 Bft)
05.06.2019 02:06 16,0 °C 79 % 1006,0 hPa 0,0 mm 0,0 km/h (0 Bft) N 350 ° 0 min 0,000 mm 0,0 UV-I 0 W/m² 12,4 °C 16,0 °C 0,0 km/h (0 Bft)
05.06.2019 02:07 16,1 °C 79 % 1005,9 hPa 0,0 mm 0,0 km/h (0 Bft) N 350 ° 0 min 0,000 mm 0,0 UV-I 0 W/m² 12,5 °C 16,1 °C 0,0 km/h (0 Bft)
05.06.2019 02:08 16,1 °C 79 % 1005,9 hPa 0,0 mm 0,0 km/h (0 Bft) N 350 ° 0 min 0,000 mm 0,0 UV-I 0 W/m² 12,5 °C 16,1 °C 0,0 km/h (0 Bft)
05.06.2019 02:09 16,1 °C 79 % 1006,0 hPa 0,0 mm 0,0 km/h (0 Bft) N 350 ° 0 min 0,000 mm 0,0 UV-I 0 W/m² 12,5 °C 16,1 °C 0,0 km/h (0 Bft)
05.06.2019 02:10 16,1 °C 79 % 1005,9 hPa 0,0 mm 0,0 km/h (0 Bft) N 350 ° 0 min 0,000 mm 0,0 UV-I 0 W/m² 12,5 °C 16,1 °C 0,0 km/h (0 Bft)
05.06.2019 02:11 16,1 °C 79 % 1005,9 hPa 0,0 mm 0,0 km/h (0 Bft) N 350 ° 0 min 0,000 mm 0,0 UV-I 0 W/m² 12,5 °C 16,1 °C 0,0 km/h (0 Bft)
05.06.2019 02:12 16,0 °C 79 % 1005,9 hPa 0,0 mm 0,0 km/h (0 Bft) N 350 ° 0 min 0,000 mm 0,0 UV-I 0 W/m² 12,4 °C 16,0 °C 0,0 km/h (0 Bft)
05.06.2019 02:13 16,0 °C 79 % 1005,9 hPa 0,0 mm 0,0 km/h (0 Bft) N 350 ° 0 min 0,000 mm 0,0 UV-I 0 W/m² 12,4 °C 16,0 °C 0,0 km/h (0 Bft)
05.06.2019 02:14 16,0 °C 79 % 1005,8 hPa 0,0 mm 0,0 km/h (0 Bft) N 350 ° 0 min 0,000 mm 0,0 UV-I 0 W/m² 12,4 °C 16,0 °C 0,0 km/h (0 Bft)
05.06.2019 02:15 15,9 °C 79 % 1005,8 hPa 0,0 mm 0,0 km/h (0 Bft) N 350 ° 0 min 0,000 mm 0,0 UV-I 0 W/m² 12,3 °C 15,9 °C 0,0 km/h (0 Bft)
05.06.2019 02:16 15,9 °C 79 % 1005,9 hPa 0,0 mm 0,0 km/h (0 Bft) N 350 ° 0 min 0,000 mm 0,0 UV-I 0 W/m² 12,3 °C 15,9 °C 0,0 km/h (0 Bft)
05.06.2019 02:17 15,9 °C 79 % 1005,8 hPa 0,0 mm 0,0 km/h (0 Bft) N 350 ° 0 min 0,000 mm 0,0 UV-I 0 W/m² 12,3 °C 15,9 °C 0,0 km/h (0 Bft)
05.06.2019 02:18 15,8 °C 79 % 1005,8 hPa 0,0 mm 0,0 km/h (0 Bft) N 349 ° 0 min 0,000 mm 0,0 UV-I 0 W/m² 12,2 °C 15,8 °C 0,0 km/h (0 Bft)
05.06.2019 02:19 15,7 °C 80 % 1005,8 hPa 0,0 mm 0,0 km/h (0 Bft) N 350 ° 0 min 0,000 mm 0,0 UV-I 0 W/m² 12,3 °C 15,7 °C 0,0 km/h (0 Bft)
05.06.2019 02:20 15,7 °C 80 % 1005,8 hPa 0,0 mm 0,0 km/h (0 Bft) N 350 ° 0 min 0,000 mm 0,0 UV-I 0 W/m² 12,3 °C 15,7 °C 0,0 km/h (0 Bft)
05.06.2019 02:21 15,7 °C 80 % 1005,8 hPa 0,0 mm 0,0 km/h (0 Bft) N 350 ° 0 min 0,000 mm 0,0 UV-I 0 W/m² 12,3 °C 15,7 °C 0,0 km/h (0 Bft)
05.06.2019 02:22 15,7 °C 80 % 1005,8 hPa 0,0 mm 0,0 km/h (0 Bft) N 350 ° 0 min 0,000 mm 0,0 UV-I 0 W/m² 12,3 °C 15,7 °C 0,0 km/h (0 Bft)
05.06.2019 02:23 15,6 °C 80 % 1005,8 hPa 0,0 mm 0,0 km/h (0 Bft) N 350 ° 0 min 0,000 mm 0,0 UV-I 0 W/m² 12,2 °C 15,6 °C 0,0 km/h (0 Bft)
05.06.2019 02:24 15,7 °C 80 % 1005,8 hPa 0,0 mm 0,0 km/h (0 Bft) N 350 ° 0 min 0,000 mm 0,0 UV-I 0 W/m² 12,3 °C 15,7 °C 0,0 km/h (0 Bft)
05.06.2019 02:25 15,7 °C 79 % 1005,8 hPa 0,0 mm 0,0 km/h (0 Bft) N 350 ° 0 min 0,000 mm 0,0 UV-I 0 W/m² 12,1 °C 15,7 °C 0,0 km/h (0 Bft)
05.06.2019 02:26 15,8 °C 79 % 1005,8 hPa 0,0 mm 0,0 km/h (0 Bft) N 350 ° 0 min 0,000 mm 0,0 UV-I 0 W/m² 12,2 °C 15,8 °C 0,0 km/h (0 Bft)
05.06.2019 02:27 15,8 °C 79 % 1005,7 hPa 0,0 mm 0,5 km/h (0 Bft) N 350 ° 0 min 0,000 mm 0,0 UV-I 0 W/m² 12,2 °C 15,8 °C 3,2 km/h (1 Bft)
05.06.2019 02:28 15,8 °C 79 % 1005,7 hPa 0,0 mm 0,1 km/h (0 Bft) N 350 ° 0 min 0,000 mm 0,0 UV-I 0 W/m² 12,2 °C 15,8 °C 1,6 km/h (1 Bft)
05.06.2019 02:29 15,8 °C 79 % 1005,7 hPa 0,0 mm 0,0 km/h (0 Bft) N 350 ° 0 min 0,000 mm 0,0 UV-I 0 W/m² 12,2 °C 15,8 °C 0,0 km/h (0 Bft)
05.06.2019 02:30 15,7 °C 78 % 1005,8 hPa 0,0 mm 0,0 km/h (0 Bft) N 350 ° 0 min 0,000 mm 0,0 UV-I 0 W/m² 11,9 °C 15,7 °C 0,0 km/h (0 Bft)
05.06.2019 02:31 15,7 °C 79 % 1005,8 hPa 0,0 mm 0,0 km/h (0 Bft) N 350 ° 0 min 0,000 mm 0,0 UV-I 0 W/m² 12,1 °C 15,7 °C 0,0 km/h (0 Bft)
05.06.2019 02:32 15,7 °C 79 % 1005,8 hPa 0,0 mm 0,0 km/h (0 Bft) N 350 ° 0 min 0,000 mm 0,0 UV-I 0 W/m² 12,1 °C 15,7 °C 0,0 km/h (0 Bft)
05.06.2019 02:33 15,7 °C 79 % 1005,8 hPa 0,0 mm 0,0 km/h (0 Bft) N 350 ° 0 min 0,000 mm 0,0 UV-I 0 W/m² 12,1 °C 15,7 °C 0,0 km/h (0 Bft)
05.06.2019 02:34 15,7 °C 79 % 1005,7 hPa 0,0 mm 0,0 km/h (0 Bft) N 350 ° 0 min 0,000 mm 0,0 UV-I 0 W/m² 12,1 °C 15,7 °C 0,0 km/h (0 Bft)
05.06.2019 02:35 15,7 °C 79 % 1005,7 hPa 0,0 mm 0,0 km/h (0 Bft) N 350 ° 0 min 0,000 mm 0,0 UV-I 0 W/m² 12,1 °C 15,7 °C 0,0 km/h (0 Bft)
05.06.2019 02:36 15,7 °C 79 % 1005,7 hPa 0,0 mm 0,0 km/h (0 Bft) N 350 ° 0 min 0,000 mm 0,0 UV-I 0 W/m² 12,1 °C 15,7 °C 0,0 km/h (0 Bft)
05.06.2019 02:37 15,8 °C 78 % 1005,7 hPa 0,0 mm 0,0 km/h (0 Bft) N 350 ° 0 min 0,000 mm 0,0 UV-I 0 W/m² 12,0 °C 15,8 °C 0,0 km/h (0 Bft)
05.06.2019 02:38 15,8 °C 78 % 1005,7 hPa 0,0 mm 0,0 km/h (0 Bft) N 350 ° 0 min 0,000 mm 0,0 UV-I 0 W/m² 12,0 °C 15,8 °C 0,0 km/h (0 Bft)
05.06.2019 02:39 15,9 °C 78 % 1005,7 hPa 0,0 mm 0,2 km/h (0 Bft) N 349 ° 0 min 0,000 mm 0,0 UV-I 0 W/m² 12,1 °C 15,9 °C 1,6 km/h (1 Bft)
05.06.2019 02:40 15,9 °C 78 % 1005,6 hPa 0,0 mm 0,1 km/h (0 Bft) N 349 ° 0 min 0,000 mm 0,0 UV-I 0 W/m² 12,1 °C 15,9 °C 1,6 km/h (1 Bft)
05.06.2019 02:41 15,9 °C 78 % 1005,6 hPa 0,0 mm 0,1 km/h (0 Bft) N 349 ° 0 min 0,000 mm 0,0 UV-I 0 W/m² 12,1 °C 15,9 °C 1,6 km/h (1 Bft)
05.06.2019 02:42 15,9 °C 78 % 1005,6 hPa 0,0 mm 0,0 km/h (0 Bft) N 349 ° 0 min 0,000 mm 0,0 UV-I 0 W/m² 12,1 °C 15,9 °C 0,0 km/h (0 Bft)
05.06.2019 02:43 15,9 °C 77 % 1005,6 hPa 0,0 mm 0,0 km/h (0 Bft) N 349 ° 0 min 0,000 mm 0,0 UV-I 0 W/m² 11,9 °C 15,9 °C 0,0 km/h (0 Bft)
05.06.2019 02:44 15,9 °C 77 % 1005,6 hPa 0,0 mm 0,0 km/h (0 Bft) N 349 ° 0 min 0,000 mm 0,0 UV-I 0 W/m² 11,9 °C 15,9 °C 0,0 km/h (0 Bft)
05.06.2019 02:45 15,9 °C 77 % 1005,6 hPa 0,0 mm 0,0 km/h (0 Bft) N 349 ° 0 min 0,000 mm 0,0 UV-I 0 W/m² 11,9 °C 15,9 °C 0,0 km/h (0 Bft)
05.06.2019 02:46 15,8 °C 77 % 1005,6 hPa 0,0 mm 0,0 km/h (0 Bft) N 349 ° 0 min 0,000 mm 0,0 UV-I 0 W/m² 11,8 °C 15,8 °C 0,0 km/h (0 Bft)
05.06.2019 02:47 15,8 °C 78 % 1005,6 hPa 0,0 mm 0,0 km/h (0 Bft) N 349 ° 0 min 0,000 mm 0,0 UV-I 0 W/m² 12,0 °C 15,8 °C 0,0 km/h (0 Bft)
05.06.2019 02:48 15,8 °C 77 % 1005,6 hPa 0,0 mm 0,0 km/h (0 Bft) N 350 ° 0 min 0,000 mm 0,0 UV-I 0 W/m² 11,8 °C 15,8 °C 0,0 km/h (0 Bft)
05.06.2019 02:49 15,9 °C 77 % 1005,7 hPa 0,0 mm 0,0 km/h (0 Bft) N 350 ° 0 min 0,000 mm 0,0 UV-I 0 W/m² 11,9 °C 15,9 °C 0,0 km/h (0 Bft)
05.06.2019 02:50 15,9 °C 77 % 1005,6 hPa 0,0 mm 0,0 km/h (0 Bft) N 350 ° 0 min 0,000 mm 0,0 UV-I 0 W/m² 11,9 °C 15,9 °C 0,0 km/h (0 Bft)
05.06.2019 02:51 15,9 °C 77 % 1005,6 hPa 0,0 mm 0,0 km/h (0 Bft) N 350 ° 0 min 0,000 mm 0,0 UV-I 0 W/m² 11,9 °C 15,9 °C 0,0 km/h (0 Bft)
05.06.2019 02:52 15,9 °C 77 % 1005,6 hPa 0,0 mm 0,0 km/h (0 Bft) N 350 ° 0 min 0,000 mm 0,0 UV-I 0 W/m² 11,9 °C 15,9 °C 0,0 km/h (0 Bft)
05.06.2019 02:53 15,9 °C 77 % 1005,6 hPa 0,0 mm 0,0 km/h (0 Bft) N 350 ° 0 min 0,000 mm 0,0 UV-I 0 W/m² 11,9 °C 15,9 °C 0,0 km/h (0 Bft)
05.06.2019 02:54 15,9 °C 77 % 1005,5 hPa 0,0 mm 0,0 km/h (0 Bft) N 350 ° 0 min 0,000 mm 0,0 UV-I 0 W/m² 11,9 °C 15,9 °C 0,0 km/h (0 Bft)
05.06.2019 02:55 15,9 °C 76 % 1005,6 hPa 0,0 mm 0,0 km/h (0 Bft) N 350 ° 0 min 0,000 mm 0,0 UV-I 0 W/m² 11,7 °C 15,9 °C 0,0 km/h (0 Bft)
05.06.2019 02:56 15,9 °C 76 % 1005,5 hPa 0,0 mm 0,0 km/h (0 Bft) N 350 ° 0 min 0,000 mm 0,0 UV-I 0 W/m² 11,7 °C 15,9 °C 0,0 km/h (0 Bft)
05.06.2019 02:57 15,9 °C 77 % 1005,5 hPa 0,0 mm 0,0 km/h (0 Bft) N 350 ° 0 min 0,000 mm 0,0 UV-I 0 W/m² 11,9 °C 15,9 °C 0,0 km/h (0 Bft)
05.06.2019 02:58 15,8 °C 77 % 1005,5 hPa 0,0 mm 0,0 km/h (0 Bft) N 350 ° 0 min 0,000 mm 0,0 UV-I 0 W/m² 11,8 °C 15,8 °C 0,0 km/h (0 Bft)
05.06.2019 02:59 15,8 °C 76 % 1005,5 hPa 0,0 mm 0,0 km/h (0 Bft) N 350 ° 0 min 0,000 mm 0,0 UV-I 0 W/m² 11,6 °C 15,8 °C 0,0 km/h (0 Bft)
05.06.2019 03:00 15,8 °C 76 % 1005,5 hPa 0,0 mm 0,0 km/h (0 Bft) N 350 ° 0 min 0,000 mm 0,0 UV-I 0 W/m² 11,6 °C 15,8 °C 0,0 km/h (0 Bft)
05.06.2019 03:01 15,7 °C 76 % 1005,5 hPa 0,0 mm 0,0 km/h (0 Bft) N 350 ° 0 min 0,025 mm 0,0 UV-I 0 W/m² 11,5 °C 15,7 °C 0,0 km/h (0 Bft)
05.06.2019 03:02 15,7 °C 76 % 1005,5 hPa 0,0 mm 0,0 km/h (0 Bft) N 350 ° 0 min 0,000 mm 0,0 UV-I 0 W/m² 11,5 °C 15,7 °C 0,0 km/h (0 Bft)
05.06.2019 03:03 15,7 °C 77 % 1005,5 hPa 0,0 mm 0,0 km/h (0 Bft) N 350 ° 0 min 0,000 mm 0,0 UV-I 0 W/m² 11,7 °C 15,7 °C 0,0 km/h (0 Bft)
05.06.2019 03:04 15,7 °C 77 % 1005,5 hPa 0,0 mm 0,0 km/h (0 Bft) N 350 ° 0 min 0,000 mm 0,0 UV-I 0 W/m² 11,7 °C 15,7 °C 0,0 km/h (0 Bft)
05.06.2019 03:05 15,7 °C 77 % 1005,5 hPa 0,0 mm 0,0 km/h (0 Bft) N 350 ° 0 min 0,000 mm 0,0 UV-I 0 W/m² 11,7 °C 15,7 °C 0,0 km/h (0 Bft)
05.06.2019 03:06 15,7 °C 76 % 1005,4 hPa 0,0 mm 0,0 km/h (0 Bft) N 350 ° 0 min 0,000 mm 0,0 UV-I 0 W/m² 11,5 °C 15,7 °C 0,0 km/h (0 Bft)
05.06.2019 03:07 15,7 °C 76 % 1005,4 hPa 0,0 mm 0,0 km/h (0 Bft) N 350 ° 0 min 0,000 mm 0,0 UV-I 0 W/m² 11,5 °C 15,7 °C 0,0 km/h (0 Bft)
05.06.2019 03:08 15,8 °C 76 % 1005,4 hPa 0,0 mm 0,0 km/h (0 Bft) N 350 ° 0 min 0,000 mm 0,0 UV-I 0 W/m² 11,6 °C 15,8 °C 0,0 km/h (0 Bft)
05.06.2019 03:09 15,8 °C 75 % 1005,4 hPa 0,0 mm 0,0 km/h (0 Bft) N 350 ° 0 min 0,000 mm 0,0 UV-I 0 W/m² 11,4 °C 15,8 °C 0,0 km/h (0 Bft)
05.06.2019 03:10 15,8 °C 75 % 1005,5 hPa 0,0 mm 0,0 km/h (0 Bft) N 350 ° 0 min 0,000 mm 0,0 UV-I 0 W/m² 11,4 °C 15,8 °C 0,0 km/h (0 Bft)
05.06.2019 03:11 15,9 °C 75 % 1005,4 hPa 0,0 mm 0,0 km/h (0 Bft) N 350 ° 0 min 0,000 mm 0,0 UV-I 0 W/m² 11,5 °C 15,9 °C 0,0 km/h (0 Bft)
05.06.2019 03:12 15,9 °C 74 % 1005,4 hPa 0,0 mm 0,0 km/h (0 Bft) N 350 ° 0 min 0,000 mm 0,0 UV-I 0 W/m² 11,3 °C 15,9 °C 0,0 km/h (0 Bft)
05.06.2019 03:13 15,9 °C 75 % 1005,4 hPa 0,0 mm 0,0 km/h (0 Bft) N 350 ° 0 min 0,000 mm 0,0 UV-I 0 W/m² 11,5 °C 15,9 °C 0,0 km/h (0 Bft)
05.06.2019 03:14 15,9 °C 75 % 1005,4 hPa 0,0 mm 0,0 km/h (0 Bft) N 350 ° 0 min 0,000 mm 0,0 UV-I 0 W/m² 11,5 °C 15,9 °C 0,0 km/h (0 Bft)
05.06.2019 03:15 15,9 °C 74 % 1005,4 hPa 0,0 mm 0,0 km/h (0 Bft) N 350 ° 0 min 0,000 mm 0,0 UV-I 0 W/m² 11,3 °C 15,9 °C 0,0 km/h (0 Bft)
05.06.2019 03:16 15,9 °C 74 % 1005,4 hPa 0,0 mm 0,0 km/h (0 Bft) N 350 ° 0 min 0,000 mm 0,0 UV-I 0 W/m² 11,3 °C 15,9 °C 0,0 km/h (0 Bft)
05.06.2019 03:17 15,9 °C 74 % 1005,4 hPa 0,0 mm 0,0 km/h (0 Bft) N 350 ° 0 min 0,000 mm 0,0 UV-I 0 W/m² 11,3 °C 15,9 °C 0,0 km/h (0 Bft)
05.06.2019 03:18 15,9 °C 74 % 1005,3 hPa 0,0 mm 0,0 km/h (0 Bft) N 350 ° 0 min 0,000 mm 0,0 UV-I 0 W/m² 11,3 °C 15,9 °C 0,0 km/h (0 Bft)
05.06.2019 03:19 15,9 °C 74 % 1005,3 hPa 0,0 mm 0,0 km/h (0 Bft) N 350 ° 0 min 0,000 mm 0,0 UV-I 0 W/m² 11,3 °C 15,9 °C 0,0 km/h (0 Bft)
05.06.2019 03:20 15,8 °C 74 % 1005,2 hPa 0,0 mm 0,0 km/h (0 Bft) N 350 ° 0 min 0,000 mm 0,0 UV-I 0 W/m² 11,2 °C 15,8 °C 0,0 km/h (0 Bft)
05.06.2019 03:21 15,8 °C 74 % 1005,2 hPa 0,0 mm 0,0 km/h (0 Bft) N 350 ° 0 min 0,000 mm 0,0 UV-I 0 W/m² 11,2 °C 15,8 °C 0,0 km/h (0 Bft)
05.06.2019 03:22 15,8 °C 74 % 1005,2 hPa 0,0 mm 0,0 km/h (0 Bft) N 350 ° 0 min 0,000 mm 0,0 UV-I 0 W/m² 11,2 °C 15,8 °C 0,0 km/h (0 Bft)
05.06.2019 03:23 15,8 °C 74 % 1005,2 hPa 0,0 mm 0,0 km/h (0 Bft) N 350 ° 0 min 0,000 mm 0,0 UV-I 0 W/m² 11,2 °C 15,8 °C 0,0 km/h (0 Bft)
05.06.2019 03:24 15,8 °C 74 % 1005,3 hPa 0,0 mm 0,0 km/h (0 Bft) N 350 ° 0 min 0,000 mm 0,0 UV-I 0 W/m² 11,2 °C 15,8 °C 0,0 km/h (0 Bft)
05.06.2019 03:25 15,8 °C 75 % 1005,2 hPa 0,0 mm 0,0 km/h (0 Bft) N 350 ° 0 min 0,000 mm 0,0 UV-I 0 W/m² 11,4 °C 15,8 °C 0,0 km/h (0 Bft)
05.06.2019 03:26 15,8 °C 74 % 1005,2 hPa 0,0 mm 0,0 km/h (0 Bft) N 350 ° 0 min 0,000 mm 0,0 UV-I 0 W/m² 11,2 °C 15,8 °C 0,0 km/h (0 Bft)
05.06.2019 03:27 15,8 °C 74 % 1005,2 hPa 0,0 mm 0,0 km/h (0 Bft) N 350 ° 0 min 0,000 mm 0,0 UV-I 0 W/m² 11,2 °C 15,8 °C 0,0 km/h (0 Bft)
05.06.2019 03:28 15,8 °C 74 % 1005,2 hPa 0,0 mm 0,0 km/h (0 Bft) N 350 ° 0 min 0,000 mm 0,0 UV-I 0 W/m² 11,2 °C 15,8 °C 0,0 km/h (0 Bft)
05.06.2019 03:29 15,8 °C 74 % 1005,2 hPa 0,0 mm 0,0 km/h (0 Bft) N 350 ° 0 min 0,000 mm 0,0 UV-I 0 W/m² 11,2 °C 15,8 °C 0,0 km/h (0 Bft)
05.06.2019 03:30 15,7 °C 74 % 1005,2 hPa 0,0 mm 0,0 km/h (0 Bft) N 350 ° 0 min 0,000 mm 0,0 UV-I 0 W/m² 11,1 °C 15,7 °C 0,0 km/h (0 Bft)
05.06.2019 03:31 15,7 °C 74 % 1005,1 hPa 0,0 mm 0,0 km/h (0 Bft) N 350 ° 0 min 0,000 mm 0,0 UV-I 0 W/m² 11,1 °C 15,7 °C 0,0 km/h (0 Bft)
05.06.2019 03:32 15,8 °C 74 % 1005,2 hPa 0,0 mm 0,0 km/h (0 Bft) N 350 ° 0 min 0,000 mm 0,0 UV-I 0 W/m² 11,2 °C 15,8 °C 0,0 km/h (0 Bft)
05.06.2019 03:33 15,8 °C 74 % 1005,2 hPa 0,0 mm 0,0 km/h (0 Bft) N 350 ° 0 min 0,000 mm 0,0 UV-I 0 W/m² 11,2 °C 15,8 °C 0,0 km/h (0 Bft)
05.06.2019 03:34 15,7 °C 75 % 1005,2 hPa 0,0 mm 0,0 km/h (0 Bft) N 350 ° 0 min 0,000 mm 0,0 UV-I 0 W/m² 11,3 °C 15,7 °C 0,0 km/h (0 Bft)
05.06.2019 03:35 15,7 °C 75 % 1005,2 hPa 0,0 mm 0,0 km/h (0 Bft) N 350 ° 0 min 0,000 mm 0,0 UV-I 0 W/m² 11,3 °C 15,7 °C 0,0 km/h (0 Bft)
05.06.2019 03:36 15,7 °C 74 % 1005,2 hPa 0,0 mm 0,0 km/h (0 Bft) N 350 ° 0 min 0,000 mm 0,0 UV-I 0 W/m² 11,1 °C 15,7 °C 0,0 km/h (0 Bft)
05.06.2019 03:37 15,7 °C 74 % 1005,1 hPa 0,0 mm 0,0 km/h (0 Bft) N 350 ° 0 min 0,000 mm 0,0 UV-I 0 W/m² 11,1 °C 15,7 °C 0,0 km/h (0 Bft)
05.06.2019 03:38 15,7 °C 74 % 1005,2 hPa 0,0 mm 0,0 km/h (0 Bft) N 350 ° 0 min 0,000 mm 0,0 UV-I 0 W/m² 11,1 °C 15,7 °C 0,0 km/h (0 Bft)
05.06.2019 03:39 15,7 °C 73 % 1005,2 hPa 0,0 mm 0,0 km/h (0 Bft) N 350 ° 0 min 0,000 mm 0,0 UV-I 0 W/m² 10,9 °C 15,7 °C 0,0 km/h (0 Bft)
05.06.2019 03:40 15,7 °C 73 % 1005,2 hPa 0,0 mm 0,0 km/h (0 Bft) N 350 ° 0 min 0,000 mm 0,0 UV-I 0 W/m² 10,9 °C 15,7 °C 0,0 km/h (0 Bft)
05.06.2019 03:41 15,7 °C 73 % 1005,1 hPa 0,0 mm 0,0 km/h (0 Bft) N 349 ° 0 min 0,000 mm 0,0 UV-I 0 W/m² 10,9 °C 15,7 °C 0,0 km/h (0 Bft)
05.06.2019 03:42 15,7 °C 73 % 1005,1 hPa 0,0 mm 0,0 km/h (0 Bft) N 350 ° 0 min 0,000 mm 0,0 UV-I 0 W/m² 10,9 °C 15,7 °C 0,0 km/h (0 Bft)
05.06.2019 03:43 15,7 °C 73 % 1005,1 hPa 0,0 mm 0,0 km/h (0 Bft) N 350 ° 0 min 0,000 mm 0,0 UV-I 0 W/m² 10,9 °C 15,7 °C 0,0 km/h (0 Bft)
05.06.2019 03:44 15,7 °C 73 % 1005,1 hPa 0,0 mm 0,0 km/h (0 Bft) N 349 ° 0 min 0,000 mm 0,0 UV-I 0 W/m² 10,9 °C 15,7 °C 0,0 km/h (0 Bft)
05.06.2019 03:45 15,7 °C 73 % 1005,1 hPa 0,0 mm 0,0 km/h (0 Bft) N 350 ° 0 min 0,000 mm 0,0 UV-I 0 W/m² 10,9 °C 15,7 °C 0,0 km/h (0 Bft)
05.06.2019 03:46 15,7 °C 74 % 1005,1 hPa 0,0 mm 0,0 km/h (0 Bft) N 350 ° 0 min 0,000 mm 0,0 UV-I 0 W/m² 11,1 °C 15,7 °C 0,0 km/h (0 Bft)
05.06.2019 03:47 15,6 °C 73 % 1005,1 hPa 0,0 mm 0,0 km/h (0 Bft) N 350 ° 0 min 0,000 mm 0,0 UV-I 0 W/m² 10,8 °C 15,6 °C 0,0 km/h (0 Bft)
05.06.2019 03:48 15,7 °C 74 % 1005,1 hPa 0,0 mm 0,0 km/h (0 Bft) N 350 ° 0 min 0,000 mm 0,0 UV-I 0 W/m² 11,1 °C 15,7 °C 0,0 km/h (0 Bft)
05.06.2019 03:49 15,7 °C 73 % 1005,1 hPa 0,0 mm 0,0 km/h (0 Bft) N 350 ° 0 min 0,000 mm 0,0 UV-I 0 W/m² 10,9 °C 15,7 °C 0,0 km/h (0 Bft)
05.06.2019 03:50 15,7 °C 73 % 1005,1 hPa 0,0 mm 0,0 km/h (0 Bft) N 350 ° 0 min 0,000 mm 0,0 UV-I 0 W/m² 10,9 °C 15,7 °C 0,0 km/h (0 Bft)
05.06.2019 03:51 15,7 °C 73 % 1005,1 hPa 0,0 mm 0,2 km/h (0 Bft) N 350 ° 0 min 0,000 mm 0,0 UV-I 0 W/m² 10,9 °C 15,7 °C 1,6 km/h (1 Bft)
05.06.2019 03:52 15,7 °C 73 % 1005,0 hPa 0,0 mm 0,0 km/h (0 Bft) N 350 ° 0 min 0,000 mm 0,0 UV-I 0 W/m² 10,9 °C 15,7 °C 0,0 km/h (0 Bft)
05.06.2019 03:53 15,7 °C 73 % 1005,0 hPa 0,0 mm 0,0 km/h (0 Bft) N 350 ° 0 min 0,000 mm 0,0 UV-I 0 W/m² 10,9 °C 15,7 °C 0,0 km/h (0 Bft)
05.06.2019 03:54 15,7 °C 73 % 1005,0 hPa 0,0 mm 0,0 km/h (0 Bft) N 350 ° 0 min 0,000 mm 0,0 UV-I 0 W/m² 10,9 °C 15,7 °C 0,0 km/h (0 Bft)
05.06.2019 03:55 15,7 °C 73 % 1005,0 hPa 0,0 mm 0,1 km/h (0 Bft) N 349 ° 0 min 0,000 mm 0,0 UV-I 0 W/m² 10,9 °C 15,7 °C 1,6 km/h (1 Bft)
05.06.2019 03:56 15,7 °C 72 % 1005,0 hPa 0,0 mm 0,0 km/h (0 Bft) N 350 ° 0 min 0,000 mm 0,0 UV-I 0 W/m² 10,7 °C 15,7 °C 0,0 km/h (0 Bft)
05.06.2019 03:57 15,7 °C 73 % 1005,0 hPa 0,0 mm 0,8 km/h (0 Bft) O 101 ° 0 min 0,000 mm 0,0 UV-I 0 W/m² 10,9 °C 15,7 °C 3,2 km/h (1 Bft)
05.06.2019 03:58 15,7 °C 74 % 1005,0 hPa 0,0 mm 0,0 km/h (0 Bft) O 101 ° 0 min 0,000 mm 0,0 UV-I 0 W/m² 11,1 °C 15,7 °C 0,0 km/h (0 Bft)
05.06.2019 03:59 15,7 °C 73 % 1005,0 hPa 0,0 mm 0,0 km/h (0 Bft) O 101 ° 0 min 0,000 mm 0,0 UV-I 0 W/m² 10,9 °C 15,7 °C 0,0 km/h (0 Bft)
05.06.2019 04:00 15,7 °C 73 % 1005,0 hPa 0,0 mm 0,0 km/h (0 Bft) O 101 ° 0 min 0,000 mm 0,0 UV-I 0 W/m² 10,9 °C 15,7 °C 0,0 km/h (0 Bft)
05.06.2019 04:01 15,7 °C 73 % 1005,0 hPa 0,0 mm 0,0 km/h (0 Bft) O 101 ° 0 min 0,026 mm 0,0 UV-I 0 W/m² 10,9 °C 15,7 °C 0,0 km/h (0 Bft)
05.06.2019 04:02 15,7 °C 73 % 1005,0 hPa 0,0 mm 0,0 km/h (0 Bft) O 101 ° 0 min 0,000 mm 0,0 UV-I 0 W/m² 10,9 °C 15,7 °C 0,0 km/h (0 Bft)
05.06.2019 04:03 15,7 °C 73 % 1005,0 hPa 0,0 mm 0,0 km/h (0 Bft) O 101 ° 0 min 0,000 mm 0,0 UV-I 0 W/m² 10,9 °C 15,7 °C 0,0 km/h (0 Bft)
05.06.2019 04:04 15,8 °C 73 % 1005,0 hPa 0,0 mm 0,0 km/h (0 Bft) O 101 ° 0 min 0,000 mm 0,0 UV-I 0 W/m² 11,0 °C 15,8 °C 0,0 km/h (0 Bft)
05.06.2019 04:05 15,8 °C 72 % 1005,1 hPa 0,0 mm 0,0 km/h (0 Bft) O 101 ° 0 min 0,000 mm 0,0 UV-I 0 W/m² 10,8 °C 15,8 °C 0,0 km/h (0 Bft)
05.06.2019 04:06 15,8 °C 73 % 1005,1 hPa 0,0 mm 0,0 km/h (0 Bft) O 101 ° 0 min 0,000 mm 0,0 UV-I 0 W/m² 11,0 °C 15,8 °C 0,0 km/h (0 Bft)
05.06.2019 04:07 15,8 °C 72 % 1005,0 hPa 0,0 mm 0,0 km/h (0 Bft) O 101 ° 0 min 0,000 mm 0,0 UV-I 0 W/m² 10,8 °C 15,8 °C 0,0 km/h (0 Bft)
05.06.2019 04:08 15,8 °C 73 % 1005,0 hPa 0,0 mm 0,8 km/h (0 Bft) O 101 ° 0 min 0,000 mm 0,0 UV-I 0 W/m² 11,0 °C 15,8 °C 3,2 km/h (1 Bft)
05.06.2019 04:09 15,7 °C 73 % 1005,0 hPa 0,0 mm 0,1 km/h (0 Bft) O 101 ° 0 min 0,000 mm 0,0 UV-I 0 W/m² 10,9 °C 15,7 °C 1,6 km/h (1 Bft)
05.06.2019 04:10 15,8 °C 72 % 1005,0 hPa 0,0 mm 0,0 km/h (0 Bft) O 101 ° 0 min 0,000 mm 0,0 UV-I 0 W/m² 10,8 °C 15,8 °C 0,0 km/h (0 Bft)
05.06.2019 04:11 15,8 °C 72 % 1005,0 hPa 0,0 mm 0,0 km/h (0 Bft) O 101 ° 0 min 0,000 mm 0,0 UV-I 0 W/m² 10,8 °C 15,8 °C 0,0 km/h (0 Bft)
05.06.2019 04:12 15,8 °C 72 % 1005,1 hPa 0,0 mm 0,0 km/h (0 Bft) O 101 ° 0 min 0,000 mm 0,0 UV-I 0 W/m² 10,8 °C 15,8 °C 0,0 km/h (0 Bft)
05.06.2019 04:13 15,9 °C 72 % 1005,1 hPa 0,0 mm 0,1 km/h (0 Bft) O 101 ° 0 min 0,000 mm 0,0 UV-I 0 W/m² 10,9 °C 15,9 °C 1,6 km/h (1 Bft)
05.06.2019 04:14 15,8 °C 73 % 1005,0 hPa 0,0 mm 0,1 km/h (0 Bft) O 101 ° 0 min 0,000 mm 0,0 UV-I 0 W/m² 11,0 °C 15,8 °C 1,6 km/h (1 Bft)
05.06.2019 04:15 15,8 °C 73 % 1005,0 hPa 0,0 mm 0,1 km/h (0 Bft) O 101 ° 0 min 0,000 mm 0,0 UV-I 0 W/m² 11,0 °C 15,8 °C 1,6 km/h (1 Bft)
05.06.2019 04:16 15,7 °C 73 % 1005,0 hPa 0,0 mm 0,4 km/h (0 Bft) O 101 ° 0 min 0,000 mm 0,0 UV-I 0 W/m² 10,9 °C 15,7 °C 3,2 km/h (1 Bft)
05.06.2019 04:17 15,7 °C 72 % 1005,0 hPa 0,0 mm 0,8 km/h (0 Bft) O 101 ° 0 min 0,000 mm 0,0 UV-I 0 W/m² 10,7 °C 15,7 °C 3,2 km/h (1 Bft)
05.06.2019 04:18 15,7 °C 72 % 1005,0 hPa 0,0 mm 0,0 km/h (0 Bft) O 101 ° 0 min 0,000 mm 0,0 UV-I 0 W/m² 10,7 °C 15,7 °C 0,0 km/h (0 Bft)
05.06.2019 04:19 15,8 °C 71 % 1005,0 hPa 0,0 mm 0,0 km/h (0 Bft) O 101 ° 0 min 0,000 mm 0,0 UV-I 0 W/m² 10,6 °C 15,8 °C 0,0 km/h (0 Bft)
05.06.2019 04:20 15,7 °C 71 % 1005,0 hPa 0,0 mm 0,0 km/h (0 Bft) O 101 ° 0 min 0,000 mm 0,0 UV-I 0 W/m² 10,5 °C 15,7 °C 0,0 km/h (0 Bft)
05.06.2019 04:21 15,6 °C 72 % 1005,0 hPa 0,0 mm 0,0 km/h (0 Bft) O 101 ° 0 min 0,000 mm 0,0 UV-I 0 W/m² 10,6 °C 15,6 °C 0,0 km/h (0 Bft)
05.06.2019 04:22 15,6 °C 72 % 1005,0 hPa 0,0 mm 0,0 km/h (0 Bft) O 101 ° 0 min 0,000 mm 0,0 UV-I 0 W/m² 10,6 °C 15,6 °C 0,0 km/h (0 Bft)
05.06.2019 04:23 15,4 °C 72 % 1005,0 hPa 0,0 mm 0,0 km/h (0 Bft) O 101 ° 0 min 0,000 mm 0,0 UV-I 0 W/m² 10,4 °C 15,4 °C 0,0 km/h (0 Bft)
05.06.2019 04:24 15,3 °C 72 % 1005,0 hPa 0,0 mm 0,0 km/h (0 Bft) O 101 ° 0 min 0,000 mm 0,0 UV-I 0 W/m² 10,3 °C 15,3 °C 0,0 km/h (0 Bft)
05.06.2019 04:25 15,3 °C 73 % 1005,1 hPa 0,0 mm 0,0 km/h (0 Bft) O 101 ° 0 min 0,000 mm 0,0 UV-I 0 W/m² 10,5 °C 15,3 °C 0,0 km/h (0 Bft)
05.06.2019 04:26 15,3 °C 73 % 1005,0 hPa 0,0 mm 0,0 km/h (0 Bft) O 101 ° 0 min 0,000 mm 0,0 UV-I 0 W/m² 10,5 °C 15,3 °C 0,0 km/h (0 Bft)
05.06.2019 04:27 15,2 °C 73 % 1005,0 hPa 0,0 mm 0,0 km/h (0 Bft) O 101 ° 0 min 0,000 mm 0,0 UV-I 0 W/m² 10,4 °C 15,2 °C 0,0 km/h (0 Bft)
05.06.2019 04:28 15,2 °C 73 % 1005,0 hPa 0,0 mm 0,0 km/h (0 Bft) O 101 ° 0 min 0,000 mm 0,0 UV-I 0 W/m² 10,4 °C 15,2 °C 0,0 km/h (0 Bft)
05.06.2019 04:29 15,1 °C 73 % 1005,0 hPa 0,0 mm 0,0 km/h (0 Bft) O 101 ° 0 min 0,000 mm 0,0 UV-I 0 W/m² 10,3 °C 15,1 °C 0,0 km/h (0 Bft)
05.06.2019 04:30 15,2 °C 73 % 1005,0 hPa 0,0 mm 0,0 km/h (0 Bft) O 101 ° 0 min 0,000 mm 0,0 UV-I 0 W/m² 10,4 °C 15,2 °C 0,0 km/h (0 Bft)
05.06.2019 04:31 15,2 °C 73 % 1005,1 hPa 0,0 mm 0,0 km/h (0 Bft) O 101 ° 0 min 0,000 mm 0,0 UV-I 0 W/m² 10,4 °C 15,2 °C 0,0 km/h (0 Bft)
05.06.2019 04:32 15,2 °C 73 % 1005,0 hPa 0,0 mm 0,0 km/h (0 Bft) O 101 ° 0 min 0,000 mm 0,0 UV-I 0 W/m² 10,4 °C 15,2 °C 0,0 km/h (0 Bft)
05.06.2019 04:33 15,1 °C 73 % 1005,1 hPa 0,0 mm 0,0 km/h (0 Bft) O 101 ° 0 min 0,000 mm 0,0 UV-I 0 W/m² 10,3 °C 15,1 °C 0,0 km/h (0 Bft)
05.06.2019 04:34 15,1 °C 73 % 1005,0 hPa 0,0 mm 0,0 km/h (0 Bft) O 101 ° 0 min 0,000 mm 0,0 UV-I 0 W/m² 10,3 °C 15,1 °C 0,0 km/h (0 Bft)
05.06.2019 04:35 15,1 °C 73 % 1005,0 hPa 0,0 mm 0,0 km/h (0 Bft) O 101 ° 0 min 0,000 mm 0,0 UV-I 0 W/m² 10,3 °C 15,1 °C 0,0 km/h (0 Bft)
05.06.2019 04:36 14,9 °C 74 % 1005,0 hPa 0,0 mm 0,2 km/h (0 Bft) O 101 ° 0 min 0,000 mm 0,0 UV-I 0 W/m² 10,3 °C 14,9 °C 1,6 km/h (1 Bft)
05.06.2019 04:37 14,9 °C 74 % 1005,0 hPa 0,0 mm 0,0 km/h (0 Bft) O 101 ° 0 min 0,000 mm 0,0 UV-I 0 W/m² 10,3 °C 14,9 °C 0,0 km/h (0 Bft)
05.06.2019 04:38 14,9 °C 74 % 1004,9 hPa 0,0 mm 0,0 km/h (0 Bft) O 101 ° 0 min 0,000 mm 0,0 UV-I 0 W/m² 10,3 °C 14,9 °C 0,0 km/h (0 Bft)
05.06.2019 04:39 14,8 °C 74 % 1004,9 hPa 0,0 mm 0,0 km/h (0 Bft) O 101 ° 0 min 0,000 mm 0,0 UV-I 0 W/m² 10,2 °C 14,8 °C 0,0 km/h (0 Bft)
05.06.2019 04:40 14,8 °C 74 % 1004,9 hPa 0,0 mm 0,0 km/h (0 Bft) O 101 ° 0 min 0,000 mm 0,0 UV-I 0 W/m² 10,2 °C 14,8 °C 0,0 km/h (0 Bft)
05.06.2019 04:41 14,7 °C 75 % 1004,9 hPa 0,0 mm 0,0 km/h (0 Bft) O 101 ° 0 min 0,000 mm 0,0 UV-I 0 W/m² 10,3 °C 14,7 °C 0,0 km/h (0 Bft)
05.06.2019 04:42 14,7 °C 75 % 1004,9 hPa 0,0 mm 0,0 km/h (0 Bft) O 101 ° 0 min 0,000 mm 0,0 UV-I 0 W/m² 10,3 °C 14,7 °C 0,0 km/h (0 Bft)
05.06.2019 04:43 14,7 °C 75 % 1004,9 hPa 0,0 mm 0,0 km/h (0 Bft) O 101 ° 0 min 0,000 mm 0,0 UV-I 0 W/m² 10,3 °C 14,7 °C 0,0 km/h (0 Bft)
05.06.2019 04:44 14,7 °C 75 % 1004,9 hPa 0,0 mm 0,0 km/h (0 Bft) O 101 ° 0 min 0,000 mm 0,0 UV-I 0 W/m² 10,3 °C 14,7 °C 0,0 km/h (0 Bft)
05.06.2019 04:45 14,6 °C 75 % 1004,9 hPa 0,0 mm 0,0 km/h (0 Bft) O 101 ° 0 min 0,000 mm 0,0 UV-I 0 W/m² 10,2 °C 14,6 °C 0,0 km/h (0 Bft)
05.06.2019 04:46 14,6 °C 75 % 1004,9 hPa 0,0 mm 0,0 km/h (0 Bft) O 101 ° 0 min 0,000 mm 0,0 UV-I 0 W/m² 10,2 °C 14,6 °C 0,0 km/h (0 Bft)
05.06.2019 04:47 14,5 °C 75 % 1004,9 hPa 0,0 mm 0,0 km/h (0 Bft) O 101 ° 0 min 0,000 mm 0,0 UV-I 0 W/m² 10,1 °C 14,5 °C 0,0 km/h (0 Bft)
05.06.2019 04:48 14,4 °C 75 % 1004,9 hPa 0,0 mm 0,0 km/h (0 Bft) O 101 ° 0 min 0,000 mm 0,0 UV-I 0 W/m² 10,0 °C 14,4 °C 0,0 km/h (0 Bft)
05.06.2019 04:49 14,4 °C 76 % 1004,9 hPa 0,0 mm 0,0 km/h (0 Bft) O 101 ° 0 min 0,000 mm 0,0 UV-I 0 W/m² 10,2 °C 14,4 °C 0,0 km/h (0 Bft)
05.06.2019 04:50 14,4 °C 76 % 1004,9 hPa 0,0 mm 0,0 km/h (0 Bft) O 101 ° 0 min 0,000 mm 0,0 UV-I 0 W/m² 10,2 °C 14,4 °C 0,0 km/h (0 Bft)
05.06.2019 04:51 14,4 °C 76 % 1004,9 hPa 0,0 mm 0,0 km/h (0 Bft) O 101 ° 0 min 0,000 mm 0,0 UV-I 0 W/m² 10,2 °C 14,4 °C 0,0 km/h (0 Bft)
05.06.2019 04:52 14,4 °C 76 % 1004,9 hPa 0,0 mm 0,0 km/h (0 Bft) O 101 ° 0 min 0,000 mm 0,0 UV-I 0 W/m² 10,2 °C 14,4 °C 0,0 km/h (0 Bft)
05.06.2019 04:53 14,4 °C 75 % 1004,9 hPa 0,0 mm 0,0 km/h (0 Bft) O 101 ° 0 min 0,000 mm 0,0 UV-I 0 W/m² 10,0 °C 14,4 °C 0,0 km/h (0 Bft)
05.06.2019 04:54 14,5 °C 75 % 1004,9 hPa 0,0 mm 0,0 km/h (0 Bft) O 101 ° 0 min 0,000 mm 0,0 UV-I 0 W/m² 10,1 °C 14,5 °C 0,0 km/h (0 Bft)
05.06.2019 04:55 14,6 °C 74 % 1004,9 hPa 0,0 mm 0,0 km/h (0 Bft) O 101 ° 0 min 0,000 mm 0,0 UV-I 0 W/m² 10,0 °C 14,6 °C 0,0 km/h (0 Bft)
05.06.2019 04:56 14,6 °C 75 % 1004,9 hPa 0,0 mm 0,0 km/h (0 Bft) O 101 ° 0 min 0,000 mm 0,0 UV-I 0 W/m² 10,2 °C 14,6 °C 0,0 km/h (0 Bft)
05.06.2019 04:57 14,7 °C 75 % 1004,9 hPa 0,0 mm 0,0 km/h (0 Bft) O 101 ° 0 min 0,000 mm 0,0 UV-I 0 W/m² 10,3 °C 14,7 °C 0,0 km/h (0 Bft)
05.06.2019 04:58 14,8 °C 75 % 1004,9 hPa 0,0 mm 0,0 km/h (0 Bft) O 101 ° 0 min 0,000 mm 0,0 UV-I 0 W/m² 10,4 °C 14,8 °C 0,0 km/h (0 Bft)
05.06.2019 04:59 14,8 °C 74 % 1004,9 hPa 0,0 mm 0,0 km/h (0 Bft) O 101 ° 0 min 0,000 mm 0,0 UV-I 0 W/m² 10,2 °C 14,8 °C 0,0 km/h (0 Bft)
05.06.2019 05:00 14,8 °C 74 % 1004,9 hPa 0,0 mm 0,0 km/h (0 Bft) O 101 ° 0 min 0,000 mm 0,0 UV-I 0 W/m² 10,2 °C 14,8 °C 0,0 km/h (0 Bft)
05.06.2019 05:01 14,9 °C 73 % 1004,9 hPa 0,0 mm 0,0 km/h (0 Bft) O 101 ° 0 min 0,000 mm 0,0 UV-I 0 W/m² 10,1 °C 14,9 °C 0,0 km/h (0 Bft)
05.06.2019 05:02 14,9 °C 74 % 1004,9 hPa 0,0 mm 0,0 km/h (0 Bft) O 101 ° 0 min 0,000 mm 0,0 UV-I 0 W/m² 10,3 °C 14,9 °C 0,0 km/h (0 Bft)
05.06.2019 05:03 14,9 °C 75 % 1004,9 hPa 0,0 mm 0,0 km/h (0 Bft) O 101 ° 0 min 0,000 mm 0,0 UV-I 0 W/m² 10,5 °C 14,9 °C 0,0 km/h (0 Bft)
05.06.2019 05:04 14,9 °C 73 % 1004,9 hPa 0,0 mm 0,0 km/h (0 Bft) O 101 ° 0 min 0,000 mm 0,0 UV-I 0 W/m² 10,1 °C 14,9 °C 0,0 km/h (0 Bft)
05.06.2019 05:05 15,0 °C 73 % 1004,9 hPa 0,0 mm 0,0 km/h (0 Bft) O 101 ° 0 min 0,000 mm 0,0 UV-I 0 W/m² 10,2 °C 15,0 °C 0,0 km/h (0 Bft)
05.06.2019 05:06 15,1 °C 72 % 1004,9 hPa 0,0 mm 0,0 km/h (0 Bft) O 101 ° 0 min 0,000 mm 0,0 UV-I 0 W/m² 10,1 °C 15,1 °C 0,0 km/h (0 Bft)
05.06.2019 05:07 15,2 °C 72 % 1004,9 hPa 0,0 mm 0,0 km/h (0 Bft) O 101 ° 0 min 0,000 mm 0,0 UV-I 0 W/m² 10,2 °C 15,2 °C 0,0 km/h (0 Bft)
05.06.2019 05:08 15,2 °C 72 % 1004,9 hPa 0,0 mm 0,0 km/h (0 Bft) O-NO 57 ° 0 min 0,000 mm 0,0 UV-I 0 W/m² 10,2 °C 15,2 °C 0,0 km/h (0 Bft)
05.06.2019 05:09 15,2 °C 72 % 1004,9 hPa 0,0 mm 0,0 km/h (0 Bft) O-NO 57 ° 0 min 0,000 mm 0,0 UV-I 0 W/m² 10,2 °C 15,2 °C 0,0 km/h (0 Bft)
05.06.2019 05:10 15,1 °C 72 % 1004,9 hPa 0,0 mm 0,0 km/h (0 Bft) O-NO 57 ° 0 min 0,000 mm 0,0 UV-I 0 W/m² 10,1 °C 15,1 °C 0,0 km/h (0 Bft)
05.06.2019 05:11 15,0 °C 72 % 1004,9 hPa 0,0 mm 0,0 km/h (0 Bft) O-NO 57 ° 0 min 0,000 mm 0,0 UV-I 0 W/m² 10,0 °C 15,0 °C 0,0 km/h (0 Bft)
05.06.2019 05:12 14,9 °C 73 % 1004,9 hPa 0,0 mm 0,0 km/h (0 Bft) O-NO 57 ° 0 min 0,000 mm 0,0 UV-I 0 W/m² 10,1 °C 14,9 °C 0,0 km/h (0 Bft)
05.06.2019 05:13 14,9 °C 73 % 1004,9 hPa 0,0 mm 0,0 km/h (0 Bft) O-NO 57 ° 0 min 0,000 mm 0,0 UV-I 0 W/m² 10,1 °C 14,9 °C 0,0 km/h (0 Bft)
05.06.2019 05:14 14,8 °C 73 % 1004,9 hPa 0,0 mm 0,0 km/h (0 Bft) O-NO 57 ° 0 min 0,000 mm 0,0 UV-I 0 W/m² 10,0 °C 14,8 °C 0,0 km/h (0 Bft)
05.06.2019 05:15 14,8 °C 73 % 1005,0 hPa 0,0 mm 0,0 km/h (0 Bft) O-NO 57 ° 0 min 0,000 mm 0,0 UV-I 0 W/m² 10,0 °C 14,8 °C 0,0 km/h (0 Bft)
05.06.2019 05:16 14,8 °C 73 % 1004,9 hPa 0,0 mm 0,0 km/h (0 Bft) O-NO 57 ° 0 min 0,000 mm 0,0 UV-I 0 W/m² 10,0 °C 14,8 °C 0,0 km/h (0 Bft)
05.06.2019 05:17 14,7 °C 73 % 1005,0 hPa 0,0 mm 0,0 km/h (0 Bft) O-NO 57 ° 0 min 0,000 mm 0,0 UV-I 0 W/m² 9,9 °C 14,7 °C 0,0 km/h (0 Bft)
05.06.2019 05:18 14,7 °C 73 % 1005,0 hPa 0,0 mm 0,0 km/h (0 Bft) O-NO 57 ° 0 min 0,000 mm 0,0 UV-I 0 W/m² 9,9 °C 14,7 °C 0,0 km/h (0 Bft)
05.06.2019 05:19 14,7 °C 74 % 1005,0 hPa 0,0 mm 0,0 km/h (0 Bft) NO 39 ° 0 min 0,000 mm 0,0 UV-I 0 W/m² 10,1 °C 14,7 °C 0,0 km/h (0 Bft)
05.06.2019 05:20 14,7 °C 74 % 1005,0 hPa 0,0 mm 0,0 km/h (0 Bft) NO 39 ° 0 min 0,000 mm 0,0 UV-I 0 W/m² 10,1 °C 14,7 °C 0,0 km/h (0 Bft)
05.06.2019 05:21 14,6 °C 74 % 1005,0 hPa 0,0 mm 0,0 km/h (0 Bft) NO 39 ° 0 min 0,000 mm 0,0 UV-I 0 W/m² 10,0 °C 14,6 °C 0,0 km/h (0 Bft)
05.06.2019 05:22 14,5 °C 74 % 1005,0 hPa 0,0 mm 0,0 km/h (0 Bft) NO 39 ° 0 min 0,000 mm 0,0 UV-I 0 W/m² 9,9 °C 14,5 °C 0,0 km/h (0 Bft)
05.06.2019 05:23 14,4 °C 74 % 1005,1 hPa 0,0 mm 0,0 km/h (0 Bft) NO 39 ° 0 min 0,000 mm 0,0 UV-I 5 W/m² 9,8 °C 14,4 °C 0,0 km/h (0 Bft)
05.06.2019 05:24 14,4 °C 74 % 1005,1 hPa 0,0 mm 0,0 km/h (0 Bft) NO 39 ° 0 min 0,000 mm 0,0 UV-I 5 W/m² 9,8 °C 14,4 °C 0,0 km/h (0 Bft)
05.06.2019 05:25 14,4 °C 74 % 1005,1 hPa 0,0 mm 0,0 km/h (0 Bft) NO 41 ° 0 min 0,000 mm 0,0 UV-I 5 W/m² 9,8 °C 14,4 °C 0,0 km/h (0 Bft)
05.06.2019 05:26 14,4 °C 74 % 1005,1 hPa 0,0 mm 0,0 km/h (0 Bft) NO 41 ° 0 min 0,000 mm 0,0 UV-I 5 W/m² 9,8 °C 14,4 °C 0,0 km/h (0 Bft)
05.06.2019 05:27 14,4 °C 74 % 1005,1 hPa 0,0 mm 0,0 km/h (0 Bft) NO 41 ° 0 min 0,000 mm 0,0 UV-I 5 W/m² 9,8 °C 14,4 °C 0,0 km/h (0 Bft)
05.06.2019 05:28 14,4 °C 74 % 1005,1 hPa 0,0 mm 0,0 km/h (0 Bft) NO 41 ° 0 min 0,000 mm 0,0 UV-I 7 W/m² 9,8 °C 14,4 °C 0,0 km/h (0 Bft)
05.06.2019 05:29 14,4 °C 74 % 1005,1 hPa 0,0 mm 0,0 km/h (0 Bft) NO 41 ° 0 min 0,000 mm 0,0 UV-I 7 W/m² 9,8 °C 14,4 °C 0,0 km/h (0 Bft)
05.06.2019 05:30 14,4 °C 74 % 1005,1 hPa 0,0 mm 0,0 km/h (0 Bft) NO 41 ° 0 min 0,000 mm 0,0 UV-I 7 W/m² 9,8 °C 14,4 °C 0,0 km/h (0 Bft)
05.06.2019 05:31 14,4 °C 74 % 1005,1 hPa 0,0 mm 0,0 km/h (0 Bft) NO 41 ° 0 min 0,000 mm 0,0 UV-I 7 W/m² 9,8 °C 14,4 °C 0,0 km/h (0 Bft)
05.06.2019 05:32 14,3 °C 75 % 1005,1 hPa 0,0 mm 0,0 km/h (0 Bft) NO 41 ° 0 min 0,000 mm 0,0 UV-I 9 W/m² 9,9 °C 14,3 °C 0,0 km/h (0 Bft)
05.06.2019 05:33 14,4 °C 75 % 1005,1 hPa 0,0 mm 0,0 km/h (0 Bft) NO 41 ° 0 min 0,000 mm 0,0 UV-I 9 W/m² 10,0 °C 14,4 °C 0,0 km/h (0 Bft)
05.06.2019 05:34 14,3 °C 76 % 1005,1 hPa 0,0 mm 0,0 km/h (0 Bft) NO 41 ° 0 min 0,000 mm 0,0 UV-I 9 W/m² 10,1 °C 14,3 °C 0,0 km/h (0 Bft)
05.06.2019 05:35 14,3 °C 76 % 1005,2 hPa 0,0 mm 0,0 km/h (0 Bft) NO 41 ° 0 min 0,000 mm 0,0 UV-I 11 W/m² 10,1 °C 14,3 °C 0,0 km/h (0 Bft)
05.06.2019 05:36 14,2 °C 76 % 1005,2 hPa 0,0 mm 0,0 km/h (0 Bft) NO 41 ° 0 min 0,000 mm 0,0 UV-I 11 W/m² 10,0 °C 14,2 °C 0,0 km/h (0 Bft)
05.06.2019 05:37 14,2 °C 77 % 1005,2 hPa 0,0 mm 0,0 km/h (0 Bft) NO 41 ° 0 min 0,000 mm 0,0 UV-I 12 W/m² 10,2 °C 14,2 °C 0,0 km/h (0 Bft)
05.06.2019 05:38 14,2 °C 76 % 1005,2 hPa 0,0 mm 0,0 km/h (0 Bft) NO 41 ° 0 min 0,000 mm 0,0 UV-I 12 W/m² 10,0 °C 14,2 °C 0,0 km/h (0 Bft)
05.06.2019 05:39 14,2 °C 76 % 1005,2 hPa 0,0 mm 0,0 km/h (0 Bft) NO 41 ° 0 min 0,000 mm 0,0 UV-I 12 W/m² 10,0 °C 14,2 °C 0,0 km/h (0 Bft)
05.06.2019 05:40 14,2 °C 77 % 1005,2 hPa 0,0 mm 0,0 km/h (0 Bft) NO 41 ° 0 min 0,000 mm 0,0 UV-I 14 W/m² 10,2 °C 14,2 °C 0,0 km/h (0 Bft)
05.06.2019 05:41 14,2 °C 77 % 1005,2 hPa 0,0 mm 0,0 km/h (0 Bft) NO 41 ° 0 min 0,000 mm 0,0 UV-I 14 W/m² 10,2 °C 14,2 °C 0,0 km/h (0 Bft)
05.06.2019 05:42 14,2 °C 77 % 1005,2 hPa 0,0 mm 0,0 km/h (0 Bft) NO 41 ° 0 min 0,000 mm 0,0 UV-I 16 W/m² 10,2 °C 14,2 °C 0,0 km/h (0 Bft)
05.06.2019 05:43 14,2 °C 77 % 1005,2 hPa 0,0 mm 0,0 km/h (0 Bft) NO 41 ° 0 min 0,000 mm 0,0 UV-I 16 W/m² 10,2 °C 14,2 °C 0,0 km/h (0 Bft)
05.06.2019 05:44 14,2 °C 78 % 1005,3 hPa 0,0 mm 0,0 km/h (0 Bft) NO 41 ° 0 min 0,000 mm 0,0 UV-I 16 W/m² 10,4 °C 14,2 °C 0,0 km/h (0 Bft)
05.06.2019 05:45 14,1 °C 78 % 1005,2 hPa 0,0 mm 0,0 km/h (0 Bft) NO 41 ° 0 min 0,000 mm 0,0 UV-I 16 W/m² 10,3 °C 14,1 °C 0,0 km/h (0 Bft)
05.06.2019 05:46 13,9 °C 79 % 1005,2 hPa 0,0 mm 0,0 km/h (0 Bft) NO 41 ° 0 min 0,000 mm 0,0 UV-I 18 W/m² 10,3 °C 13,9 °C 0,0 km/h (0 Bft)
05.06.2019 05:47 13,8 °C 79 % 1005,2 hPa 0,0 mm 0,0 km/h (0 Bft) NO 41 ° 0 min 0,000 mm 0,0 UV-I 19 W/m² 10,2 °C 13,8 °C 0,0 km/h (0 Bft)
05.06.2019 05:48 13,8 °C 80 % 1005,2 hPa 0,0 mm 0,0 km/h (0 Bft) NO 41 ° 0 min 0,000 mm 0,0 UV-I 19 W/m² 10,4 °C 13,8 °C 0,0 km/h (0 Bft)
05.06.2019 05:49 13,8 °C 80 % 1005,2 hPa 0,0 mm 0,0 km/h (0 Bft) NO 41 ° 0 min 0,000 mm 0,0 UV-I 19 W/m² 10,4 °C 13,8 °C 0,0 km/h (0 Bft)
05.06.2019 05:50 13,8 °C 81 % 1005,2 hPa 0,0 mm 0,0 km/h (0 Bft) NO 41 ° 0 min 0,000 mm 0,0 UV-I 21 W/m² 10,6 °C 13,8 °C 0,0 km/h (0 Bft)
05.06.2019 05:51 13,7 °C 81 % 1005,2 hPa 0,0 mm 0,0 km/h (0 Bft) NO 41 ° 0 min 0,000 mm 0,0 UV-I 21 W/m² 10,5 °C 13,7 °C 0,0 km/h (0 Bft)
05.06.2019 05:52 13,7 °C 81 % 1005,2 hPa 0,0 mm 0,0 km/h (0 Bft) NO 41 ° 0 min 0,000 mm 0,0 UV-I 21 W/m² 10,5 °C 13,7 °C 0,0 km/h (0 Bft)
05.06.2019 05:53 13,6 °C 81 % 1005,2 hPa 0,0 mm 0,0 km/h (0 Bft) NO 41 ° 0 min 0,000 mm 0,0 UV-I 23 W/m² 10,4 °C 13,6 °C 0,0 km/h (0 Bft)
05.06.2019 05:54 13,6 °C 82 % 1005,2 hPa 0,0 mm 0,0 km/h (0 Bft) NO 41 ° 0 min 0,000 mm 0,0 UV-I 23 W/m² 10,6 °C 13,6 °C 0,0 km/h (0 Bft)
05.06.2019 05:55 13,5 °C 82 % 1005,2 hPa 0,0 mm 0,0 km/h (0 Bft) NO 41 ° 0 min 0,000 mm 0,0 UV-I 25 W/m² 10,5 °C 13,5 °C 0,0 km/h (0 Bft)
05.06.2019 05:56 13,6 °C 82 % 1005,2 hPa 0,0 mm 0,0 km/h (0 Bft) NO 41 ° 0 min 0,000 mm 0,0 UV-I 25 W/m² 10,6 °C 13,6 °C 0,0 km/h (0 Bft)
05.06.2019 05:57 13,5 °C 82 % 1005,2 hPa 0,0 mm 0,0 km/h (0 Bft) NO 41 ° 0 min 0,000 mm 0,0 UV-I 26 W/m² 10,5 °C 13,5 °C 0,0 km/h (0 Bft)
05.06.2019 05:58 13,4 °C 82 % 1005,2 hPa 0,0 mm 0,0 km/h (0 Bft) NO 41 ° 0 min 0,000 mm 0,0 UV-I 26 W/m² 10,4 °C 13,4 °C 0,0 km/h (0 Bft)
05.06.2019 05:59 13,3 °C 82 % 1005,2 hPa 0,0 mm 0,0 km/h (0 Bft) NO 41 ° 0 min 0,000 mm 0,0 UV-I 28 W/m² 10,3 °C 13,3 °C 0,0 km/h (0 Bft)
05.06.2019 06:00 13,3 °C 83 % 1005,3 hPa 0,0 mm 0,0 km/h (0 Bft) NO 41 ° 0 min 0,000 mm 0,0 UV-I 30 W/m² 10,5 °C 13,3 °C 0,0 km/h (0 Bft)
05.06.2019 06:01 13,3 °C 83 % 1005,3 hPa 0,0 mm 0,0 km/h (0 Bft) NO 41 ° 0 min 0,000 mm 0,0 UV-I 30 W/m² 10,5 °C 13,3 °C 0,0 km/h (0 Bft)
05.06.2019 06:02 13,3 °C 82 % 1005,3 hPa 0,0 mm 0,0 km/h (0 Bft) NO 41 ° 0 min 0,000 mm 0,0 UV-I 32 W/m² 10,3 °C 13,3 °C 0,0 km/h (0 Bft)
05.06.2019 06:03 13,4 °C 81 % 1005,4 hPa 0,0 mm 0,0 km/h (0 Bft) NO 41 ° 0 min 0,000 mm 0,0 UV-I 32 W/m² 10,2 °C 13,4 °C 0,0 km/h (0 Bft)
05.06.2019 06:04 13,5 °C 80 % 1005,4 hPa 0,0 mm 0,0 km/h (0 Bft) NO 41 ° 0 min 0,000 mm 0,0 UV-I 33 W/m² 10,1 °C 13,5 °C 0,0 km/h (0 Bft)
05.06.2019 06:05 13,6 °C 80 % 1005,4 hPa 0,0 mm 0,0 km/h (0 Bft) NO 41 ° 0 min 0,000 mm 0,0 UV-I 35 W/m² 10,2 °C 13,6 °C 0,0 km/h (0 Bft)
05.06.2019 06:06 13,8 °C 80 % 1005,5 hPa 0,0 mm 0,0 km/h (0 Bft) NO 41 ° 0 min 0,000 mm 0,0 UV-I 35 W/m² 10,4 °C 13,8 °C 0,0 km/h (0 Bft)
05.06.2019 06:07 13,9 °C 79 % 1005,5 hPa 0,0 mm 0,0 km/h (0 Bft) NO 41 ° 0 min 0,000 mm 0,0 UV-I 37 W/m² 10,3 °C 13,9 °C 0,0 km/h (0 Bft)
05.06.2019 06:08 13,8 °C 79 % 1005,5 hPa 0,0 mm 0,0 km/h (0 Bft) NO 41 ° 0 min 0,000 mm 0,0 UV-I 37 W/m² 10,2 °C 13,8 °C 0,0 km/h (0 Bft)
05.06.2019 06:09 13,8 °C 79 % 1005,6 hPa 0,0 mm 0,0 km/h (0 Bft) NO 41 ° 0 min 0,000 mm 0,0 UV-I 39 W/m² 10,2 °C 13,8 °C 0,0 km/h (0 Bft)
05.06.2019 06:10 13,8 °C 79 % 1005,6 hPa 0,0 mm 0,0 km/h (0 Bft) NO 41 ° 0 min 0,000 mm 0,0 UV-I 40 W/m² 10,2 °C 13,8 °C 0,0 km/h (0 Bft)
05.06.2019 06:11 13,9 °C 79 % 1005,6 hPa 0,0 mm 0,0 km/h (0 Bft) NO 41 ° 0 min 0,000 mm 0,0 UV-I 42 W/m² 10,3 °C 13,9 °C 0,0 km/h (0 Bft)
05.06.2019 06:12 13,9 °C 79 % 1005,7 hPa 0,0 mm 0,0 km/h (0 Bft) NO 41 ° 0 min 0,000 mm 0,0 UV-I 44 W/m² 10,3 °C 13,9 °C 0,0 km/h (0 Bft)
05.06.2019 06:13 13,9 °C 80 % 1005,7 hPa 0,0 mm 0,0 km/h (0 Bft) NO 41 ° 0 min 0,000 mm 0,0 UV-I 46 W/m² 10,5 °C 13,9 °C 0,0 km/h (0 Bft)
05.06.2019 06:14 13,9 °C 80 % 1005,8 hPa 0,0 mm 0,0 km/h (0 Bft) NO 41 ° 0 min 0,000 mm 0,0 UV-I 47 W/m² 10,5 °C 13,9 °C 0,0 km/h (0 Bft)
05.06.2019 06:15 13,9 °C 80 % 1005,8 hPa 0,0 mm 0,0 km/h (0 Bft) NO 41 ° 0 min 0,000 mm 0,0 UV-I 49 W/m² 10,5 °C 13,9 °C 0,0 km/h (0 Bft)
05.06.2019 06:16 13,9 °C 79 % 1005,8 hPa 0,0 mm 0,0 km/h (0 Bft) S-SO 147 ° 0 min 0,000 mm 0,0 UV-I 51 W/m² 10,3 °C 13,9 °C 0,0 km/h (0 Bft)
05.06.2019 06:17 13,9 °C 78 % 1005,8 hPa 0,0 mm 0,9 km/h (0 Bft) S-SO 148 ° 0 min 0,000 mm 0,0 UV-I 53 W/m² 10,1 °C 13,9 °C 3,2 km/h (1 Bft)
05.06.2019 06:18 14,1 °C 76 % 1005,8 hPa 0,0 mm 3,2 km/h (1 Bft) S 190 ° 0 min 0,000 mm 0,0 UV-I 54 W/m² 9,9 °C 14,1 °C 6,4 km/h (2 Bft)
05.06.2019 06:19 14,3 °C 76 % 1005,8 hPa 0,0 mm 1,1 km/h (1 Bft) S-SW 192 ° 0 min 0,000 mm 0,0 UV-I 56 W/m² 10,1 °C 14,3 °C 3,2 km/h (1 Bft)
05.06.2019 06:20 14,4 °C 75 % 1005,8 hPa 0,0 mm 0,6 km/h (0 Bft) S-SW 193 ° 0 min 0,000 mm 0,0 UV-I 58 W/m² 10,0 °C 14,4 °C 1,6 km/h (1 Bft)
05.06.2019 06:21 14,6 °C 75 % 1005,8 hPa 0,0 mm 0,0 km/h (0 Bft) S-SW 192 ° 0 min 0,000 mm 0,0 UV-I 60 W/m² 10,2 °C 14,6 °C 0,0 km/h (0 Bft)
05.06.2019 06:22 14,7 °C 75 % 1005,9 hPa 0,0 mm 0,0 km/h (0 Bft) S-SW 192 ° 0 min 0,000 mm 0,0 UV-I 62 W/m² 10,3 °C 14,7 °C 0,0 km/h (0 Bft)
05.06.2019 06:23 14,7 °C 76 % 1005,9 hPa 0,0 mm 0,0 km/h (0 Bft) S-SW 192 ° 0 min 0,000 mm 0,0 UV-I 63 W/m² 10,5 °C 14,7 °C 0,0 km/h (0 Bft)
05.06.2019 06:24 14,8 °C 75 % 1005,9 hPa 0,0 mm 1,3 km/h (1 Bft) S-SW 192 ° 0 min 0,000 mm 0,0 UV-I 65 W/m² 10,4 °C 14,8 °C 3,2 km/h (1 Bft)
05.06.2019 06:25 15,0 °C 73 % 1005,9 hPa 0,0 mm 2,3 km/h (1 Bft) S 190 ° 0 min 0,000 mm 0,0 UV-I 67 W/m² 10,2 °C 15,0 °C 3,2 km/h (1 Bft)
05.06.2019 06:26 15,1 °C 72 % 1005,9 hPa 0,0 mm 2,5 km/h (1 Bft) S 190 ° 0 min 0,000 mm 0,0 UV-I 67 W/m² 10,1 °C 15,1 °C 4,8 km/h (1 Bft)
05.06.2019 06:27 15,2 °C 73 % 1005,9 hPa 0,0 mm 4,4 km/h (1 Bft) S-SO 152 ° 0 min 0,000 mm 0,0 UV-I 69 W/m² 10,4 °C 15,2 °C 6,4 km/h (2 Bft)
05.06.2019 06:28 15,2 °C 73 % 1005,8 hPa 0,0 mm 4,4 km/h (1 Bft) S-SO 150 ° 0 min 0,000 mm 0,0 UV-I 72 W/m² 10,4 °C 15,2 °C 6,4 km/h (2 Bft)
05.06.2019 06:29 15,2 °C 72 % 1005,8 hPa 0,0 mm 2,8 km/h (1 Bft) S-SO 150 ° 0 min 0,000 mm 0,0 UV-I 74 W/m² 10,2 °C 15,2 °C 4,8 km/h (1 Bft)
05.06.2019 06:30 15,2 °C 72 % 1005,8 hPa 0,0 mm 2,2 km/h (1 Bft) S-SO 150 ° 0 min 0,000 mm 0,0 UV-I 76 W/m² 10,2 °C 15,2 °C 4,8 km/h (1 Bft)
05.06.2019 06:31 15,3 °C 72 % 1005,9 hPa 0,0 mm 2,4 km/h (1 Bft) S-SO 150 ° 0 min 0,000 mm 0,0 UV-I 77 W/m² 10,3 °C 15,3 °C 4,8 km/h (1 Bft)
05.06.2019 06:32 15,4 °C 73 % 1005,9 hPa 0,0 mm 2,4 km/h (1 Bft) S-SO 150 ° 0 min 0,000 mm 0,0 UV-I 79 W/m² 10,6 °C 15,4 °C 4,8 km/h (1 Bft)
05.06.2019 06:33 15,4 °C 74 % 1005,9 hPa 0,0 mm 2,8 km/h (1 Bft) S-SO 150 ° 0 min 0,000 mm 0,0 UV-I 81 W/m² 10,8 °C 15,4 °C 3,2 km/h (1 Bft)
05.06.2019 06:34 15,4 °C 73 % 1005,9 hPa 0,0 mm 0,6 km/h (0 Bft) S-SO 150 ° 0 min 0,000 mm 0,0 UV-I 83 W/m² 10,6 °C 15,4 °C 1,6 km/h (1 Bft)
05.06.2019 06:35 15,4 °C 73 % 1005,9 hPa 0,0 mm 0,0 km/h (0 Bft) S-SO 150 ° 0 min 0,000 mm 0,0 UV-I 86 W/m² 10,6 °C 15,4 °C 0,0 km/h (0 Bft)
05.06.2019 06:36 15,3 °C 75 % 1005,9 hPa 0,0 mm 0,0 km/h (0 Bft) S-SO 150 ° 0 min 0,000 mm 0,0 UV-I 88 W/m² 10,9 °C 15,3 °C 0,0 km/h (0 Bft)
05.06.2019 06:37 15,2 °C 76 % 1006,0 hPa 0,0 mm 0,0 km/h (0 Bft) S-SO 150 ° 0 min 0,000 mm 0,0 UV-I 90 W/m² 11,0 °C 15,2 °C 0,0 km/h (0 Bft)
05.06.2019 06:38 15,0 °C 77 % 1006,0 hPa 0,0 mm 0,4 km/h (0 Bft) S-SO 150 ° 0 min 0,000 mm 0,0 UV-I 91 W/m² 11,0 °C 15,0 °C 1,6 km/h (1 Bft)
05.06.2019 06:39 14,9 °C 77 % 1006,0 hPa 0,0 mm 0,0 km/h (0 Bft) S-SO 150 ° 0 min 0,000 mm 0,0 UV-I 93 W/m² 10,9 °C 14,9 °C 0,0 km/h (0 Bft)
05.06.2019 06:40 14,8 °C 77 % 1006,0 hPa 0,0 mm 0,0 km/h (0 Bft) S-SO 150 ° 0 min 0,000 mm 0,0 UV-I 98 W/m² 10,8 °C 14,8 °C 0,0 km/h (0 Bft)
05.06.2019 06:41 14,8 °C 76 % 1005,9 hPa 0,0 mm 0,0 km/h (0 Bft) S-SO 150 ° 0 min 0,000 mm 0,0 UV-I 100 W/m² 10,6 °C 14,8 °C 0,0 km/h (0 Bft)
05.06.2019 06:42 14,9 °C 77 % 1006,0 hPa 0,0 mm 0,0 km/h (0 Bft) S-SO 150 ° 0 min 0,000 mm 0,0 UV-I 102 W/m² 10,9 °C 14,9 °C 0,0 km/h (0 Bft)
05.06.2019 06:43 14,8 °C 78 % 1006,0 hPa 0,0 mm 0,0 km/h (0 Bft) S-SO 150 ° 0 min 0,000 mm 0,0 UV-I 104 W/m² 11,0 °C 14,8 °C 0,0 km/h (0 Bft)
05.06.2019 06:44 14,7 °C 79 % 1006,0 hPa 0,0 mm 0,0 km/h (0 Bft) S-SO 150 ° 0 min 0,000 mm 0,5 UV-I 105 W/m² 11,1 °C 14,7 °C 0,0 km/h (0 Bft)
05.06.2019 06:45 14,7 °C 78 % 1006,1 hPa 0,0 mm 0,0 km/h (0 Bft) S-SO 150 ° 0 min 0,000 mm 0,5 UV-I 107 W/m² 10,9 °C 14,7 °C 0,0 km/h (0 Bft)
05.06.2019 06:46 14,6 °C 79 % 1006,1 hPa 0,0 mm 0,0 km/h (0 Bft) S-SO 150 ° 0 min 0,000 mm 0,5 UV-I 111 W/m² 11,0 °C 14,6 °C 0,0 km/h (0 Bft)
05.06.2019 06:47 14,5 °C 79 % 1006,1 hPa 0,0 mm 0,0 km/h (0 Bft) S-SO 150 ° 0 min 0,000 mm 0,5 UV-I 113 W/m² 10,9 °C 14,5 °C 0,0 km/h (0 Bft)
05.06.2019 06:48 14,5 °C 80 % 1006,2 hPa 0,0 mm 0,0 km/h (0 Bft) S-SO 150 ° 0 min 0,000 mm 0,5 UV-I 114 W/m² 11,1 °C 14,5 °C 0,0 km/h (0 Bft)
05.06.2019 06:49 14,5 °C 77 % 1006,2 hPa 0,0 mm 0,0 km/h (0 Bft) S-SO 150 ° 0 min 0,000 mm 0,5 UV-I 118 W/m² 10,5 °C 14,5 °C 0,0 km/h (0 Bft)
05.06.2019 06:50 14,5 °C 78 % 1006,2 hPa 0,0 mm 0,0 km/h (0 Bft) S-SO 150 ° 0 min 0,000 mm 0,5 UV-I 120 W/m² 10,7 °C 14,5 °C 0,0 km/h (0 Bft)
05.06.2019 06:51 14,6 °C 78 % 1006,3 hPa 0,0 mm 0,0 km/h (0 Bft) S-SO 150 ° 0 min 0,000 mm 0,5 UV-I 123 W/m² 10,8 °C 14,6 °C 0,0 km/h (0 Bft)
05.06.2019 06:52 14,6 °C 78 % 1006,3 hPa 0,0 mm 0,0 km/h (0 Bft) S-SO 150 ° 0 min 0,000 mm 0,5 UV-I 127 W/m² 10,8 °C 14,6 °C 0,0 km/h (0 Bft)
05.06.2019 06:53 14,6 °C 78 % 1006,3 hPa 0,0 mm 0,0 km/h (0 Bft) S-SO 150 ° 0 min 0,000 mm 0,5 UV-I 128 W/m² 10,8 °C 14,6 °C 0,0 km/h (0 Bft)
05.06.2019 06:54 14,6 °C 78 % 1006,3 hPa 0,0 mm 0,0 km/h (0 Bft) S-SO 150 ° 0 min 0,000 mm 0,6 UV-I 130 W/m² 10,8 °C 14,6 °C 0,0 km/h (0 Bft)
05.06.2019 06:55 14,6 °C 78 % 1006,3 hPa 0,0 mm 0,0 km/h (0 Bft) S-SO 150 ° 0 min 0,000 mm 0,6 UV-I 132 W/m² 10,8 °C 14,6 °C 0,0 km/h (0 Bft)
05.06.2019 06:56 14,7 °C 78 % 1006,3 hPa 0,0 mm 0,0 km/h (0 Bft) S-SO 150 ° 0 min 0,000 mm 0,6 UV-I 135 W/m² 10,9 °C 14,7 °C 0,0 km/h (0 Bft)
05.06.2019 06:57 14,7 °C 79 % 1006,3 hPa 0,0 mm 0,0 km/h (0 Bft) S-SO 150 ° 0 min 0,000 mm 0,6 UV-I 139 W/m² 11,1 °C 14,7 °C 0,0 km/h (0 Bft)
05.06.2019 06:58 14,8 °C 80 % 1006,2 hPa 0,0 mm 0,0 km/h (0 Bft) S-SO 150 ° 0 min 0,000 mm 0,6 UV-I 142 W/m² 11,4 °C 14,8 °C 0,0 km/h (0 Bft)
05.06.2019 06:59 14,9 °C 81 % 1006,2 hPa 0,0 mm 0,0 km/h (0 Bft) S-SO 150 ° 0 min 0,000 mm 0,6 UV-I 144 W/m² 11,7 °C 14,9 °C 0,0 km/h (0 Bft)
05.06.2019 07:00 15,1 °C 81 % 1006,2 hPa 0,0 mm 0,0 km/h (0 Bft) S-SO 150 ° 0 min 0,050 mm 0,6 UV-I 146 W/m² 11,9 °C 15,1 °C 0,0 km/h (0 Bft)
05.06.2019 07:01 15,3 °C 77 % 1006,2 hPa 0,0 mm 0,0 km/h (0 Bft) S-SO 150 ° 0 min 0,000 mm 0,6 UV-I 148 W/m² 11,3 °C 15,3 °C 0,0 km/h (0 Bft)
05.06.2019 07:02 15,5 °C 74 % 1006,2 hPa 0,0 mm 0,0 km/h (0 Bft) S-SO 150 ° 0 min 0,000 mm 0,6 UV-I 149 W/m² 10,9 °C 15,5 °C 0,0 km/h (0 Bft)
05.06.2019 07:03 15,8 °C 74 % 1006,2 hPa 0,0 mm 0,0 km/h (0 Bft) S-SO 150 ° 0 min 0,000 mm 0,7 UV-I 155 W/m² 11,2 °C 15,8 °C 0,0 km/h (0 Bft)
05.06.2019 07:04 15,9 °C 73 % 1006,2 hPa 0,0 mm 0,0 km/h (0 Bft) S-SO 150 ° 0 min 0,000 mm 0,7 UV-I 158 W/m² 11,1 °C 15,9 °C 0,0 km/h (0 Bft)
05.06.2019 07:05 16,2 °C 72 % 1006,2 hPa 0,0 mm 1,4 km/h (1 Bft) S-SO 150 ° 0 min 0,000 mm 0,7 UV-I 162 W/m² 11,1 °C 16,2 °C 4,8 km/h (1 Bft)
05.06.2019 07:06 16,3 °C 71 % 1006,2 hPa 0,0 mm 2,7 km/h (1 Bft) S-SO 150 ° 0 min 0,000 mm 0,7 UV-I 163 W/m² 11,0 °C 16,3 °C 3,2 km/h (1 Bft)
05.06.2019 07:07 16,4 °C 73 % 1006,1 hPa 0,0 mm 3,1 km/h (1 Bft) S-SW 204 ° 0 min 0,000 mm 0,7 UV-I 163 W/m² 11,5 °C 16,4 °C 4,8 km/h (1 Bft)
05.06.2019 07:08 16,5 °C 72 % 1006,1 hPa 0,0 mm 1,2 km/h (1 Bft) S-SW 204 ° 0 min 0,000 mm 0,7 UV-I 167 W/m² 11,4 °C 16,5 °C 3,2 km/h (1 Bft)
05.06.2019 07:09 16,7 °C 70 % 1006,1 hPa 0,0 mm 1,1 km/h (1 Bft) S-SW 204 ° 0 min 0,000 mm 0,7 UV-I 171 W/m² 11,2 °C 16,7 °C 3,2 km/h (1 Bft)
05.06.2019 07:10 16,8 °C 68 % 1006,1 hPa 0,0 mm 4,6 km/h (1 Bft) S-SW 201 ° 0 min 0,000 mm 0,7 UV-I 174 W/m² 10,9 °C 16,8 °C 9,7 km/h (2 Bft)
05.06.2019 07:11 16,9 °C 70 % 1006,1 hPa 0,0 mm 4,7 km/h (1 Bft) S-SO 164 ° 0 min 0,000 mm 0,8 UV-I 176 W/m² 11,4 °C 16,9 °C 6,4 km/h (2 Bft)
05.06.2019 07:12 17,2 °C 67 % 1006,2 hPa 0,0 mm 6,2 km/h (2 Bft) SW 226 ° 0 min 0,000 mm 0,8 UV-I 178 W/m² 11,0 °C 17,2 °C 11,3 km/h (2 Bft)
05.06.2019 07:13 17,2 °C 68 % 1006,1 hPa 0,0 mm 5,0 km/h (1 Bft) S-SW 200 ° 0 min 0,000 mm 0,8 UV-I 179 W/m² 11,2 °C 17,2 °C 8,0 km/h (2 Bft)
05.06.2019 07:14 17,3 °C 66 % 1006,1 hPa 0,0 mm 3,6 km/h (1 Bft) S-SW 205 ° 0 min 0,000 mm 0,8 UV-I 181 W/m² 10,9 °C 17,3 °C 8,0 km/h (2 Bft)
05.06.2019 07:15 17,4 °C 65 % 1006,1 hPa 0,0 mm 4,5 km/h (1 Bft) S-SW 211 ° 0 min 0,000 mm 0,8 UV-I 185 W/m² 10,8 °C 17,4 °C 8,0 km/h (2 Bft)
05.06.2019 07:16 17,6 °C 65 % 1006,1 hPa 0,0 mm 3,2 km/h (1 Bft) S-SW 196 ° 0 min 0,000 mm 0,8 UV-I 186 W/m² 10,9 °C 17,6 °C 6,4 km/h (2 Bft)
05.06.2019 07:17 17,6 °C 65 % 1006,1 hPa 0,0 mm 4,8 km/h (1 Bft) S 190 ° 0 min 0,000 mm 0,8 UV-I 188 W/m² 10,9 °C 17,6 °C 12,9 km/h (3 Bft)
05.06.2019 07:18 17,7 °C 63 % 1006,1 hPa 0,0 mm 2,5 km/h (1 Bft) S-SW 206 ° 0 min 0,000 mm 0,8 UV-I 192 W/m² 10,6 °C 17,7 °C 6,4 km/h (2 Bft)
05.06.2019 07:19 17,8 °C 65 % 1006,0 hPa 0,0 mm 2,7 km/h (1 Bft) S-SW 201 ° 0 min 0,000 mm 0,9 UV-I 193 W/m² 11,1 °C 17,8 °C 4,8 km/h (1 Bft)
05.06.2019 07:20 17,8 °C 63 % 1006,1 hPa 0,0 mm 2,9 km/h (1 Bft) S 175 ° 0 min 0,000 mm 0,9 UV-I 195 W/m² 10,7 °C 17,8 °C 6,4 km/h (2 Bft)
05.06.2019 07:21 17,8 °C 66 % 1006,0 hPa 0,0 mm 2,1 km/h (1 Bft) S-SW 193 ° 0 min 0,000 mm 0,9 UV-I 200 W/m² 11,4 °C 17,8 °C 4,8 km/h (1 Bft)
05.06.2019 07:22 17,7 °C 67 % 1006,0 hPa 0,0 mm 0,4 km/h (0 Bft) S-SW 193 ° 0 min 0,000 mm 0,9 UV-I 202 W/m² 11,5 °C 17,7 °C 1,6 km/h (1 Bft)
05.06.2019 07:23 17,7 °C 66 % 1006,0 hPa 0,0 mm 0,0 km/h (0 Bft) S-SW 194 ° 0 min 0,000 mm 0,9 UV-I 206 W/m² 11,3 °C 17,7 °C 0,0 km/h (0 Bft)
05.06.2019 07:24 17,7 °C 67 % 1006,0 hPa 0,0 mm 0,1 km/h (0 Bft) S-SW 194 ° 0 min 0,000 mm 0,9 UV-I 207 W/m² 11,5 °C 17,7 °C 1,6 km/h (1 Bft)
05.06.2019 07:25 17,7 °C 68 % 1006,0 hPa 0,0 mm 1,3 km/h (1 Bft) SW 236 ° 0 min 0,000 mm 0,9 UV-I 211 W/m² 11,7 °C 17,7 °C 3,2 km/h (1 Bft)
05.06.2019 07:26 17,7 °C 67 % 1006,0 hPa 0,0 mm 2,4 km/h (1 Bft) S-SO 159 ° 0 min 0,000 mm 1,0 UV-I 213 W/m² 11,5 °C 17,7 °C 4,8 km/h (1 Bft)
05.06.2019 07:27 17,7 °C 64 % 1006,1 hPa 0,0 mm 3,0 km/h (1 Bft) S 190 ° 0 min 0,000 mm 1,0 UV-I 220 W/m² 10,8 °C 17,7 °C 4,8 km/h (1 Bft)
05.06.2019 07:28 17,8 °C 64 % 1006,0 hPa 0,0 mm 2,1 km/h (1 Bft) S 191 ° 0 min 0,000 mm 1,0 UV-I 221 W/m² 10,9 °C 17,8 °C 4,8 km/h (1 Bft)
05.06.2019 07:29 17,8 °C 67 % 1006,1 hPa 0,0 mm 0,7 km/h (0 Bft) S 190 ° 0 min 0,000 mm 1,0 UV-I 223 W/m² 11,6 °C 17,8 °C 1,6 km/h (1 Bft)
05.06.2019 07:30 17,7 °C 70 % 1006,1 hPa 0,0 mm 0,0 km/h (0 Bft) S 190 ° 0 min 0,000 mm 1,0 UV-I 227 W/m² 12,2 °C 17,7 °C 0,0 km/h (0 Bft)
05.06.2019 07:31 17,6 °C 70 % 1006,0 hPa 0,0 mm 0,0 km/h (0 Bft) S 190 ° 0 min 0,000 mm 1,0 UV-I 230 W/m² 12,1 °C 17,6 °C 0,0 km/h (0 Bft)
05.06.2019 07:32 17,4 °C 69 % 1006,0 hPa 0,0 mm 0,0 km/h (0 Bft) S 190 ° 0 min 0,000 mm 1,1 UV-I 234 W/m² 11,7 °C 17,4 °C 0,0 km/h (0 Bft)
05.06.2019 07:33 17,3 °C 73 % 1006,1 hPa 0,0 mm 0,0 km/h (0 Bft) S 190 ° 0 min 0,000 mm 1,1 UV-I 237 W/m² 12,4 °C 17,3 °C 0,0 km/h (0 Bft)
05.06.2019 07:34 17,3 °C 70 % 1006,0 hPa 0,0 mm 0,0 km/h (0 Bft) S 190 ° 0 min 0,000 mm 1,1 UV-I 239 W/m² 11,8 °C 17,3 °C 0,0 km/h (0 Bft)
05.06.2019 07:35 17,3 °C 69 % 1006,0 hPa 0,0 mm 0,0 km/h (0 Bft) S 190 ° 0 min 0,000 mm 1,1 UV-I 243 W/m² 11,6 °C 17,3 °C 0,0 km/h (0 Bft)
05.06.2019 07:36 17,2 °C 72 % 1006,0 hPa 0,0 mm 0,0 km/h (0 Bft) S 190 ° 0 min 0,000 mm 1,1 UV-I 244 W/m² 12,1 °C 17,2 °C 0,0 km/h (0 Bft)
05.06.2019 07:37 17,3 °C 71 % 1006,1 hPa 0,0 mm 0,0 km/h (0 Bft) S 190 ° 0 min 0,000 mm 1,2 UV-I 248 W/m² 12,0 °C 17,3 °C 0,0 km/h (0 Bft)
05.06.2019 07:38 17,3 °C 70 % 1006,1 hPa 0,0 mm 0,0 km/h (0 Bft) S 190 ° 0 min 0,000 mm 1,2 UV-I 253 W/m² 11,8 °C 17,3 °C 0,0 km/h (0 Bft)
05.06.2019 07:39 17,4 °C 76 % 1006,1 hPa 0,0 mm 0,0 km/h (0 Bft) S 190 ° 0 min 0,000 mm 1,2 UV-I 257 W/m² 13,1 °C 17,4 °C 0,0 km/h (0 Bft)
05.06.2019 07:40 17,4 °C 72 % 1006,1 hPa 0,0 mm 0,0 km/h (0 Bft) S 190 ° 0 min 0,000 mm 1,2 UV-I 258 W/m² 12,3 °C 17,4 °C 0,0 km/h (0 Bft)
05.06.2019 07:41 17,5 °C 71 % 1006,1 hPa 0,0 mm 0,0 km/h (0 Bft) S 190 ° 0 min 0,000 mm 1,2 UV-I 262 W/m² 12,2 °C 17,5 °C 0,0 km/h (0 Bft)
05.06.2019 07:42 17,6 °C 70 % 1006,1 hPa 0,0 mm 0,0 km/h (0 Bft) S 190 ° 0 min 0,000 mm 1,2 UV-I 265 W/m² 12,1 °C 17,6 °C 0,0 km/h (0 Bft)
05.06.2019 07:43 17,6 °C 72 % 1006,1 hPa 0,0 mm 0,0 km/h (0 Bft) S 190 ° 0 min 0,000 mm 1,3 UV-I 267 W/m² 12,5 °C 17,6 °C 0,0 km/h (0 Bft)
05.06.2019 07:44 17,7 °C 68 % 1006,0 hPa 0,0 mm 0,0 km/h (0 Bft) S 190 ° 0 min 0,000 mm 1,3 UV-I 272 W/m² 11,7 °C 17,7 °C 0,0 km/h (0 Bft)
05.06.2019 07:45 17,8 °C 69 % 1006,0 hPa 0,0 mm 0,0 km/h (0 Bft) S 190 ° 0 min 0,000 mm 1,3 UV-I 276 W/m² 12,0 °C 17,8 °C 0,0 km/h (0 Bft)
05.06.2019 07:46 17,7 °C 71 % 1005,9 hPa 0,0 mm 0,0 km/h (0 Bft) S 190 ° 0 min 0,000 mm 1,3 UV-I 278 W/m² 12,4 °C 17,7 °C 0,0 km/h (0 Bft)
05.06.2019 07:47 17,7 °C 70 % 1006,0 hPa 0,0 mm 0,0 km/h (0 Bft) S 190 ° 0 min 0,000 mm 1,3 UV-I 279 W/m² 12,2 °C 17,7 °C 0,0 km/h (0 Bft)
05.06.2019 07:48 17,8 °C 73 % 1005,9 hPa 0,0 mm 0,0 km/h (0 Bft) S 190 ° 0 min 0,000 mm 1,3 UV-I 281 W/m² 12,9 °C 17,8 °C 0,0 km/h (0 Bft)
05.06.2019 07:49 18,0 °C 72 % 1006,0 hPa 0,0 mm 0,0 km/h (0 Bft) S 190 ° 0 min 0,000 mm 1,3 UV-I 283 W/m² 12,9 °C 18,0 °C 0,0 km/h (0 Bft)
05.06.2019 07:50 18,1 °C 71 % 1006,0 hPa 0,0 mm 0,0 km/h (0 Bft) S 190 ° 0 min 0,000 mm 1,4 UV-I 287 W/m² 12,8 °C 18,1 °C 0,0 km/h (0 Bft)
05.06.2019 07:51 18,1 °C 68 % 1006,0 hPa 0,0 mm 0,0 km/h (0 Bft) S 190 ° 0 min 0,000 mm 1,4 UV-I 288 W/m² 12,1 °C 18,1 °C 0,0 km/h (0 Bft)
05.06.2019 07:52 18,1 °C 71 % 1006,1 hPa 0,0 mm 0,0 km/h (0 Bft) S 190 ° 0 min 0,000 mm 1,4 UV-I 292 W/m² 12,8 °C 18,1 °C 0,0 km/h (0 Bft)
05.06.2019 07:53 18,2 °C 70 % 1006,1 hPa 0,0 mm 0,0 km/h (0 Bft) S 190 ° 0 min 0,000 mm 1,4 UV-I 295 W/m² 12,6 °C 18,2 °C 0,0 km/h (0 Bft)
05.06.2019 07:54 18,3 °C 73 % 1006,1 hPa 0,0 mm 0,0 km/h (0 Bft) S 190 ° 0 min 0,000 mm 1,4 UV-I 297 W/m² 13,4 °C 18,3 °C 0,0 km/h (0 Bft)
05.06.2019 07:55 18,3 °C 69 % 1006,1 hPa 0,0 mm 0,0 km/h (0 Bft) S 190 ° 0 min 0,000 mm 1,5 UV-I 301 W/m² 12,5 °C 18,3 °C 0,0 km/h (0 Bft)
05.06.2019 07:56 18,2 °C 67 % 1006,0 hPa 0,0 mm 0,0 km/h (0 Bft) S 190 ° 0 min 0,000 mm 1,5 UV-I 306 W/m² 12,0 °C 18,2 °C 0,0 km/h (0 Bft)
05.06.2019 07:57 18,2 °C 67 % 1006,0 hPa 0,0 mm 0,0 km/h (0 Bft) S 190 ° 0 min 0,000 mm 1,5 UV-I 308 W/m² 12,0 °C 18,2 °C 0,0 km/h (0 Bft)
05.06.2019 07:58 18,3 °C 68 % 1006,0 hPa 0,0 mm 0,0 km/h (0 Bft) S 190 ° 0 min 0,000 mm 1,5 UV-I 311 W/m² 12,3 °C 18,3 °C 0,0 km/h (0 Bft)
05.06.2019 07:59 18,3 °C 68 % 1005,9 hPa 0,0 mm 0,0 km/h (0 Bft) S 190 ° 0 min 0,000 mm 1,5 UV-I 313 W/m² 12,3 °C 18,3 °C 0,0 km/h (0 Bft)
05.06.2019 08:00 18,2 °C 69 % 1005,9 hPa 0,0 mm 0,0 km/h (0 Bft) S 190 ° 0 min 0,000 mm 1,5 UV-I 315 W/m² 12,4 °C 18,2 °C 0,0 km/h (0 Bft)
05.06.2019 08:01 18,2 °C 69 % 1005,9 hPa 0,0 mm 0,0 km/h (0 Bft) S 190 ° 0 min 0,127 mm 1,6 UV-I 318 W/m² 12,4 °C 18,2 °C 0,0 km/h (0 Bft)
05.06.2019 08:02 18,4 °C 73 % 1005,9 hPa 0,0 mm 0,0 km/h (0 Bft) S 190 ° 0 min 0,000 mm 1,6 UV-I 322 W/m² 13,5 °C 18,4 °C 0,0 km/h (0 Bft)
05.06.2019 08:03 18,6 °C 71 % 1005,9 hPa 0,0 mm 0,0 km/h (0 Bft) S 190 ° 0 min 0,000 mm 1,6 UV-I 325 W/m² 13,2 °C 18,6 °C 0,0 km/h (0 Bft)
05.06.2019 08:04 18,8 °C 71 % 1005,9 hPa 0,0 mm 0,0 km/h (0 Bft) S 190 ° 0 min 0,000 mm 1,6 UV-I 329 W/m² 13,4 °C 18,8 °C 0,0 km/h (0 Bft)
05.06.2019 08:05 18,9 °C 69 % 1006,0 hPa 0,0 mm 0,0 km/h (0 Bft) S 190 ° 0 min 0,000 mm 1,7 UV-I 332 W/m² 13,1 °C 18,9 °C 0,0 km/h (0 Bft)
05.06.2019 08:06 19,0 °C 68 % 1006,0 hPa 0,0 mm 0,0 km/h (0 Bft) S 190 ° 0 min 0,000 mm 1,7 UV-I 334 W/m² 13,0 °C 19,0 °C 0,0 km/h (0 Bft)
05.06.2019 08:07 18,9 °C 67 % 1006,0 hPa 0,0 mm 0,0 km/h (0 Bft) S 190 ° 0 min 0,000 mm 1,7 UV-I 339 W/m² 12,6 °C 18,9 °C 0,0 km/h (0 Bft)
05.06.2019 08:08 18,8 °C 69 % 1006,1 hPa 0,0 mm 0,0 km/h (0 Bft) S 190 ° 0 min 0,000 mm 1,7 UV-I 341 W/m² 13,0 °C 18,8 °C 0,0 km/h (0 Bft)
05.06.2019 08:09 18,8 °C 68 % 1006,1 hPa 0,0 mm 0,0 km/h (0 Bft) S 190 ° 0 min 0,000 mm 1,7 UV-I 345 W/m² 12,8 °C 18,8 °C 0,0 km/h (0 Bft)
05.06.2019 08:10 18,8 °C 70 % 1006,0 hPa 0,0 mm 0,0 km/h (0 Bft) S 190 ° 0 min 0,000 mm 1,8 UV-I 348 W/m² 13,2 °C 18,8 °C 0,0 km/h (0 Bft)
05.06.2019 08:11 18,8 °C 68 % 1006,0 hPa 0,0 mm 0,0 km/h (0 Bft) S 190 ° 0 min 0,000 mm 1,8 UV-I 352 W/m² 12,8 °C 18,8 °C 0,0 km/h (0 Bft)
05.06.2019 08:12 18,8 °C 67 % 1006,0 hPa 0,0 mm 0,0 km/h (0 Bft) S 190 ° 0 min 0,000 mm 1,8 UV-I 353 W/m² 12,5 °C 18,8 °C 0,0 km/h (0 Bft)
05.06.2019 08:13 18,8 °C 73 % 1006,0 hPa 0,0 mm 0,0 km/h (0 Bft) S 190 ° 0 min 0,000 mm 1,8 UV-I 355 W/m² 13,9 °C 18,8 °C 0,0 km/h (0 Bft)
05.06.2019 08:14 18,8 °C 71 % 1005,9 hPa 0,0 mm 0,0 km/h (0 Bft) S 190 ° 0 min 0,000 mm 1,8 UV-I 359 W/m² 13,4 °C 18,8 °C 0,0 km/h (0 Bft)
05.06.2019 08:15 18,8 °C 72 % 1005,9 hPa 0,0 mm 0,0 km/h (0 Bft) S 190 ° 0 min 0,000 mm 1,9 UV-I 362 W/m² 13,6 °C 18,8 °C 0,0 km/h (0 Bft)
05.06.2019 08:16 18,8 °C 69 % 1005,9 hPa 0,0 mm 0,0 km/h (0 Bft) S 190 ° 0 min 0,000 mm 1,9 UV-I 364 W/m² 13,0 °C 18,8 °C 0,0 km/h (0 Bft)
05.06.2019 08:17 18,8 °C 68 % 1005,9 hPa 0,0 mm 0,0 km/h (0 Bft) S 190 ° 0 min 0,000 mm 1,9 UV-I 366 W/m² 12,8 °C 18,8 °C 0,0 km/h (0 Bft)
05.06.2019 08:18 18,9 °C 72 % 1005,9 hPa 0,0 mm 0,0 km/h (0 Bft) S 190 ° 0 min 0,000 mm 1,9 UV-I 369 W/m² 13,7 °C 18,9 °C 0,0 km/h (0 Bft)
05.06.2019 08:19 19,2 °C 69 % 1005,9 hPa 0,0 mm 0,0 km/h (0 Bft) S 190 ° 0 min 0,000 mm 1,9 UV-I 373 W/m² 13,4 °C 19,2 °C 0,0 km/h (0 Bft)
05.06.2019 08:20 19,3 °C 69 % 1005,9 hPa 0,0 mm 0,0 km/h (0 Bft) S 190 ° 0 min 0,000 mm 1,9 UV-I 374 W/m² 13,5 °C 19,3 °C 0,0 km/h (0 Bft)
05.06.2019 08:21 19,3 °C 69 % 1005,9 hPa 0,0 mm 0,0 km/h (0 Bft) S 190 ° 0 min 0,000 mm 2,0 UV-I 378 W/m² 13,5 °C 19,3 °C 0,0 km/h (0 Bft)
05.06.2019 08:22 19,4 °C 65 % 1006,0 hPa 0,0 mm 0,0 km/h (0 Bft) S 190 ° 0 min 0,000 mm 2,0 UV-I 380 W/m² 12,6 °C 19,4 °C 0,0 km/h (0 Bft)
05.06.2019 08:23 19,6 °C 67 % 1005,9 hPa 0,0 mm 0,0 km/h (0 Bft) S 190 ° 0 min 0,000 mm 2,0 UV-I 383 W/m² 13,3 °C 19,6 °C 0,0 km/h (0 Bft)
05.06.2019 08:24 19,7 °C 64 % 1005,9 hPa 0,0 mm 0,0 km/h (0 Bft) S 190 ° 0 min 0,000 mm 2,0 UV-I 387 W/m² 12,7 °C 19,7 °C 0,0 km/h (0 Bft)
05.06.2019 08:25 19,7 °C 63 % 1005,9 hPa 0,0 mm 0,0 km/h (0 Bft) S 190 ° 0 min 0,000 mm 2,0 UV-I 390 W/m² 12,5 °C 19,7 °C 0,0 km/h (0 Bft)
05.06.2019 08:26 19,7 °C 63 % 1005,9 hPa 0,0 mm 0,0 km/h (0 Bft) S 190 ° 0 min 0,000 mm 2,1 UV-I 394 W/m² 12,5 °C 19,7 °C 0,0 km/h (0 Bft)
05.06.2019 08:27 19,8 °C 63 % 1005,8 hPa 0,0 mm 0,0 km/h (0 Bft) S 190 ° 0 min 0,000 mm 2,1 UV-I 396 W/m² 12,5 °C 19,8 °C 0,0 km/h (0 Bft)
05.06.2019 08:28 19,8 °C 64 % 1005,9 hPa 0,0 mm 0,0 km/h (0 Bft) S 190 ° 0 min 0,000 mm 2,1 UV-I 399 W/m² 12,8 °C 19,8 °C 0,0 km/h (0 Bft)
05.06.2019 08:29 19,9 °C 66 % 1005,9 hPa 0,0 mm 0,0 km/h (0 Bft) S 190 ° 0 min 0,000 mm 2,1 UV-I 399 W/m² 13,4 °C 19,9 °C 0,0 km/h (0 Bft)
05.06.2019 08:30 19,9 °C 66 % 1005,8 hPa 0,0 mm 0,0 km/h (0 Bft) S 190 ° 0 min 0,000 mm 2,1 UV-I 403 W/m² 13,4 °C 19,9 °C 0,0 km/h (0 Bft)
05.06.2019 08:31 19,9 °C 62 % 1005,8 hPa 0,0 mm 0,0 km/h (0 Bft) S 190 ° 0 min 0,000 mm 2,2 UV-I 408 W/m² 12,4 °C 19,9 °C 0,0 km/h (0 Bft)
05.06.2019 08:32 20,1 °C 63 % 1005,8 hPa 0,0 mm 0,0 km/h (0 Bft) S 190 ° 0 min 0,000 mm 2,2 UV-I 410 W/m² 12,8 °C 20,1 °C 0,0 km/h (0 Bft)
05.06.2019 08:33 20,1 °C 61 % 1005,8 hPa 0,0 mm 0,0 km/h (0 Bft) S 190 ° 0 min 0,000 mm 2,2 UV-I 411 W/m² 12,3 °C 20,1 °C 0,0 km/h (0 Bft)
05.06.2019 08:34 20,2 °C 61 % 1005,7 hPa 0,0 mm 0,0 km/h (0 Bft) S 190 ° 0 min 0,000 mm 2,2 UV-I 413 W/m² 12,4 °C 20,2 °C 0,0 km/h (0 Bft)
05.06.2019 08:35 20,2 °C 64 % 1005,8 hPa 0,0 mm 0,0 km/h (0 Bft) S 190 ° 0 min 0,000 mm 2,2 UV-I 417 W/m² 13,2 °C 20,2 °C 0,0 km/h (0 Bft)
05.06.2019 08:36 20,3 °C 64 % 1005,7 hPa 0,0 mm 0,0 km/h (0 Bft) S 190 ° 0 min 0,000 mm 2,2 UV-I 417 W/m² 13,3 °C 20,3 °C 0,0 km/h (0 Bft)
05.06.2019 08:37 20,2 °C 62 % 1005,8 hPa 0,0 mm 0,0 km/h (0 Bft) S 190 ° 0 min 0,000 mm 2,3 UV-I 424 W/m² 12,7 °C 20,2 °C 0,0 km/h (0 Bft)
05.06.2019 08:38 20,3 °C 63 % 1005,8 hPa 0,0 mm 0,0 km/h (0 Bft) S 190 ° 0 min 0,000 mm 2,3 UV-I 427 W/m² 13,0 °C 20,3 °C 0,0 km/h (0 Bft)
05.06.2019 08:39 20,4 °C 68 % 1005,8 hPa 0,0 mm 0,0 km/h (0 Bft) S 190 ° 0 min 0,000 mm 2,3 UV-I 429 W/m² 14,3 °C 20,4 °C 0,0 km/h (0 Bft)
05.06.2019 08:40 20,5 °C 64 % 1005,7 hPa 0,0 mm 0,0 km/h (0 Bft) S 190 ° 0 min 0,000 mm 2,4 UV-I 432 W/m² 13,5 °C 20,5 °C 0,0 km/h (0 Bft)
05.06.2019 08:41 20,6 °C 63 % 1005,7 hPa 0,0 mm 0,0 km/h (0 Bft) S 190 ° 0 min 0,000 mm 2,4 UV-I 434 W/m² 13,3 °C 20,6 °C 0,0 km/h (0 Bft)
05.06.2019 08:42 20,7 °C 65 % 1005,7 hPa 0,0 mm 0,0 km/h (0 Bft) S 190 ° 0 min 0,000 mm 2,4 UV-I 438 W/m² 13,9 °C 20,7 °C 0,0 km/h (0 Bft)
05.06.2019 08:43 20,8 °C 64 % 1005,7 hPa 0,0 mm 0,1 km/h (0 Bft) S 190 ° 0 min 0,000 mm 2,4 UV-I 443 W/m² 13,7 °C 20,8 °C 1,6 km/h (1 Bft)
05.06.2019 08:44 20,9 °C 69 % 1005,7 hPa 0,0 mm 0,0 km/h (0 Bft) S 190 ° 0 min 0,000 mm 2,4 UV-I 443 W/m² 15,0 °C 20,9 °C 0,0 km/h (0 Bft)
05.06.2019 08:45 21,1 °C 67 % 1005,7 hPa 0,0 mm 0,0 km/h (0 Bft) S 190 ° 0 min 0,000 mm 2,5 UV-I 445 W/m² 14,7 °C 21,1 °C 0,0 km/h (0 Bft)
05.06.2019 08:46 21,2 °C 63 % 1005,7 hPa 0,0 mm 0,0 km/h (0 Bft) S 190 ° 0 min 0,000 mm 2,5 UV-I 448 W/m² 13,9 °C 21,2 °C 0,0 km/h (0 Bft)
05.06.2019 08:47 21,4 °C 59 % 1005,7 hPa 0,0 mm 0,0 km/h (0 Bft) S 190 ° 0 min 0,000 mm 2,5 UV-I 450 W/m² 13,0 °C 21,4 °C 0,0 km/h (0 Bft)
05.06.2019 08:48 21,5 °C 62 % 1005,7 hPa 0,0 mm 0,0 km/h (0 Bft) S 190 ° 0 min 0,000 mm 2,5 UV-I 454 W/m² 13,9 °C 21,5 °C 0,0 km/h (0 Bft)
05.06.2019 08:49 21,4 °C 60 % 1005,7 hPa 0,0 mm 0,0 km/h (0 Bft) S 190 ° 0 min 0,000 mm 2,6 UV-I 459 W/m² 13,3 °C 21,4 °C 0,0 km/h (0 Bft)
05.06.2019 08:50 21,4 °C 58 % 1005,7 hPa 0,0 mm 0,0 km/h (0 Bft) S 190 ° 0 min 0,000 mm 2,6 UV-I 462 W/m² 12,8 °C 21,4 °C 0,0 km/h (0 Bft)
05.06.2019 08:51 21,3 °C 61 % 1005,7 hPa 0,0 mm 0,0 km/h (0 Bft) S 190 ° 0 min 0,000 mm 2,6 UV-I 464 W/m² 13,5 °C 21,3 °C 0,0 km/h (0 Bft)
05.06.2019 08:52 21,2 °C 62 % 1005,7 hPa 0,0 mm 0,0 km/h (0 Bft) S 190 ° 0 min 0,000 mm 2,6 UV-I 466 W/m² 13,6 °C 21,2 °C 0,0 km/h (0 Bft)
05.06.2019 08:53 21,3 °C 65 % 1005,7 hPa 0,0 mm 0,0 km/h (0 Bft) S 190 ° 0 min 0,000 mm 2,6 UV-I 468 W/m² 14,4 °C 21,3 °C 0,0 km/h (0 Bft)
05.06.2019 08:54 21,4 °C 60 % 1005,7 hPa 0,0 mm 2,6 km/h (1 Bft) S 190 ° 0 min 0,000 mm 2,7 UV-I 473 W/m² 13,3 °C 21,4 °C 4,8 km/h (1 Bft)
05.06.2019 08:55 21,6 °C 60 % 1005,7 hPa 0,0 mm 0,6 km/h (0 Bft) S 190 ° 0 min 0,000 mm 2,7 UV-I 476 W/m² 13,5 °C 21,6 °C 1,6 km/h (1 Bft)
05.06.2019 08:56 21,6 °C 58 % 1005,7 hPa 0,0 mm 0,0 km/h (0 Bft) S 190 ° 0 min 0,000 mm 2,7 UV-I 478 W/m² 13,0 °C 21,6 °C 0,0 km/h (0 Bft)
05.06.2019 08:57 21,4 °C 62 % 1005,7 hPa 0,0 mm 0,0 km/h (0 Bft) S 190 ° 0 min 0,000 mm 2,8 UV-I 482 W/m² 13,8 °C 21,4 °C 0,0 km/h (0 Bft)
05.06.2019 08:58 21,4 °C 62 % 1005,7 hPa 0,0 mm 0,2 km/h (0 Bft) S 190 ° 0 min 0,000 mm 2,8 UV-I 483 W/m² 13,8 °C 21,4 °C 1,6 km/h (1 Bft)
05.06.2019 08:59 21,6 °C 63 % 1005,7 hPa 0,0 mm 1,0 km/h (0 Bft) S 190 ° 0 min 0,000 mm 2,8 UV-I 487 W/m² 14,2 °C 21,6 °C 1,6 km/h (1 Bft)
05.06.2019 09:00 21,8 °C 65 % 1005,7 hPa 0,0 mm 1,0 km/h (0 Bft) S 190 ° 0 min 0,229 mm 2,8 UV-I 492 W/m² 14,9 °C 21,8 °C 1,6 km/h (1 Bft)
05.06.2019 09:01 21,9 °C 55 % 1005,7 hPa 0,0 mm 1,1 km/h (1 Bft) S 190 ° 0 min 0,000 mm 2,9 UV-I 494 W/m² 12,4 °C 21,9 °C 3,2 km/h (1 Bft)
05.06.2019 09:02 22,3 °C 61 % 1005,7 hPa 0,0 mm 1,5 km/h (1 Bft) S 191 ° 0 min 0,000 mm 2,9 UV-I 496 W/m² 14,4 °C 22,3 °C 3,2 km/h (1 Bft)
05.06.2019 09:03 22,4 °C 58 % 1005,6 hPa 0,0 mm 0,3 km/h (0 Bft) S 191 ° 0 min 0,000 mm 2,9 UV-I 499 W/m² 13,7 °C 22,4 °C 1,6 km/h (1 Bft)
05.06.2019 09:04 22,4 °C 57 % 1005,6 hPa 0,0 mm 0,0 km/h (0 Bft) S 191 ° 0 min 0,000 mm 2,9 UV-I 501 W/m² 13,5 °C 22,4 °C 0,0 km/h (0 Bft)
05.06.2019 09:05 22,4 °C 59 % 1005,6 hPa 0,0 mm 0,2 km/h (0 Bft) S 191 ° 0 min 0,000 mm 3,0 UV-I 503 W/m² 14,0 °C 22,4 °C 1,6 km/h (1 Bft)
05.06.2019 09:06 22,4 °C 54 % 1005,7 hPa 0,0 mm 2,3 km/h (1 Bft) W-SW 240 ° 0 min 0,000 mm 3,0 UV-I 506 W/m² 12,6 °C 22,4 °C 4,8 km/h (1 Bft)
05.06.2019 09:07 22,4 °C 55 % 1005,7 hPa 0,0 mm 1,6 km/h (1 Bft) W-SW 240 ° 0 min 0,000 mm 3,0 UV-I 508 W/m² 12,9 °C 22,4 °C 3,2 km/h (1 Bft)
05.06.2019 09:08 22,6 °C 54 % 1005,7 hPa 0,0 mm 0,7 km/h (0 Bft) W-SW 240 ° 0 min 0,000 mm 3,0 UV-I 508 W/m² 12,8 °C 22,6 °C 3,2 km/h (1 Bft)
05.06.2019 09:09 22,7 °C 55 % 1005,7 hPa 0,0 mm 0,7 km/h (0 Bft) W-SW 239 ° 0 min 0,000 mm 3,0 UV-I 513 W/m² 13,2 °C 22,7 °C 3,2 km/h (1 Bft)
05.06.2019 09:10 22,8 °C 61 % 1005,7 hPa 0,0 mm 0,6 km/h (0 Bft) W-SW 239 ° 0 min 0,000 mm 3,1 UV-I 515 W/m² 14,9 °C 22,8 °C 1,6 km/h (1 Bft)
05.06.2019 09:11 22,8 °C 62 % 1005,7 hPa 0,0 mm 0,4 km/h (0 Bft) W-SW 239 ° 0 min 0,000 mm 3,1 UV-I 519 W/m² 15,1 °C 22,8 °C 1,6 km/h (1 Bft)
05.06.2019 09:12 22,8 °C 59 % 1005,6 hPa 0,0 mm 0,5 km/h (0 Bft) W-SW 239 ° 0 min 0,000 mm 3,1 UV-I 522 W/m² 14,4 °C 22,8 °C 1,6 km/h (1 Bft)
05.06.2019 09:13 22,8 °C 59 % 1005,7 hPa 0,0 mm 3,3 km/h (1 Bft) W-NW 286 ° 0 min 0,000 mm 3,1 UV-I 524 W/m² 14,4 °C 22,8 °C 6,4 km/h (2 Bft)
05.06.2019 09:14 22,9 °C 57 % 1005,7 hPa 0,0 mm 3,4 km/h (1 Bft) SW 234 ° 0 min 0,000 mm 3,1 UV-I 527 W/m² 13,9 °C 22,9 °C 6,4 km/h (2 Bft)
05.06.2019 09:15 23,0 °C 54 % 1005,7 hPa 0,0 mm 8,4 km/h (2 Bft) W-NW 298 ° 0 min 0,000 mm 3,2 UV-I 512 W/m² 13,2 °C 23,0 °C 12,9 km/h (3 Bft)
05.06.2019 09:16 23,0 °C 55 % 1005,7 hPa 0,0 mm 3,6 km/h (1 Bft) W 275 ° 0 min 0,000 mm 3,2 UV-I 533 W/m² 13,5 °C 23,0 °C 8,0 km/h (2 Bft)
05.06.2019 09:17 23,1 °C 53 % 1005,7 hPa 0,0 mm 4,4 km/h (1 Bft) NW 319 ° 0 min 0,000 mm 3,2 UV-I 534 W/m² 13,0 °C 23,1 °C 6,4 km/h (2 Bft)
05.06.2019 09:18 23,2 °C 55 % 1005,7 hPa 0,0 mm 2,8 km/h (1 Bft) NW 304 ° 0 min 0,000 mm 3,2 UV-I 541 W/m² 13,6 °C 23,2 °C 4,8 km/h (1 Bft)
05.06.2019 09:19 23,3 °C 57 % 1005,6 hPa 0,0 mm 4,3 km/h (1 Bft) W-NW 284 ° 0 min 0,000 mm 3,3 UV-I 543 W/m² 14,3 °C 23,3 °C 6,4 km/h (2 Bft)
05.06.2019 09:20 23,3 °C 56 % 1005,7 hPa 0,0 mm 2,1 km/h (1 Bft) W-NW 284 ° 0 min 0,000 mm 3,3 UV-I 545 W/m² 14,0 °C 23,3 °C 4,8 km/h (1 Bft)
05.06.2019 09:21 23,4 °C 54 % 1005,7 hPa 0,0 mm 1,5 km/h (1 Bft) W-NW 284 ° 0 min 0,000 mm 3,3 UV-I 547 W/m² 13,6 °C 23,4 °C 3,2 km/h (1 Bft)
05.06.2019 09:22 23,4 °C 54 % 1005,7 hPa 0,0 mm 2,7 km/h (1 Bft) W-NW 284 ° 0 min 0,000 mm 3,3 UV-I 548 W/m² 13,6 °C 23,4 °C 4,8 km/h (1 Bft)
05.06.2019 09:23 23,5 °C 54 % 1005,7 hPa 0,0 mm 3,5 km/h (1 Bft) W 268 ° 0 min 0,000 mm 3,4 UV-I 552 W/m² 13,6 °C 23,5 °C 6,4 km/h (2 Bft)
05.06.2019 09:24 23,6 °C 53 % 1005,6 hPa 0,0 mm 1,2 km/h (1 Bft) W 269 ° 0 min 0,000 mm 3,4 UV-I 559 W/m² 13,4 °C 23,6 °C 3,2 km/h (1 Bft)
05.06.2019 09:25 23,6 °C 52 % 1005,6 hPa 0,0 mm 4,7 km/h (1 Bft) W 264 ° 0 min 0,000 mm 3,4 UV-I 561 W/m² 13,2 °C 23,6 °C 8,0 km/h (2 Bft)
05.06.2019 09:26 23,6 °C 52 % 1005,6 hPa 0,0 mm 5,7 km/h (1 Bft) W 264 ° 0 min 0,000 mm 3,5 UV-I 564 W/m² 13,2 °C 23,6 °C 11,3 km/h (2 Bft)
05.06.2019 09:27 23,5 °C 52 % 1005,6 hPa 0,0 mm 8,2 km/h (2 Bft) W 261 ° 0 min 0,000 mm 3,5 UV-I 566 W/m² 13,1 °C 23,5 °C 12,9 km/h (3 Bft)
05.06.2019 09:28 23,5 °C 54 % 1005,6 hPa 0,0 mm 6,0 km/h (2 Bft) W-SW 250 ° 0 min 0,000 mm 3,5 UV-I 570 W/m² 13,6 °C 23,5 °C 11,3 km/h (2 Bft)
05.06.2019 09:29 23,6 °C 53 % 1005,6 hPa 0,0 mm 10,3 km/h (2 Bft) W 267 ° 0 min 0,000 mm 3,5 UV-I 570 W/m² 13,4 °C 23,6 °C 14,5 km/h (3 Bft)
05.06.2019 09:30 23,5 °C 51 % 1005,6 hPa 0,0 mm 2,8 km/h (1 Bft) W-NW 290 ° 0 min 0,000 mm 3,5 UV-I 573 W/m² 12,8 °C 23,5 °C 9,7 km/h (2 Bft)
05.06.2019 09:31 23,6 °C 53 % 1005,6 hPa 0,0 mm 5,2 km/h (1 Bft) W-NW 299 ° 0 min 0,000 mm 3,6 UV-I 577 W/m² 13,4 °C 23,6 °C 8,0 km/h (2 Bft)
05.06.2019 09:32 23,7 °C 54 % 1005,6 hPa 0,0 mm 7,9 km/h (2 Bft) W 266 ° 0 min 0,000 mm 3,6 UV-I 578 W/m² 13,8 °C 23,7 °C 12,9 km/h (3 Bft)
05.06.2019 09:33 23,7 °C 50 % 1005,6 hPa 0,0 mm 13,9 km/h (3 Bft) W 279 ° 0 min 0,000 mm 3,6 UV-I 582 W/m² 12,6 °C 23,7 °C 19,3 km/h (3 Bft)
05.06.2019 09:34 23,6 °C 49 % 1005,6 hPa 0,0 mm 9,7 km/h (2 Bft) W 279 ° 0 min 0,000 mm 3,6 UV-I 584 W/m² 12,2 °C 23,6 °C 16,1 km/h (3 Bft)
05.06.2019 09:35 23,6 °C 51 % 1005,6 hPa 0,0 mm 6,6 km/h (2 Bft) W-NW 292 ° 0 min 0,000 mm 3,6 UV-I 587 W/m² 12,9 °C 23,6 °C 14,5 km/h (3 Bft)
05.06.2019 09:36 23,6 °C 53 % 1005,6 hPa 0,0 mm 5,4 km/h (1 Bft) NW 305 ° 0 min 0,000 mm 3,7 UV-I 589 W/m² 13,4 °C 23,6 °C 8,0 km/h (2 Bft)
05.06.2019 09:37 23,6 °C 54 % 1005,6 hPa 0,0 mm 6,4 km/h (2 Bft) NW 310 ° 0 min 0,000 mm 3,7 UV-I 592 W/m² 13,7 °C 23,6 °C 11,3 km/h (2 Bft)
05.06.2019 09:38 23,6 °C 54 % 1005,6 hPa 0,0 mm 7,5 km/h (2 Bft) W-SW 255 ° 0 min 0,000 mm 3,7 UV-I 594 W/m² 13,7 °C 23,6 °C 12,9 km/h (3 Bft)
05.06.2019 09:39 23,6 °C 51 % 1005,6 hPa 0,0 mm 8,6 km/h (2 Bft) W 267 ° 0 min 0,000 mm 3,7 UV-I 596 W/m² 12,9 °C 23,6 °C 14,5 km/h (3 Bft)
05.06.2019 09:40 23,6 °C 53 % 1005,7 hPa 0,0 mm 4,4 km/h (1 Bft) NW 315 ° 0 min 0,000 mm 3,7 UV-I 598 W/m² 13,4 °C 23,6 °C 9,7 km/h (2 Bft)
05.06.2019 09:41 23,6 °C 54 % 1005,6 hPa 0,0 mm 6,5 km/h (2 Bft) W-NW 286 ° 1 min 0,000 mm 3,8 UV-I 603 W/m² 13,7 °C 23,6 °C 14,5 km/h (3 Bft)
05.06.2019 09:42 23,6 °C 52 % 1005,6 hPa 0,0 mm 9,1 km/h (2 Bft) W-SW 254 ° 1 min 0,000 mm 3,8 UV-I 605 W/m² 13,2 °C 23,6 °C 16,1 km/h (3 Bft)
05.06.2019 09:43 23,5 °C 51 % 1005,6 hPa 0,0 mm 7,4 km/h (2 Bft) W-NW 283 ° 1 min 0,000 mm 3,8 UV-I 608 W/m² 12,8 °C 23,5 °C 14,5 km/h (3 Bft)
05.06.2019 09:44 23,5 °C 53 % 1005,6 hPa 0,0 mm 4,6 km/h (1 Bft) W-NW 282 ° 1 min 0,000 mm 3,9 UV-I 610 W/m² 13,4 °C 23,5 °C 6,4 km/h (2 Bft)
05.06.2019 09:45 23,5 °C 51 % 1005,6 hPa 0,0 mm 6,1 km/h (2 Bft) W-NW 282 ° 1 min 0,000 mm 3,9 UV-I 612 W/m² 12,8 °C 23,5 °C 9,7 km/h (2 Bft)
05.06.2019 09:46 23,6 °C 54 % 1005,6 hPa 0,0 mm 5,9 km/h (2 Bft) W 281 ° 1 min 0,000 mm 3,9 UV-I 613 W/m² 13,7 °C 23,6 °C 8,0 km/h (2 Bft)
05.06.2019 09:47 23,6 °C 52 % 1005,6 hPa 0,0 mm 12,6 km/h (3 Bft) W 273 ° 1 min 0,000 mm 3,9 UV-I 619 W/m² 13,2 °C 23,6 °C 19,3 km/h (3 Bft)
05.06.2019 09:48 23,5 °C 50 % 1005,6 hPa 0,0 mm 8,0 km/h (2 Bft) W 273 ° 1 min 0,000 mm 3,9 UV-I 619 W/m² 12,5 °C 23,5 °C 12,9 km/h (3 Bft)
05.06.2019 09:49 23,4 °C 51 % 1005,6 hPa 0,0 mm 6,4 km/h (2 Bft) W 275 ° 1 min 0,000 mm 4,0 UV-I 622 W/m² 12,7 °C 23,4 °C 12,9 km/h (3 Bft)
05.06.2019 09:50 23,4 °C 54 % 1005,6 hPa 0,0 mm 11,9 km/h (2 Bft) W 275 ° 1 min 0,000 mm 4,0 UV-I 624 W/m² 13,6 °C 23,4 °C 17,7 km/h (3 Bft)
05.06.2019 09:51 23,4 °C 51 % 1005,6 hPa 0,0 mm 14,8 km/h (3 Bft) W 277 ° 1 min 0,000 mm 4,0 UV-I 626 W/m² 12,7 °C 23,4 °C 20,9 km/h (4 Bft)
05.06.2019 09:52 23,4 °C 53 % 1005,6 hPa 0,0 mm 7,0 km/h (2 Bft) NW 306 ° 1 min 0,000 mm 4,0 UV-I 629 W/m² 13,3 °C 23,4 °C 14,5 km/h (3 Bft)
05.06.2019 09:53 23,4 °C 52 % 1005,6 hPa 0,0 mm 14,5 km/h (3 Bft) W 275 ° 1 min 0,000 mm 4,0 UV-I 633 W/m² 13,0 °C 23,4 °C 20,9 km/h (4 Bft)
05.06.2019 09:54 23,4 °C 53 % 1005,6 hPa 0,0 mm 17,4 km/h (3 Bft) W-NW 284 ° 1 min 0,000 mm 4,0 UV-I 633 W/m² 13,3 °C 23,4 °C 22,5 km/h (4 Bft)
05.06.2019 09:55 23,4 °C 53 % 1005,5 hPa 0,0 mm 11,1 km/h (2 Bft) W-SW 245 ° 1 min 0,000 mm 4,1 UV-I 635 W/m² 13,3 °C 23,4 °C 14,5 km/h (3 Bft)
05.06.2019 09:56 23,4 °C 55 % 1005,5 hPa 0,0 mm 8,6 km/h (2 Bft) W-NW 296 ° 1 min 0,000 mm 4,1 UV-I 638 W/m² 13,8 °C 23,4 °C 12,9 km/h (3 Bft)
05.06.2019 09:57 23,5 °C 55 % 1005,5 hPa 0,0 mm 9,2 km/h (2 Bft) W-NW 295 ° 1 min 0,000 mm 4,1 UV-I 640 W/m² 13,9 °C 23,5 °C 16,1 km/h (3 Bft)
05.06.2019 09:58 23,6 °C 53 % 1005,5 hPa 0,0 mm 6,2 km/h (2 Bft) W-NW 297 ° 1 min 0,000 mm 4,1 UV-I 642 W/m² 13,4 °C 23,6 °C 12,9 km/h (3 Bft)
05.06.2019 09:59 23,6 °C 54 % 1005,6 hPa 0,0 mm 13,2 km/h (3 Bft) W-NW 290 ° 1 min 0,000 mm 4,1 UV-I 645 W/m² 13,7 °C 23,6 °C 20,9 km/h (4 Bft)
05.06.2019 10:00 23,5 °C 53 % 1005,5 hPa 0,0 mm 10,9 km/h (2 Bft) W-NW 294 ° 1 min 0,381 mm 4,2 UV-I 647 W/m² 13,4 °C 23,5 °C 16,1 km/h (3 Bft)
05.06.2019 10:01 23,4 °C 52 % 1005,5 hPa 0,0 mm 8,0 km/h (2 Bft) W-SW 254 ° 1 min 0,000 mm 4,2 UV-I 649 W/m² 13,0 °C 23,4 °C 11,3 km/h (2 Bft)
05.06.2019 10:02 23,4 °C 54 % 1005,5 hPa 0,0 mm 10,3 km/h (2 Bft) W-NW 290 ° 1 min 0,000 mm 4,2 UV-I 650 W/m² 13,6 °C 23,4 °C 17,7 km/h (3 Bft)
05.06.2019 10:03 23,4 °C 53 % 1005,4 hPa 0,0 mm 5,2 km/h (1 Bft) NW 306 ° 1 min 0,000 mm 4,2 UV-I 652 W/m² 13,3 °C 23,4 °C 12,9 km/h (3 Bft)
05.06.2019 10:04 23,5 °C 54 % 1005,4 hPa 0,0 mm 4,7 km/h (1 Bft) NW 313 ° 1 min 0,000 mm 4,2 UV-I 652 W/m² 13,6 °C 23,5 °C 6,4 km/h (2 Bft)
05.06.2019 10:05 23,6 °C 55 % 1005,4 hPa 0,0 mm 1,7 km/h (1 Bft) NW 313 ° 1 min 0,000 mm 4,3 UV-I 657 W/m² 14,0 °C 23,6 °C 4,8 km/h (1 Bft)
05.06.2019 10:06 23,7 °C 56 % 1005,4 hPa 0,0 mm 6,2 km/h (2 Bft) N-NW 336 ° 1 min 0,000 mm 4,3 UV-I 659 W/m² 14,4 °C 23,7 °C 9,7 km/h (2 Bft)
05.06.2019 10:07 23,7 °C 58 % 1005,4 hPa 0,0 mm 12,0 km/h (2 Bft) W 260 ° 1 min 0,000 mm 4,3 UV-I 663 W/m² 14,9 °C 23,7 °C 22,5 km/h (4 Bft)
05.06.2019 10:08 23,7 °C 52 % 1005,4 hPa 0,0 mm 10,9 km/h (2 Bft) W-NW 303 ° 1 min 0,000 mm 4,4 UV-I 664 W/m² 13,2 °C 23,7 °C 14,5 km/h (3 Bft)
05.06.2019 10:09 23,8 °C 54 % 1005,4 hPa 0,0 mm 10,0 km/h (2 Bft) NW 316 ° 1 min 0,000 mm 4,4 UV-I 666 W/m² 13,9 °C 23,8 °C 14,5 km/h (3 Bft)
05.06.2019 10:10 23,8 °C 56 % 1005,4 hPa 0,0 mm 7,3 km/h (2 Bft) W-NW 286 ° 1 min 0,000 mm 4,4 UV-I 668 W/m² 14,5 °C 23,8 °C 14,5 km/h (3 Bft)
05.06.2019 10:11 23,8 °C 53 % 1005,4 hPa 0,0 mm 6,4 km/h (2 Bft) W-NW 292 ° 1 min 0,000 mm 4,4 UV-I 673 W/m² 13,6 °C 23,8 °C 11,3 km/h (2 Bft)
05.06.2019 10:12 23,8 °C 55 % 1005,4 hPa 0,0 mm 4,6 km/h (1 Bft) NW 306 ° 1 min 0,000 mm 4,5 UV-I 675 W/m² 14,2 °C 23,8 °C 11,3 km/h (2 Bft)
05.06.2019 10:13 23,9 °C 58 % 1005,4 hPa 0,0 mm 10,9 km/h (2 Bft) N-NW 331 ° 1 min 0,000 mm 4,5 UV-I 677 W/m² 15,1 °C 23,9 °C 16,1 km/h (3 Bft)
05.06.2019 10:14 23,8 °C 54 % 1005,4 hPa 0,0 mm 10,1 km/h (2 Bft) W 275 ° 1 min 0,000 mm 4,5 UV-I 679 W/m² 13,9 °C 23,8 °C 16,1 km/h (3 Bft)
05.06.2019 10:15 23,8 °C 53 % 1005,4 hPa 0,0 mm 7,6 km/h (2 Bft) W-SW 245 ° 1 min 0,000 mm 4,5 UV-I 682 W/m² 13,6 °C 23,8 °C 14,5 km/h (3 Bft)
05.06.2019 10:16 23,7 °C 54 % 1005,4 hPa 0,0 mm 8,1 km/h (2 Bft) W-NW 300 ° 1 min 0,000 mm 4,6 UV-I 686 W/m² 13,8 °C 23,7 °C 12,9 km/h (3 Bft)
05.06.2019 10:17 23,8 °C 55 % 1005,4 hPa 0,0 mm 5,6 km/h (1 Bft) NW 312 ° 1 min 0,000 mm 4,6 UV-I 686 W/m² 14,2 °C 23,8 °C 9,7 km/h (2 Bft)
05.06.2019 10:18 23,8 °C 55 % 1005,4 hPa 0,0 mm 5,2 km/h (1 Bft) W-NW 300 ° 1 min 0,000 mm 4,6 UV-I 689 W/m² 14,2 °C 23,8 °C 8,0 km/h (2 Bft)
05.06.2019 10:19 23,7 °C 54 % 1005,4 hPa 0,0 mm 11,7 km/h (2 Bft) W-NW 300 ° 1 min 0,000 mm 4,6 UV-I 693 W/m² 13,8 °C 23,7 °C 17,7 km/h (3 Bft)
05.06.2019 10:20 23,7 °C 53 % 1005,4 hPa 0,0 mm 11,3 km/h (2 Bft) W 269 ° 1 min 0,000 mm 4,7 UV-I 693 W/m² 13,5 °C 23,7 °C 16,1 km/h (3 Bft)
05.06.2019 10:21 23,7 °C 54 % 1005,4 hPa 0,0 mm 9,8 km/h (2 Bft) W 261 ° 1 min 0,000 mm 4,7 UV-I 696 W/m² 13,8 °C 23,7 °C 14,5 km/h (3 Bft)
05.06.2019 10:22 23,7 °C 54 % 1005,4 hPa 0,0 mm 11,0 km/h (2 Bft) W 279 ° 1 min 0,000 mm 4,7 UV-I 698 W/m² 13,8 °C 23,7 °C 16,1 km/h (3 Bft)
05.06.2019 10:23 23,7 °C 54 % 1005,4 hPa 0,0 mm 4,2 km/h (1 Bft) W-SW 254 ° 1 min 0,000 mm 4,7 UV-I 700 W/m² 13,8 °C 23,7 °C 8,0 km/h (2 Bft)
05.06.2019 10:24 23,8 °C 57 % 1005,4 hPa 0,0 mm 5,3 km/h (1 Bft) W 259 ° 1 min 0,000 mm 4,8 UV-I 701 W/m² 14,8 °C 23,8 °C 9,7 km/h (2 Bft)
05.06.2019 10:25 23,8 °C 56 % 1005,4 hPa 0,0 mm 6,7 km/h (2 Bft) W-NW 288 ° 1 min 0,000 mm 4,8 UV-I 703 W/m² 14,5 °C 23,8 °C 9,7 km/h (2 Bft)
05.06.2019 10:26 23,9 °C 56 % 1005,4 hPa 0,0 mm 7,4 km/h (2 Bft) N-NW 329 ° 1 min 0,000 mm 4,8 UV-I 703 W/m² 14,6 °C 23,9 °C 12,9 km/h (3 Bft)
05.06.2019 10:27 24,0 °C 60 % 1005,4 hPa 0,0 mm 6,1 km/h (2 Bft) N-NW 329 ° 1 min 0,000 mm 4,8 UV-I 707 W/m² 15,7 °C 24,0 °C 11,3 km/h (2 Bft)
05.06.2019 10:28 24,1 °C 58 % 1005,4 hPa 0,0 mm 7,6 km/h (2 Bft) NW 316 ° 1 min 0,000 mm 4,8 UV-I 712 W/m² 15,3 °C 24,1 °C 12,9 km/h (3 Bft)
05.06.2019 10:29 24,2 °C 55 % 1005,3 hPa 0,0 mm 6,3 km/h (2 Bft) W 274 ° 1 min 0,000 mm 4,9 UV-I 714 W/m² 14,6 °C 24,2 °C 12,9 km/h (3 Bft)
05.06.2019 10:30 24,2 °C 56 % 1005,4 hPa 0,0 mm 9,7 km/h (2 Bft) NW 304 ° 1 min 0,000 mm 4,9 UV-I 715 W/m² 14,9 °C 24,2 °C 17,7 km/h (3 Bft)
05.06.2019 10:31 24,2 °C 53 % 1005,3 hPa 0,0 mm 6,2 km/h (2 Bft) NW 318 ° 1 min 0,000 mm 4,9 UV-I 717 W/m² 14,0 °C 24,2 °C 12,9 km/h (3 Bft)
05.06.2019 10:32 24,2 °C 54 % 1005,3 hPa 0,0 mm 6,7 km/h (2 Bft) W-SW 251 ° 1 min 0,000 mm 4,9 UV-I 721 W/m² 14,3 °C 24,2 °C 11,3 km/h (2 Bft)
05.06.2019 10:33 24,1 °C 54 % 1005,2 hPa 0,0 mm 7,3 km/h (2 Bft) W-SW 258 ° 1 min 0,000 mm 5,0 UV-I 722 W/m² 14,2 °C 24,1 °C 11,3 km/h (2 Bft)
05.06.2019 10:34 24,1 °C 53 % 1005,2 hPa 0,0 mm 4,5 km/h (1 Bft) W-NW 300 ° 1 min 0,000 mm 5,0 UV-I 726 W/m² 13,9 °C 24,1 °C 6,4 km/h (2 Bft)
05.06.2019 10:35 24,1 °C 55 % 1005,3 hPa 0,0 mm 2,9 km/h (1 Bft) W-NW 296 ° 1 min 0,000 mm 5,0 UV-I 726 W/m² 14,5 °C 24,1 °C 6,4 km/h (2 Bft)
05.06.2019 10:36 24,1 °C 54 % 1005,3 hPa 0,0 mm 6,4 km/h (2 Bft) W-NW 292 ° 1 min 0,000 mm 5,0 UV-I 728 W/m² 14,2 °C 24,1 °C 9,7 km/h (2 Bft)
05.06.2019 10:37 24,1 °C 55 % 1005,3 hPa 0,0 mm 5,5 km/h (1 Bft) W-NW 291 ° 1 min 0,000 mm 5,0 UV-I 729 W/m² 14,5 °C 24,1 °C 12,9 km/h (3 Bft)
05.06.2019 10:38 24,1 °C 54 % 1005,3 hPa 0,0 mm 8,5 km/h (2 Bft) N-NW 340 ° 1 min 0,000 mm 5,1 UV-I 731 W/m² 14,2 °C 24,1 °C 14,5 km/h (3 Bft)
05.06.2019 10:39 24,1 °C 54 % 1005,3 hPa 0,0 mm 9,8 km/h (2 Bft) W 274 ° 1 min 0,000 mm 5,1 UV-I 731 W/m² 14,2 °C 24,1 °C 14,5 km/h (3 Bft)
05.06.2019 10:40 24,1 °C 52 % 1005,3 hPa 0,0 mm 7,0 km/h (2 Bft) W-NW 283 ° 1 min 0,000 mm 5,1 UV-I 735 W/m² 13,6 °C 24,1 °C 11,3 km/h (2 Bft)
05.06.2019 10:41 24,1 °C 55 % 1005,3 hPa 0,0 mm 4,6 km/h (1 Bft) W-NW 299 ° 1 min 0,000 mm 5,1 UV-I 737 W/m² 14,5 °C 24,1 °C 11,3 km/h (2 Bft)
05.06.2019 10:42 24,1 °C 55 % 1005,4 hPa 0,0 mm 6,1 km/h (2 Bft) W-NW 297 ° 1 min 0,000 mm 5,1 UV-I 737 W/m² 14,5 °C 24,1 °C 9,7 km/h (2 Bft)
05.06.2019 10:43 24,2 °C 55 % 1005,3 hPa 0,0 mm 9,1 km/h (2 Bft) W-NW 300 ° 1 min 0,000 mm 5,2 UV-I 740 W/m² 14,6 °C 24,2 °C 14,5 km/h (3 Bft)
05.06.2019 10:44 24,2 °C 54 % 1005,3 hPa 0,0 mm 7,8 km/h (2 Bft) W 275 ° 1 min 0,000 mm 5,2 UV-I 740 W/m² 14,3 °C 24,2 °C 11,3 km/h (2 Bft)
05.06.2019 10:45 24,2 °C 56 % 1005,3 hPa 0,0 mm 7,3 km/h (2 Bft) W-NW 288 ° 1 min 0,000 mm 5,2 UV-I 745 W/m² 14,9 °C 24,2 °C 12,9 km/h (3 Bft)
05.06.2019 10:46 24,2 °C 56 % 1005,4 hPa 0,0 mm 6,4 km/h (2 Bft) NW 311 ° 1 min 0,000 mm 5,2 UV-I 747 W/m² 14,9 °C 24,2 °C 11,3 km/h (2 Bft)
05.06.2019 10:47 24,2 °C 55 % 1005,3 hPa 0,0 mm 7,3 km/h (2 Bft) W-NW 288 ° 1 min 0,000 mm 5,3 UV-I 749 W/m² 14,6 °C 24,2 °C 14,5 km/h (3 Bft)
05.06.2019 10:48 24,2 °C 56 % 1005,3 hPa 0,0 mm 6,0 km/h (2 Bft) W-SW 247 ° 1 min 0,000 mm 5,3 UV-I 751 W/m² 14,9 °C 24,2 °C 11,3 km/h (2 Bft)
05.06.2019 10:49 24,2 °C 56 % 1005,3 hPa 0,0 mm 4,1 km/h (1 Bft) W 263 ° 1 min 0,000 mm 5,3 UV-I 751 W/m² 14,9 °C 24,2 °C 6,4 km/h (2 Bft)
05.06.2019 10:50 24,2 °C 56 % 1005,3 hPa 0,0 mm 6,6 km/h (2 Bft) W 279 ° 1 min 0,000 mm 5,3 UV-I 751 W/m² 14,9 °C 24,2 °C 12,9 km/h (3 Bft)
05.06.2019 10:51 24,3 °C 57 % 1005,3 hPa 0,0 mm 5,7 km/h (1 Bft) W-NW 285 ° 1 min 0,000 mm 5,3 UV-I 752 W/m² 15,2 °C 24,3 °C 8,0 km/h (2 Bft)
05.06.2019 10:52 24,4 °C 56 % 1005,3 hPa 0,0 mm 6,7 km/h (2 Bft) W-NW 302 ° 1 min 0,000 mm 5,3 UV-I 759 W/m² 15,0 °C 24,4 °C 16,1 km/h (3 Bft)
05.06.2019 10:53 24,4 °C 55 % 1005,3 hPa 0,0 mm 10,4 km/h (2 Bft) W 281 ° 1 min 0,000 mm 5,4 UV-I 759 W/m² 14,8 °C 24,4 °C 16,1 km/h (3 Bft)
05.06.2019 10:54 24,4 °C 55 % 1005,3 hPa 0,0 mm 7,0 km/h (2 Bft) W 281 ° 1 min 0,000 mm 5,4 UV-I 761 W/m² 14,8 °C 24,4 °C 11,3 km/h (2 Bft)
05.06.2019 10:55 24,3 °C 54 % 1005,3 hPa 0,0 mm 7,2 km/h (2 Bft) W 268 ° 1 min 0,000 mm 5,4 UV-I 765 W/m² 14,4 °C 24,3 °C 14,5 km/h (3 Bft)
05.06.2019 10:56 24,3 °C 53 % 1005,4 hPa 0,0 mm 5,0 km/h (1 Bft) N-NW 331 ° 1 min 0,000 mm 5,4 UV-I 766 W/m² 14,1 °C 24,3 °C 8,0 km/h (2 Bft)
05.06.2019 10:57 24,3 °C 56 % 1005,4 hPa 0,0 mm 7,4 km/h (2 Bft) W-NW 286 ° 1 min 0,000 mm 5,4 UV-I 768 W/m² 14,9 °C 24,3 °C 11,3 km/h (2 Bft)
05.06.2019 10:58 24,4 °C 55 % 1005,3 hPa 0,0 mm 2,7 km/h (1 Bft) W-NW 296 ° 1 min 0,000 mm 5,5 UV-I 768 W/m² 14,8 °C 24,4 °C 4,8 km/h (1 Bft)
05.06.2019 10:59 24,4 °C 57 % 1005,3 hPa 0,0 mm 5,3 km/h (1 Bft) W 274 ° 1 min 0,000 mm 5,5 UV-I 768 W/m² 15,3 °C 24,4 °C 6,4 km/h (2 Bft)
05.06.2019 11:00 24,5 °C 55 % 1005,3 hPa 0,0 mm 6,7 km/h (2 Bft) NW 323 ° 1 min 0,000 mm 5,5 UV-I 772 W/m² 14,9 °C 24,5 °C 12,9 km/h (3 Bft)
05.06.2019 11:01 24,5 °C 54 % 1005,3 hPa 0,0 mm 6,0 km/h (2 Bft) N-NW 329 ° 1 min 0,483 mm 5,5 UV-I 772 W/m² 14,6 °C 24,5 °C 8,0 km/h (2 Bft)
05.06.2019 11:02 24,5 °C 54 % 1005,3 hPa 0,0 mm 8,4 km/h (2 Bft) W-NW 286 ° 1 min 0,000 mm 5,6 UV-I 777 W/m² 14,6 °C 24,5 °C 14,5 km/h (3 Bft)
05.06.2019 11:03 24,6 °C 54 % 1005,2 hPa 0,0 mm 8,4 km/h (2 Bft) NW 323 ° 1 min 0,000 mm 5,6 UV-I 779 W/m² 14,7 °C 24,6 °C 12,9 km/h (3 Bft)
05.06.2019 11:04 24,6 °C 53 % 1005,2 hPa 0,0 mm 7,6 km/h (2 Bft) W-NW 296 ° 1 min 0,000 mm 5,6 UV-I 780 W/m² 14,4 °C 24,6 °C 9,7 km/h (2 Bft)
05.06.2019 11:05 24,5 °C 51 % 1005,2 hPa 0,0 mm 3,7 km/h (1 Bft) W-NW 296 ° 1 min 0,000 mm 5,6 UV-I 784 W/m² 13,7 °C 24,5 °C 6,4 km/h (2 Bft)
05.06.2019 11:06 24,5 °C 53 % 1005,2 hPa 0,0 mm 9,3 km/h (2 Bft) W 261 ° 1 min 0,000 mm 5,6 UV-I 786 W/m² 14,3 °C 24,5 °C 14,5 km/h (3 Bft)
05.06.2019 11:07 24,5 °C 54 % 1005,2 hPa 0,0 mm 9,3 km/h (2 Bft) NW 325 ° 1 min 0,000 mm 5,7 UV-I 786 W/m² 14,6 °C 24,5 °C 14,5 km/h (3 Bft)
05.06.2019 11:08 24,5 °C 54 % 1005,2 hPa 0,0 mm 6,8 km/h (2 Bft) W-NW 296 ° 1 min 0,000 mm 5,7 UV-I 788 W/m² 14,6 °C 24,5 °C 11,3 km/h (2 Bft)
05.06.2019 11:09 24,6 °C 54 % 1005,1 hPa 0,0 mm 8,8 km/h (2 Bft) W-NW 297 ° 1 min 0,000 mm 5,7 UV-I 791 W/m² 14,7 °C 24,6 °C 12,9 km/h (3 Bft)
05.06.2019 11:10 24,6 °C 53 % 1005,2 hPa 0,0 mm 5,5 km/h (1 Bft) W 265 ° 1 min 0,000 mm 5,7 UV-I 793 W/m² 14,4 °C 24,6 °C 11,3 km/h (2 Bft)
05.06.2019 11:11 24,6 °C 52 % 1005,1 hPa 0,0 mm 6,2 km/h (2 Bft) N-NW 336 ° 1 min 0,000 mm 5,8 UV-I 793 W/m² 14,1 °C 24,6 °C 9,7 km/h (2 Bft)
05.06.2019 11:12 24,6 °C 53 % 1005,1 hPa 0,0 mm 7,6 km/h (2 Bft) W 281 ° 1 min 0,000 mm 5,8 UV-I 795 W/m² 14,4 °C 24,6 °C 12,9 km/h (3 Bft)
05.06.2019 11:13 24,7 °C 54 % 1005,1 hPa 0,0 mm 5,4 km/h (1 Bft) N-NW 329 ° 1 min 0,000 mm 5,8 UV-I 798 W/m² 14,8 °C 24,7 °C 11,3 km/h (2 Bft)
05.06.2019 11:14 24,6 °C 52 % 1005,1 hPa 0,0 mm 2,4 km/h (1 Bft) W-SW 243 ° 1 min 0,000 mm 5,8 UV-I 798 W/m² 14,1 °C 24,6 °C 4,8 km/h (1 Bft)
05.06.2019 11:15 24,7 °C 54 % 1005,1 hPa 0,0 mm 6,1 km/h (2 Bft) W 278 ° 1 min 0,000 mm 5,8 UV-I 798 W/m² 14,8 °C 24,7 °C 11,3 km/h (2 Bft)
05.06.2019 11:16 24,7 °C 50 % 1005,1 hPa 0,0 mm 1,8 km/h (1 Bft) W-NW 286 ° 1 min 0,000 mm 5,8 UV-I 800 W/m² 13,6 °C 24,7 °C 4,8 km/h (1 Bft)
05.06.2019 11:17 24,7 °C 52 % 1005,1 hPa 0,0 mm 1,5 km/h (1 Bft) W-NW 286 ° 1 min 0,000 mm 5,8 UV-I 800 W/m² 14,2 °C 24,7 °C 3,2 km/h (1 Bft)
05.06.2019 11:18 24,8 °C 51 % 1005,1 hPa 0,0 mm 8,9 km/h (2 Bft) NW 309 ° 1 min 0,000 mm 5,8 UV-I 800 W/m² 14,0 °C 24,8 °C 14,5 km/h (3 Bft)
05.06.2019 11:19 24,8 °C 52 % 1005,1 hPa 0,0 mm 6,2 km/h (2 Bft) W-NW 284 ° 1 min 0,000 mm 5,8 UV-I 803 W/m² 14,3 °C 24,8 °C 11,3 km/h (2 Bft)
05.06.2019 11:20 24,8 °C 53 % 1005,1 hPa 0,0 mm 0,9 km/h (0 Bft) W-NW 296 ° 1 min 0,000 mm 5,9 UV-I 802 W/m² 14,6 °C 24,8 °C 3,2 km/h (1 Bft)
05.06.2019 11:21 24,8 °C 52 % 1005,0 hPa 0,0 mm 2,7 km/h (1 Bft) W 265 ° 1 min 0,000 mm 5,9 UV-I 807 W/m² 14,3 °C 24,8 °C 4,8 km/h (1 Bft)
05.06.2019 11:22 24,9 °C 56 % 1005,0 hPa 0,0 mm 1,5 km/h (1 Bft) W 269 ° 1 min 0,000 mm 5,9 UV-I 809 W/m² 15,5 °C 24,9 °C 3,2 km/h (1 Bft)
05.06.2019 11:23 25,0 °C 55 % 1005,1 hPa 0,0 mm 0,1 km/h (0 Bft) W 269 ° 1 min 0,000 mm 5,9 UV-I 809 W/m² 15,3 °C 25,0 °C 1,6 km/h (1 Bft)
05.06.2019 11:24 25,1 °C 53 % 1005,0 hPa 0,0 mm 6,8 km/h (2 Bft) W-NW 294 ° 1 min 0,000 mm 5,9 UV-I 809 W/m² 14,8 °C 25,1 °C 12,9 km/h (3 Bft)
05.06.2019 11:25 25,1 °C 53 % 1005,0 hPa 0,0 mm 7,3 km/h (2 Bft) NW 309 ° 1 min 0,000 mm 6,0 UV-I 812 W/m² 14,8 °C 25,1 °C 11,3 km/h (2 Bft)
05.06.2019 11:26 25,1 °C 49 % 1005,0 hPa 0,0 mm 3,1 km/h (1 Bft) N-NW 330 ° 1 min 0,000 mm 6,0 UV-I 812 W/m² 13,6 °C 25,1 °C 9,7 km/h (2 Bft)
05.06.2019 11:27 25,0 °C 51 % 1005,0 hPa 0,0 mm 4,8 km/h (1 Bft) W-NW 294 ° 1 min 0,000 mm 6,0 UV-I 816 W/m² 14,1 °C 25,0 °C 6,4 km/h (2 Bft)
05.06.2019 11:28 25,1 °C 54 % 1005,0 hPa 0,0 mm 4,7 km/h (1 Bft) W 269 ° 1 min 0,000 mm 6,0 UV-I 814 W/m² 15,1 °C 25,1 °C 6,4 km/h (2 Bft)
05.06.2019 11:29 25,1 °C 50 % 1005,0 hPa 0,0 mm 4,5 km/h (1 Bft) W 277 ° 1 min 0,000 mm 6,0 UV-I 816 W/m² 13,9 °C 25,1 °C 6,4 km/h (2 Bft)
05.06.2019 11:30 25,1 °C 51 % 1005,0 hPa 0,0 mm 1,0 km/h (0 Bft) W-NW 285 ° 1 min 0,000 mm 6,1 UV-I 819 W/m² 14,2 °C 25,1 °C 3,2 km/h (1 Bft)
05.06.2019 11:31 25,1 °C 52 % 1005,0 hPa 0,0 mm 1,6 km/h (1 Bft) W-NW 301 ° 1 min 0,000 mm 6,1 UV-I 819 W/m² 14,5 °C 25,1 °C 3,2 km/h (1 Bft)
05.06.2019 11:32 25,1 °C 52 % 1005,0 hPa 0,0 mm 2,6 km/h (1 Bft) NW 304 ° 1 min 0,000 mm 6,1 UV-I 821 W/m² 14,5 °C 25,1 °C 4,8 km/h (1 Bft)
05.06.2019 11:33 25,2 °C 53 % 1005,0 hPa 0,0 mm 4,9 km/h (1 Bft) W-NW 284 ° 1 min 0,000 mm 6,1 UV-I 821 W/m² 14,9 °C 25,2 °C 6,4 km/h (2 Bft)
05.06.2019 11:34 25,2 °C 49 % 1005,0 hPa 0,0 mm 3,5 km/h (1 Bft) N-NW 330 ° 1 min 0,000 mm 6,1 UV-I 823 W/m² 13,7 °C 25,2 °C 6,4 km/h (2 Bft)
05.06.2019 11:35 25,3 °C 53 % 1005,0 hPa 0,0 mm 5,3 km/h (1 Bft) W-NW 298 ° 1 min 0,000 mm 6,1 UV-I 823 W/m² 15,0 °C 25,3 °C 9,7 km/h (2 Bft)
05.06.2019 11:36 25,3 °C 57 % 1005,0 hPa 0,0 mm 5,5 km/h (1 Bft) NW 315 ° 1 min 0,000 mm 6,1 UV-I 824 W/m² 16,2 °C 25,3 °C 12,9 km/h (3 Bft)
05.06.2019 11:37 25,4 °C 53 % 1005,0 hPa 0,0 mm 4,3 km/h (1 Bft) NW 304 ° 1 min 0,000 mm 6,2 UV-I 824 W/m² 15,1 °C 25,4 °C 8,0 km/h (2 Bft)
05.06.2019 11:38 25,4 °C 50 % 1005,0 hPa 0,0 mm 4,0 km/h (1 Bft) N 5 ° 1 min 0,000 mm 6,2 UV-I 830 W/m² 14,2 °C 25,4 °C 6,4 km/h (2 Bft)
05.06.2019 11:39 25,3 °C 48 % 1005,0 hPa 0,0 mm 6,8 km/h (2 Bft) N-NW 329 ° 1 min 0,000 mm 6,2 UV-I 831 W/m² 13,5 °C 25,3 °C 8,0 km/h (2 Bft)
05.06.2019 11:40 25,4 °C 50 % 1004,9 hPa 0,0 mm 6,0 km/h (2 Bft) NW 313 ° 1 min 0,000 mm 6,3 UV-I 835 W/m² 14,2 °C 25,4 °C 12,9 km/h (3 Bft)
05.06.2019 11:41 25,4 °C 51 % 1005,0 hPa 0,0 mm 2,7 km/h (1 Bft) NW 310 ° 1 min 0,000 mm 6,3 UV-I 835 W/m² 14,5 °C 25,4 °C 4,8 km/h (1 Bft)
05.06.2019 11:42 25,4 °C 52 % 1005,0 hPa 0,0 mm 2,8 km/h (1 Bft) W-SW 252 ° 1 min 0,000 mm 6,3 UV-I 837 W/m² 14,8 °C 25,4 °C 6,4 km/h (2 Bft)
05.06.2019 11:43 25,3 °C 47 % 1004,9 hPa 0,0 mm 6,8 km/h (2 Bft) W-NW 288 ° 1 min 0,000 mm 6,3 UV-I 837 W/m² 13,2 °C 25,3 °C 9,7 km/h (2 Bft)
05.06.2019 11:44 25,2 °C 47 % 1004,9 hPa 0,0 mm 6,0 km/h (2 Bft) W-NW 301 ° 1 min 0,000 mm 6,3 UV-I 840 W/m² 13,1 °C 25,2 °C 9,7 km/h (2 Bft)
05.06.2019 11:45 25,2 °C 50 % 1004,9 hPa 0,0 mm 3,2 km/h (1 Bft) W-NW 300 ° 1 min 0,000 mm 6,3 UV-I 842 W/m² 14,0 °C 25,2 °C 4,8 km/h (1 Bft)
05.06.2019 11:46 25,2 °C 50 % 1005,0 hPa 0,0 mm 3,6 km/h (1 Bft) NW 305 ° 1 min 0,000 mm 6,4 UV-I 842 W/m² 14,0 °C 25,2 °C 6,4 km/h (2 Bft)
05.06.2019 11:47 25,2 °C 49 % 1004,9 hPa 0,0 mm 3,5 km/h (1 Bft) W 277 ° 1 min 0,000 mm 6,4 UV-I 844 W/m² 13,7 °C 25,2 °C 4,8 km/h (1 Bft)
05.06.2019 11:48 25,2 °C 51 % 1004,9 hPa 0,0 mm 1,8 km/h (1 Bft) W-NW 286 ° 1 min 0,000 mm 6,4 UV-I 844 W/m² 14,3 °C 25,2 °C 4,8 km/h (1 Bft)
05.06.2019 11:49 25,2 °C 53 % 1004,9 hPa 0,0 mm 1,0 km/h (0 Bft) W-NW 287 ° 1 min 0,000 mm 6,4 UV-I 844 W/m² 14,9 °C 25,2 °C 3,2 km/h (1 Bft)
05.06.2019 11:50 25,2 °C 52 % 1004,9 hPa 0,0 mm 1,3 km/h (1 Bft) N-NW 327 ° 1 min 0,000 mm 6,4 UV-I 846 W/m² 14,6 °C 25,2 °C 6,4 km/h (2 Bft)
05.06.2019 11:51 25,2 °C 51 % 1004,9 hPa 0,0 mm 4,8 km/h (1 Bft) N 350 ° 1 min 0,000 mm 6,4 UV-I 846 W/m² 14,3 °C 25,2 °C 6,4 km/h (2 Bft)
05.06.2019 11:52 25,3 °C 52 % 1004,9 hPa 0,0 mm 5,6 km/h (1 Bft) W-NW 302 ° 1 min 0,000 mm 6,4 UV-I 847 W/m² 14,7 °C 25,3 °C 8,0 km/h (2 Bft)
05.06.2019 11:53 25,4 °C 51 % 1004,9 hPa 0,0 mm 4,4 km/h (1 Bft) N-NO 27 ° 1 min 0,000 mm 6,5 UV-I 847 W/m² 14,5 °C 25,4 °C 6,4 km/h (2 Bft)
05.06.2019 11:54 25,4 °C 50 % 1004,9 hPa 0,0 mm 2,3 km/h (1 Bft) N-NO 16 ° 1 min 0,000 mm 6,5 UV-I 847 W/m² 14,2 °C 25,4 °C 4,8 km/h (1 Bft)
05.06.2019 11:55 25,4 °C 49 % 1004,9 hPa 0,0 mm 1,9 km/h (1 Bft) N-NW 345 ° 1 min 0,000 mm 6,5 UV-I 847 W/m² 13,9 °C 25,4 °C 4,8 km/h (1 Bft)
05.06.2019 11:56 25,4 °C 52 % 1004,9 hPa 0,0 mm 5,8 km/h (2 Bft) O-NO 58 ° 1 min 0,000 mm 6,5 UV-I 851 W/m² 14,8 °C 25,4 °C 8,0 km/h (2 Bft)
05.06.2019 11:57 25,4 °C 49 % 1004,9 hPa 0,0 mm 5,0 km/h (1 Bft) O-NO 57 ° 1 min 0,000 mm 6,5 UV-I 853 W/m² 13,9 °C 25,4 °C 8,0 km/h (2 Bft)
05.06.2019 11:58 25,3 °C 51 % 1004,8 hPa 0,0 mm 3,6 km/h (1 Bft) O-NO 72 ° 1 min 0,000 mm 6,5 UV-I 854 W/m² 14,4 °C 25,3 °C 6,4 km/h (2 Bft)
05.06.2019 11:59 25,4 °C 51 % 1004,8 hPa 0,0 mm 2,3 km/h (1 Bft) W-NW 298 ° 1 min 0,000 mm 6,5 UV-I 856 W/m² 14,5 °C 25,4 °C 6,4 km/h (2 Bft)
05.06.2019 12:00 25,4 °C 52 % 1004,9 hPa 0,0 mm 2,0 km/h (1 Bft) W-NW 298 ° 1 min 0,000 mm 6,6 UV-I 858 W/m² 14,8 °C 25,4 °C 4,8 km/h (1 Bft)
05.06.2019 12:01 25,5 °C 55 % 1004,9 hPa 0,0 mm 4,8 km/h (1 Bft) W-NW 286 ° 1 min 0,558 mm 6,6 UV-I 858 W/m² 15,8 °C 25,5 °C 6,4 km/h (2 Bft)
05.06.2019 12:02 25,5 °C 48 % 1004,8 hPa 0,0 mm 2,7 km/h (1 Bft) W-NW 300 ° 1 min 0,000 mm 6,6 UV-I 861 W/m² 13,7 °C 25,5 °C 4,8 km/h (1 Bft)
05.06.2019 12:03 25,4 °C 50 % 1004,8 hPa 0,0 mm 5,5 km/h (1 Bft) NW 319 ° 1 min 0,000 mm 6,6 UV-I 861 W/m² 14,2 °C 25,4 °C 8,0 km/h (2 Bft)
05.06.2019 12:04 25,4 °C 53 % 1004,8 hPa 0,0 mm 5,0 km/h (1 Bft) NW 309 ° 1 min 0,000 mm 6,6 UV-I 861 W/m² 15,1 °C 25,4 °C 6,4 km/h (2 Bft)
05.06.2019 12:05 25,4 °C 50 % 1004,8 hPa 0,0 mm 3,4 km/h (1 Bft) NW 309 ° 1 min 0,000 mm 6,6 UV-I 865 W/m² 14,2 °C 25,4 °C 4,8 km/h (1 Bft)
05.06.2019 12:06 25,4 °C 51 % 1004,8 hPa 0,0 mm 4,9 km/h (1 Bft) NW 304 ° 1 min 0,000 mm 6,7 UV-I 867 W/m² 14,5 °C 25,4 °C 6,4 km/h (2 Bft)
05.06.2019 12:07 25,4 °C 49 % 1004,8 hPa 0,0 mm 4,5 km/h (1 Bft) NW 304 ° 1 min 0,000 mm 6,7 UV-I 867 W/m² 13,9 °C 25,4 °C 6,4 km/h (2 Bft)
05.06.2019 12:08 25,3 °C 49 % 1004,8 hPa 0,0 mm 3,2 km/h (1 Bft) NW 304 ° 1 min 0,000 mm 6,7 UV-I 870 W/m² 13,8 °C 25,3 °C 4,8 km/h (1 Bft)
05.06.2019 12:09 25,3 °C 48 % 1004,8 hPa 0,0 mm 3,0 km/h (1 Bft) NW 304 ° 1 min 0,000 mm 6,7 UV-I 868 W/m² 13,5 °C 25,3 °C 4,8 km/h (1 Bft)
05.06.2019 12:10 25,4 °C 50 % 1004,8 hPa 0,0 mm 0,9 km/h (0 Bft) NW 304 ° 1 min 0,000 mm 6,7 UV-I 870 W/m² 14,2 °C 25,4 °C 3,2 km/h (1 Bft)
05.06.2019 12:11 25,4 °C 53 % 1004,8 hPa 0,0 mm 0,2 km/h (0 Bft) NW 304 ° 1 min 0,000 mm 6,7 UV-I 870 W/m² 15,1 °C 25,4 °C 1,6 km/h (1 Bft)
05.06.2019 12:12 25,5 °C 52 % 1004,7 hPa 0,0 mm 1,2 km/h (1 Bft) NW 304 ° 1 min 0,000 mm 6,7 UV-I 870 W/m² 14,9 °C 25,5 °C 3,2 km/h (1 Bft)
05.06.2019 12:13 25,4 °C 51 % 1004,7 hPa 0,0 mm 4,5 km/h (1 Bft) NW 306 ° 1 min 0,000 mm 6,7 UV-I 872 W/m² 14,5 °C 25,4 °C 8,0 km/h (2 Bft)
05.06.2019 12:14 25,5 °C 48 % 1004,8 hPa 0,0 mm 4,2 km/h (1 Bft) W-NW 296 ° 1 min 0,000 mm 6,7 UV-I 872 W/m² 13,7 °C 25,5 °C 6,4 km/h (2 Bft)
05.06.2019 12:15 25,5 °C 48 % 1004,7 hPa 0,0 mm 3,3 km/h (1 Bft) W-NW 296 ° 1 min 0,000 mm 6,8 UV-I 874 W/m² 13,7 °C 25,5 °C 6,4 km/h (2 Bft)
05.06.2019 12:16 25,5 °C 47 % 1004,7 hPa 0,0 mm 1,3 km/h (1 Bft) W-NW 296 ° 1 min 0,000 mm 6,7 UV-I 875 W/m² 13,3 °C 25,5 °C 3,2 km/h (1 Bft)
05.06.2019 12:17 25,4 °C 50 % 1004,7 hPa 0,0 mm 0,2 km/h (0 Bft) W-NW 296 ° 1 min 0,000 mm 6,8 UV-I 877 W/m² 14,2 °C 25,4 °C 1,6 km/h (1 Bft)
05.06.2019 12:18 25,3 °C 50 % 1004,6 hPa 0,0 mm 2,3 km/h (1 Bft) N 355 ° 1 min 0,000 mm 6,8 UV-I 879 W/m² 14,1 °C 25,3 °C 6,4 km/h (2 Bft)
05.06.2019 12:19 25,4 °C 48 % 1004,6 hPa 0,0 mm 5,6 km/h (1 Bft) NO 37 ° 1 min 0,000 mm 6,8 UV-I 879 W/m² 13,6 °C 25,4 °C 8,0 km/h (2 Bft)
05.06.2019 12:20 25,5 °C 47 % 1004,6 hPa 0,0 mm 4,9 km/h (1 Bft) N-NO 17 ° 1 min 0,000 mm 6,8 UV-I 879 W/m² 13,3 °C 25,5 °C 8,0 km/h (2 Bft)
05.06.2019 12:21 25,6 °C 50 % 1004,6 hPa 0,0 mm 8,4 km/h (2 Bft) NW 316 ° 1 min 0,000 mm 6,8 UV-I 879 W/m² 14,4 °C 25,6 °C 12,9 km/h (3 Bft)
05.06.2019 12:22 25,6 °C 50 % 1004,6 hPa 0,0 mm 4,3 km/h (1 Bft) NW 325 ° 1 min 0,000 mm 6,8 UV-I 879 W/m² 14,4 °C 25,6 °C 6,4 km/h (2 Bft)
05.06.2019 12:23 25,7 °C 49 % 1004,6 hPa 0,0 mm 1,5 km/h (1 Bft) NW 326 ° 1 min 0,000 mm 6,8 UV-I 879 W/m² 14,2 °C 25,7 °C 3,2 km/h (1 Bft)
05.06.2019 12:24 25,7 °C 52 % 1004,6 hPa 0,0 mm 2,1 km/h (1 Bft) NW 319 ° 1 min 0,000 mm 6,8 UV-I 879 W/m² 15,1 °C 25,7 °C 3,2 km/h (1 Bft)
05.06.2019 12:25 25,8 °C 49 % 1004,6 hPa 0,0 mm 3,1 km/h (1 Bft) W-NW 290 ° 1 min 0,000 mm 6,8 UV-I 882 W/m² 14,3 °C 25,8 °C 4,8 km/h (1 Bft)
05.06.2019 12:26 25,7 °C 47 % 1004,6 hPa 0,0 mm 1,1 km/h (1 Bft) W-NW 291 ° 1 min 0,000 mm 6,8 UV-I 881 W/m² 13,5 °C 25,7 °C 3,2 km/h (1 Bft)
05.06.2019 12:27 25,7 °C 48 % 1004,6 hPa 0,0 mm 1,9 km/h (1 Bft) N-NW 340 ° 1 min 0,000 mm 6,8 UV-I 882 W/m² 13,9 °C 25,7 °C 4,8 km/h (1 Bft)
05.06.2019 12:28 25,8 °C 53 % 1004,6 hPa 0,0 mm 4,1 km/h (1 Bft) O 82 ° 1 min 0,000 mm 6,8 UV-I 884 W/m² 15,5 °C 25,8 °C 6,4 km/h (2 Bft)
05.06.2019 12:29 25,9 °C 49 % 1004,6 hPa 0,0 mm 4,4 km/h (1 Bft) N-NO 15 ° 1 min 0,000 mm 6,9 UV-I 888 W/m² 14,4 °C 25,9 °C 6,4 km/h (2 Bft)
05.06.2019 12:30 26,1 °C 50 % 1004,5 hPa 0,0 mm 5,2 km/h (1 Bft) N 355 ° 1 min 0,000 mm 6,9 UV-I 888 W/m² 14,8 °C 26,1 °C 8,0 km/h (2 Bft)
05.06.2019 12:31 26,1 °C 47 % 1004,5 hPa 0,0 mm 5,5 km/h (1 Bft) N 360 ° 1 min 0,000 mm 6,9 UV-I 886 W/m² 13,9 °C 26,1 °C 6,4 km/h (2 Bft)
05.06.2019 12:32 26,1 °C 44 % 1004,5 hPa 0,0 mm 2,6 km/h (1 Bft) N 360 ° 1 min 0,000 mm 6,9 UV-I 888 W/m² 12,9 °C 26,1 °C 4,8 km/h (1 Bft)
05.06.2019 12:33 26,1 °C 49 % 1004,5 hPa 0,0 mm 3,8 km/h (1 Bft) N-NO 32 ° 1 min 0,000 mm 6,9 UV-I 888 W/m² 14,5 °C 26,1 °C 4,8 km/h (1 Bft)
05.06.2019 12:34 26,1 °C 49 % 1004,5 hPa 0,0 mm 4,8 km/h (1 Bft) N-NO 24 ° 1 min 0,000 mm 6,9 UV-I 889 W/m² 14,5 °C 26,1 °C 8,0 km/h (2 Bft)
05.06.2019 12:35 26,1 °C 42 % 1004,5 hPa 0,0 mm 2,5 km/h (1 Bft) N-NO 24 ° 1 min 0,000 mm 6,9 UV-I 891 W/m² 12,2 °C 26,1 °C 4,8 km/h (1 Bft)
05.06.2019 12:36 26,1 °C 45 % 1004,5 hPa 0,0 mm 1,6 km/h (1 Bft) N-NO 24 ° 1 min 0,000 mm 6,9 UV-I 893 W/m² 13,2 °C 26,1 °C 3,2 km/h (1 Bft)
05.06.2019 12:37 26,1 °C 55 % 1004,5 hPa 0,0 mm 2,5 km/h (1 Bft) NO 40 ° 1 min 0,000 mm 6,9 UV-I 893 W/m² 16,3 °C 26,1 °C 4,8 km/h (1 Bft)
05.06.2019 12:38 26,1 °C 44 % 1004,4 hPa 0,0 mm 3,2 km/h (1 Bft) O 99 ° 1 min 0,000 mm 6,9 UV-I 893 W/m² 12,9 °C 26,1 °C 4,8 km/h (1 Bft)
05.06.2019 12:39 25,9 °C 44 % 1004,5 hPa 0,0 mm 4,1 km/h (1 Bft) O 100 ° 1 min 0,000 mm 6,9 UV-I 895 W/m² 12,7 °C 25,9 °C 6,4 km/h (2 Bft)
05.06.2019 12:40 25,8 °C 44 % 1004,5 hPa 0,0 mm 2,7 km/h (1 Bft) N-NO 19 ° 1 min 0,000 mm 6,9 UV-I 893 W/m² 12,6 °C 25,8 °C 8,0 km/h (2 Bft)
05.06.2019 12:41 25,8 °C 45 % 1004,4 hPa 0,0 mm 8,6 km/h (2 Bft) N-NO 13 ° 1 min 0,000 mm 7,0 UV-I 896 W/m² 13,0 °C 25,8 °C 12,9 km/h (3 Bft)
05.06.2019 12:42 25,8 °C 46 % 1004,4 hPa 0,0 mm 4,1 km/h (1 Bft) N-NO 13 ° 1 min 0,000 mm 7,0 UV-I 896 W/m² 13,3 °C 25,8 °C 6,4 km/h (2 Bft)
05.06.2019 12:43 25,9 °C 46 % 1004,4 hPa 0,0 mm 4,1 km/h (1 Bft) NO 34 ° 1 min 0,000 mm 7,0 UV-I 900 W/m² 13,4 °C 25,9 °C 4,8 km/h (1 Bft)
05.06.2019 12:44 26,0 °C 46 % 1004,4 hPa 0,0 mm 3,3 km/h (1 Bft) N 5 ° 1 min 0,000 mm 7,0 UV-I 900 W/m² 13,5 °C 26,0 °C 4,8 km/h (1 Bft)
05.06.2019 12:45 26,0 °C 47 % 1004,4 hPa 0,0 mm 1,4 km/h (1 Bft) N 5 ° 1 min 0,000 mm 7,0 UV-I 900 W/m² 13,8 °C 26,0 °C 3,2 km/h (1 Bft)
05.06.2019 12:46 25,9 °C 45 % 1004,4 hPa 0,0 mm 1,1 km/h (1 Bft) N 5 ° 1 min 0,000 mm 7,0 UV-I 900 W/m² 13,0 °C 25,9 °C 1,6 km/h (1 Bft)
05.06.2019 12:47 25,9 °C 46 % 1004,4 hPa 0,0 mm 0,4 km/h (0 Bft) N 5 ° 1 min 0,000 mm 7,0 UV-I 900 W/m² 13,4 °C 25,9 °C 1,6 km/h (1 Bft)
05.06.2019 12:48 25,8 °C 46 % 1004,3 hPa 0,0 mm 1,2 km/h (1 Bft) N 5 ° 1 min 0,000 mm 7,0 UV-I 900 W/m² 13,3 °C 25,8 °C 1,6 km/h (1 Bft)
05.06.2019 12:49 25,8 °C 45 % 1004,3 hPa 0,0 mm 0,4 km/h (0 Bft) N 5 ° 1 min 0,000 mm 7,0 UV-I 896 W/m² 13,0 °C 25,8 °C 1,6 km/h (1 Bft)
05.06.2019 12:50 25,8 °C 44 % 1004,3 hPa 0,0 mm 0,0 km/h (0 Bft) N 5 ° 1 min 0,000 mm 7,0 UV-I 900 W/m² 12,6 °C 25,8 °C 0,0 km/h (0 Bft)
05.06.2019 12:51 25,8 °C 51 % 1004,3 hPa 0,0 mm 0,0 km/h (0 Bft) N 5 ° 1 min 0,000 mm 7,0 UV-I 900 W/m² 14,9 °C 25,8 °C 0,0 km/h (0 Bft)
05.06.2019 12:52 25,8 °C 45 % 1004,3 hPa 0,0 mm 2,8 km/h (1 Bft) N 5 ° 1 min 0,000 mm 7,0 UV-I 900 W/m² 13,0 °C 25,8 °C 4,8 km/h (1 Bft)
05.06.2019 12:53 25,8 °C 46 % 1004,3 hPa 0,0 mm 1,9 km/h (1 Bft) N 5 ° 1 min 0,000 mm 7,0 UV-I 898 W/m² 13,3 °C 25,8 °C 3,2 km/h (1 Bft)
05.06.2019 12:54 25,8 °C 49 % 1004,2 hPa 0,0 mm 1,9 km/h (1 Bft) N 360 ° 1 min 0,000 mm 7,0 UV-I 896 W/m² 14,3 °C 25,8 °C 3,2 km/h (1 Bft)
05.06.2019 12:55 26,0 °C 49 % 1004,2 hPa 0,0 mm 1,1 km/h (1 Bft) N 360 ° 1 min 0,000 mm 7,0 UV-I 902 W/m² 14,4 °C 26,0 °C 1,6 km/h (1 Bft)
05.06.2019 12:56 26,1 °C 46 % 1004,2 hPa 0,0 mm 1,1 km/h (1 Bft) N-NO 32 ° 1 min 0,000 mm 7,1 UV-I 900 W/m² 13,6 °C 26,1 °C 3,2 km/h (1 Bft)
05.06.2019 12:57 26,1 °C 51 % 1004,2 hPa 0,0 mm 1,4 km/h (1 Bft) N-NO 32 ° 1 min 0,000 mm 7,0 UV-I 898 W/m² 15,2 °C 26,1 °C 3,2 km/h (1 Bft)
05.06.2019 12:58 26,2 °C 45 % 1004,2 hPa 0,0 mm 1,9 km/h (1 Bft) NO 38 ° 1 min 0,000 mm 7,1 UV-I 898 W/m² 13,3 °C 26,2 °C 3,2 km/h (1 Bft)
05.06.2019 12:59 26,2 °C 48 % 1004,2 hPa 0,0 mm 1,9 km/h (1 Bft) NO 38 ° 1 min 0,000 mm 7,1 UV-I 904 W/m² 14,3 °C 26,2 °C 4,8 km/h (1 Bft)
05.06.2019 13:00 26,1 °C 49 % 1004,2 hPa 0,0 mm 0,5 km/h (0 Bft) NO 40 ° 1 min 0,000 mm 7,1 UV-I 905 W/m² 14,5 °C 26,1 °C 3,2 km/h (1 Bft)
05.06.2019 13:01 26,0 °C 46 % 1004,2 hPa 0,0 mm 1,9 km/h (1 Bft) O 79 ° 1 min 0,585 mm 7,1 UV-I 905 W/m² 13,5 °C 26,0 °C 4,8 km/h (1 Bft)
05.06.2019 13:02 26,0 °C 48 % 1004,2 hPa 0,0 mm 1,1 km/h (1 Bft) W 273 ° 1 min 0,000 mm 7,1 UV-I 905 W/m² 14,1 °C 26,0 °C 4,8 km/h (1 Bft)
05.06.2019 13:03 26,1 °C 50 % 1004,2 hPa 0,0 mm 0,3 km/h (0 Bft) W 275 ° 1 min 0,000 mm 7,1 UV-I 902 W/m² 14,8 °C 26,1 °C 1,6 km/h (1 Bft)
05.06.2019 13:04 26,3 °C 49 % 1004,2 hPa 0,0 mm 3,0 km/h (1 Bft) N-NW 348 ° 1 min 0,000 mm 7,1 UV-I 898 W/m² 14,7 °C 26,3 °C 4,8 km/h (1 Bft)
05.06.2019 13:05 26,2 °C 47 % 1004,2 hPa 0,0 mm 1,8 km/h (1 Bft) N-NW 341 ° 1 min 0,000 mm 7,0 UV-I 896 W/m² 14,0 °C 26,2 °C 3,2 km/h (1 Bft)
05.06.2019 13:06 26,3 °C 53 % 1004,1 hPa 0,0 mm 2,7 km/h (1 Bft) N-NW 346 ° 1 min 0,000 mm 7,0 UV-I 891 W/m² 15,9 °C 26,3 °C 6,4 km/h (2 Bft)
05.06.2019 13:07 26,4 °C 49 % 1004,1 hPa 0,0 mm 4,7 km/h (1 Bft) NW 307 ° 1 min 0,000 mm 7,0 UV-I 895 W/m² 14,8 °C 26,4 °C 6,4 km/h (2 Bft)
05.06.2019 13:08 26,5 °C 46 % 1004,1 hPa 0,0 mm 4,0 km/h (1 Bft) W-NW 300 ° 1 min 0,000 mm 6,9 UV-I 889 W/m² 13,9 °C 26,5 °C 6,4 km/h (2 Bft)
05.06.2019 13:09 26,4 °C 45 % 1004,1 hPa 0,0 mm 2,6 km/h (1 Bft) W 276 ° 1 min 0,000 mm 6,9 UV-I 889 W/m² 13,5 °C 26,4 °C 4,8 km/h (1 Bft)
05.06.2019 13:10 26,4 °C 49 % 1004,1 hPa 0,0 mm 4,4 km/h (1 Bft) N-NW 327 ° 1 min 0,000 mm 6,9 UV-I 888 W/m² 14,8 °C 26,4 °C 8,0 km/h (2 Bft)
05.06.2019 13:11 26,4 °C 48 % 1004,1 hPa 0,0 mm 8,4 km/h (2 Bft) N 9 ° 1 min 0,000 mm 6,8 UV-I 882 W/m² 14,5 °C 26,4 °C 12,9 km/h (3 Bft)
05.06.2019 13:12 26,4 °C 48 % 1004,1 hPa 0,0 mm 5,1 km/h (1 Bft) O 88 ° 1 min 0,000 mm 6,9 UV-I 886 W/m² 14,5 °C 26,4 °C 8,0 km/h (2 Bft)
05.06.2019 13:13 26,3 °C 44 % 1004,1 hPa 0,0 mm 6,5 km/h (2 Bft) S-SO 153 ° 1 min 0,000 mm 6,9 UV-I 886 W/m² 13,1 °C 26,3 °C 8,0 km/h (2 Bft)
05.06.2019 13:14 26,1 °C 44 % 1004,1 hPa 0,0 mm 1,9 km/h (1 Bft) N-NW 339 ° 1 min 0,000 mm 6,9 UV-I 893 W/m² 12,9 °C 26,1 °C 3,2 km/h (1 Bft)
05.06.2019 13:15 26,1 °C 52 % 1004,0 hPa 0,0 mm 4,1 km/h (1 Bft) NW 308 ° 1 min 0,000 mm 7,0 UV-I 896 W/m² 15,5 °C 26,1 °C 6,4 km/h (2 Bft)
05.06.2019 13:16 26,2 °C 51 % 1004,0 hPa 0,0 mm 0,3 km/h (0 Bft) NW 309 ° 1 min 0,000 mm 7,0 UV-I 896 W/m² 15,2 °C 26,2 °C 1,6 km/h (1 Bft)
05.06.2019 13:17 26,3 °C 48 % 1004,0 hPa 0,0 mm 3,9 km/h (1 Bft) W-NW 283 ° 1 min 0,000 mm 7,0 UV-I 896 W/m² 14,4 °C 26,3 °C 6,4 km/h (2 Bft)
05.06.2019 13:18 26,3 °C 46 % 1004,0 hPa 0,0 mm 2,1 km/h (1 Bft) N-NO 26 ° 1 min 0,000 mm 6,9 UV-I 893 W/m² 13,7 °C 26,3 °C 4,8 km/h (1 Bft)
05.06.2019 13:19 26,3 °C 49 % 1004,0 hPa 0,0 mm 2,2 km/h (1 Bft) N-NO 26 ° 1 min 0,000 mm 6,9 UV-I 891 W/m² 14,7 °C 26,3 °C 4,8 km/h (1 Bft)
05.06.2019 13:20 26,4 °C 47 % 1004,0 hPa 0,0 mm 0,7 km/h (0 Bft) N-NO 26 ° 1 min 0,000 mm 6,9 UV-I 889 W/m² 14,2 °C 26,4 °C 1,6 km/h (1 Bft)
05.06.2019 13:21 26,4 °C 47 % 1004,0 hPa 0,0 mm 1,4 km/h (1 Bft) N-NO 26 ° 1 min 0,000 mm 6,9 UV-I 889 W/m² 14,2 °C 26,4 °C 3,2 km/h (1 Bft)
05.06.2019 13:22 26,4 °C 47 % 1004,0 hPa 0,0 mm 3,6 km/h (1 Bft) N-NO 23 ° 1 min 0,000 mm 6,9 UV-I 889 W/m² 14,2 °C 26,4 °C 4,8 km/h (1 Bft)
05.06.2019 13:23 26,5 °C 48 % 1003,9 hPa 0,0 mm 1,5 km/h (1 Bft) N-NO 15 ° 1 min 0,000 mm 6,9 UV-I 889 W/m² 14,6 °C 26,5 °C 4,8 km/h (1 Bft)
05.06.2019 13:24 26,6 °C 49 % 1003,9 hPa 0,0 mm 1,8 km/h (1 Bft) N-NO 19 ° 1 min 0,000 mm 6,9 UV-I 896 W/m² 15,0 °C 26,6 °C 3,2 km/h (1 Bft)
05.06.2019 13:25 26,6 °C 48 % 1003,9 hPa 0,0 mm 2,5 km/h (1 Bft) O-NO 57 ° 1 min 0,000 mm 7,1 UV-I 902 W/m² 14,7 °C 26,6 °C 4,8 km/h (1 Bft)
05.06.2019 13:26 26,7 °C 45 % 1003,9 hPa 0,0 mm 4,2 km/h (1 Bft) O-NO 69 ° 1 min 0,000 mm 7,1 UV-I 905 W/m² 13,8 °C 26,7 °C 6,4 km/h (2 Bft)
05.06.2019 13:27 26,7 °C 42 % 1003,8 hPa 0,0 mm 2,0 km/h (1 Bft) S-SO 148 ° 1 min 0,000 mm 7,0 UV-I 900 W/m² 12,7 °C 26,7 °C 3,2 km/h (1 Bft)
05.06.2019 13:28 26,7 °C 42 % 1003,9 hPa 0,0 mm 6,4 km/h (2 Bft) O-NO 61 ° 1 min 0,000 mm 7,0 UV-I 900 W/m² 12,7 °C 26,7 °C 12,9 km/h (3 Bft)
05.06.2019 13:29 26,7 °C 42 % 1003,9 hPa 0,0 mm 6,4 km/h (2 Bft) NO 51 ° 1 min 0,000 mm 6,9 UV-I 896 W/m² 12,7 °C 26,7 °C 9,7 km/h (2 Bft)
05.06.2019 13:30 26,7 °C 45 % 1003,8 hPa 0,0 mm 7,6 km/h (2 Bft) O 81 ° 1 min 0,000 mm 6,9 UV-I 893 W/m² 13,8 °C 26,7 °C 11,3 km/h (2 Bft)
05.06.2019 13:31 26,7 °C 50 % 1003,8 hPa 0,0 mm 5,4 km/h (1 Bft) O-SO 112 ° 1 min 0,000 mm 6,9 UV-I 891 W/m² 15,4 °C 26,7 °C 9,7 km/h (2 Bft)
05.06.2019 13:32 26,7 °C 44 % 1003,9 hPa 0,0 mm 5,3 km/h (1 Bft) N-NO 18 ° 1 min 0,000 mm 6,9 UV-I 889 W/m² 13,4 °C 26,7 °C 11,3 km/h (2 Bft)
05.06.2019 13:33 26,7 °C 44 % 1003,9 hPa 0,0 mm 7,0 km/h (2 Bft) N 9 ° 1 min 0,000 mm 6,9 UV-I 889 W/m² 13,4 °C 26,7 °C 9,7 km/h (2 Bft)
05.06.2019 13:34 26,8 °C 46 % 1003,9 hPa 0,0 mm 4,8 km/h (1 Bft) O-NO 70 ° 1 min 0,000 mm 6,9 UV-I 891 W/m² 14,2 °C 26,8 °C 6,4 km/h (2 Bft)
05.06.2019 13:35 26,8 °C 46 % 1003,9 hPa 0,0 mm 3,3 km/h (1 Bft) NO 44 ° 1 min 0,000 mm 6,9 UV-I 888 W/m² 14,2 °C 26,8 °C 6,4 km/h (2 Bft)
05.06.2019 13:36 26,8 °C 44 % 1003,8 hPa 0,0 mm 3,4 km/h (1 Bft) N 350 ° 1 min 0,000 mm 6,8 UV-I 886 W/m² 13,5 °C 26,8 °C 6,4 km/h (2 Bft)
05.06.2019 13:37 26,7 °C 45 % 1003,8 hPa 0,0 mm 4,1 km/h (1 Bft) N-NO 24 ° 1 min 0,000 mm 6,8 UV-I 884 W/m² 13,8 °C 26,7 °C 6,4 km/h (2 Bft)
05.06.2019 13:38 26,7 °C 44 % 1003,8 hPa 0,0 mm 2,1 km/h (1 Bft) N-NW 344 ° 1 min 0,000 mm 6,8 UV-I 886 W/m² 13,4 °C 26,7 °C 4,8 km/h (1 Bft)
05.06.2019 13:39 26,7 °C 47 % 1003,8 hPa 0,0 mm 4,2 km/h (1 Bft) N 9 ° 1 min 0,000 mm 6,8 UV-I 886 W/m² 14,4 °C 26,7 °C 4,8 km/h (1 Bft)
05.06.2019 13:40 26,8 °C 44 % 1003,8 hPa 0,0 mm 3,0 km/h (1 Bft) N 5 ° 1 min 0,000 mm 6,8 UV-I 886 W/m² 13,5 °C 26,8 °C 4,8 km/h (1 Bft)
05.06.2019 13:41 26,8 °C 46 % 1003,8 hPa 0,0 mm 4,5 km/h (1 Bft) N 5 ° 1 min 0,000 mm 6,8 UV-I 884 W/m² 14,2 °C 26,8 °C 6,4 km/h (2 Bft)
05.06.2019 13:42 26,8 °C 48 % 1003,8 hPa 0,0 mm 5,0 km/h (1 Bft) N-NO 24 ° 1 min 0,000 mm 6,8 UV-I 886 W/m² 14,9 °C 26,8 °C 8,0 km/h (2 Bft)
05.06.2019 13:43 26,8 °C 44 % 1003,7 hPa 0,0 mm 3,4 km/h (1 Bft) O-NO 72 ° 1 min 0,000 mm 6,8 UV-I 886 W/m² 13,5 °C 26,8 °C 4,8 km/h (1 Bft)
05.06.2019 13:44 26,7 °C 47 % 1003,7 hPa 0,0 mm 5,2 km/h (1 Bft) O-NO 76 ° 1 min 0,000 mm 6,8 UV-I 884 W/m² 14,4 °C 26,7 °C 8,0 km/h (2 Bft)
05.06.2019 13:45 26,7 °C 45 % 1003,8 hPa 0,0 mm 4,3 km/h (1 Bft) NO 46 ° 1 min 0,000 mm 6,8 UV-I 881 W/m² 13,8 °C 26,7 °C 6,4 km/h (2 Bft)
05.06.2019 13:46 26,8 °C 46 % 1003,7 hPa 0,0 mm 6,5 km/h (2 Bft) N-NO 29 ° 1 min 0,000 mm 6,8 UV-I 882 W/m² 14,2 °C 26,8 °C 9,7 km/h (2 Bft)
05.06.2019 13:47 26,8 °C 45 % 1003,7 hPa 0,0 mm 3,8 km/h (1 Bft) O-NO 75 ° 1 min 0,000 mm 6,8 UV-I 879 W/m² 13,9 °C 26,8 °C 6,4 km/h (2 Bft)
05.06.2019 13:48 26,8 °C 45 % 1003,7 hPa 0,0 mm 9,1 km/h (2 Bft) O 93 ° 1 min 0,000 mm 6,8 UV-I 881 W/m² 13,9 °C 26,8 °C 14,5 km/h (3 Bft)
05.06.2019 13:49 26,8 °C 47 % 1003,7 hPa 0,0 mm 4,1 km/h (1 Bft) O-NO 65 ° 1 min 0,000 mm 6,7 UV-I 877 W/m² 14,5 °C 26,8 °C 14,5 km/h (3 Bft)
05.06.2019 13:50 26,7 °C 46 % 1003,6 hPa 0,0 mm 6,6 km/h (2 Bft) O 93 ° 1 min 0,000 mm 6,7 UV-I 879 W/m² 14,1 °C 26,7 °C 11,3 km/h (2 Bft)
05.06.2019 13:51 26,6 °C 50 % 1003,6 hPa 0,0 mm 2,5 km/h (1 Bft) O-SO 117 ° 1 min 0,000 mm 6,7 UV-I 875 W/m² 15,3 °C 26,6 °C 6,4 km/h (2 Bft)
05.06.2019 13:52 26,6 °C 47 % 1003,6 hPa 0,0 mm 4,4 km/h (1 Bft) O-SO 102 ° 1 min 0,000 mm 6,7 UV-I 874 W/m² 14,3 °C 26,6 °C 6,4 km/h (2 Bft)
05.06.2019 13:53 26,7 °C 46 % 1003,6 hPa 0,0 mm 6,0 km/h (2 Bft) O 95 ° 1 min 0,000 mm 6,7 UV-I 872 W/m² 14,1 °C 26,7 °C 14,5 km/h (3 Bft)
05.06.2019 13:54 26,7 °C 48 % 1003,7 hPa 0,0 mm 7,9 km/h (2 Bft) N-NO 27 ° 1 min 0,000 mm 6,7 UV-I 874 W/m² 14,8 °C 26,7 °C 12,9 km/h (3 Bft)
05.06.2019 13:55 26,7 °C 46 % 1003,6 hPa 0,0 mm 5,9 km/h (2 Bft) NO 36 ° 1 min 0,000 mm 6,7 UV-I 874 W/m² 14,1 °C 26,7 °C 8,0 km/h (2 Bft)
05.06.2019 13:56 26,8 °C 47 % 1003,6 hPa 0,0 mm 6,0 km/h (2 Bft) O-NO 58 ° 1 min 0,000 mm 6,7 UV-I 875 W/m² 14,5 °C 26,8 °C 11,3 km/h (2 Bft)
05.06.2019 13:57 26,8 °C 48 % 1003,6 hPa 0,0 mm 7,5 km/h (2 Bft) NO 51 ° 1 min 0,000 mm 6,7 UV-I 877 W/m² 14,9 °C 26,8 °C 12,9 km/h (3 Bft)
05.06.2019 13:58 26,8 °C 46 % 1003,6 hPa 0,0 mm 7,1 km/h (2 Bft) NO 48 ° 1 min 0,000 mm 6,7 UV-I 875 W/m² 14,2 °C 26,8 °C 11,3 km/h (2 Bft)
05.06.2019 13:59 26,9 °C 47 % 1003,5 hPa 0,0 mm 6,3 km/h (2 Bft) NO 36 ° 1 min 0,000 mm 6,7 UV-I 877 W/m² 14,6 °C 26,9 °C 8,0 km/h (2 Bft)
05.06.2019 14:00 26,9 °C 45 % 1003,5 hPa 0,0 mm 6,6 km/h (2 Bft) O 80 ° 1 min 0,000 mm 6,7 UV-I 875 W/m² 13,9 °C 26,9 °C 12,9 km/h (3 Bft)
05.06.2019 14:01 27,0 °C 46 % 1003,6 hPa 0,0 mm 8,0 km/h (2 Bft) NO 36 ° 1 min 0,609 mm 6,6 UV-I 872 W/m² 14,4 °C 27,0 °C 11,3 km/h (2 Bft)
05.06.2019 14:02 26,9 °C 45 % 1003,5 hPa 0,0 mm 6,9 km/h (2 Bft) O-NO 71 ° 1 min 0,000 mm 6,7 UV-I 875 W/m² 13,9 °C 26,9 °C 12,9 km/h (3 Bft)
05.06.2019 14:03 26,8 °C 45 % 1003,5 hPa 0,0 mm 11,9 km/h (2 Bft) O-NO 59 ° 1 min 0,000 mm 6,7 UV-I 877 W/m² 13,9 °C 26,8 °C 17,7 km/h (3 Bft)
05.06.2019 14:04 26,8 °C 49 % 1003,5 hPa 0,0 mm 7,9 km/h (2 Bft) O 84 ° 1 min 0,000 mm 6,7 UV-I 877 W/m² 15,2 °C 26,8 °C 14,5 km/h (3 Bft)
05.06.2019 14:05 26,8 °C 46 % 1003,5 hPa 0,0 mm 11,3 km/h (2 Bft) NO 56 ° 1 min 0,000 mm 6,7 UV-I 877 W/m² 14,2 °C 26,8 °C 16,1 km/h (3 Bft)
05.06.2019 14:06 26,7 °C 47 % 1003,5 hPa 0,0 mm 7,6 km/h (2 Bft) NO 45 ° 1 min 0,000 mm 6,7 UV-I 879 W/m² 14,4 °C 26,7 °C 9,7 km/h (2 Bft)
05.06.2019 14:07 26,6 °C 46 % 1003,5 hPa 0,0 mm 8,2 km/h (2 Bft) NO 55 ° 1 min 0,000 mm 6,7 UV-I 877 W/m² 14,0 °C 26,6 °C 11,3 km/h (2 Bft)
05.06.2019 14:08 26,7 °C 46 % 1003,5 hPa 0,0 mm 7,7 km/h (2 Bft) NO 53 ° 1 min 0,000 mm 6,7 UV-I 877 W/m² 14,1 °C 26,7 °C 9,7 km/h (2 Bft)
05.06.2019 14:09 26,8 °C 48 % 1003,4 hPa 0,0 mm 6,4 km/h (2 Bft) NO 34 ° 1 min 0,000 mm 6,7 UV-I 875 W/m² 14,9 °C 26,8 °C 9,7 km/h (2 Bft)
05.06.2019 14:10 26,7 °C 47 % 1003,4 hPa 0,0 mm 3,7 km/h (1 Bft) O-NO 60 ° 1 min 0,000 mm 6,6 UV-I 875 W/m² 14,4 °C 26,7 °C 9,7 km/h (2 Bft)
05.06.2019 14:11 26,6 °C 47 % 1003,5 hPa 0,0 mm 8,4 km/h (2 Bft) O 91 ° 1 min 0,000 mm 6,6 UV-I 870 W/m² 14,3 °C 26,6 °C 14,5 km/h (3 Bft)
05.06.2019 14:12 26,6 °C 48 % 1003,4 hPa 0,0 mm 12,0 km/h (2 Bft) O-NO 74 ° 1 min 0,000 mm 6,6 UV-I 867 W/m² 14,7 °C 26,6 °C 16,1 km/h (3 Bft)
05.06.2019 14:13 26,5 °C 47 % 1003,4 hPa 0,0 mm 8,3 km/h (2 Bft) O-NO 73 ° 1 min 0,000 mm 6,6 UV-I 867 W/m² 14,3 °C 26,5 °C 12,9 km/h (3 Bft)
05.06.2019 14:14 26,4 °C 47 % 1003,4 hPa 0,0 mm 6,1 km/h (2 Bft) O-NO 75 ° 1 min 0,000 mm 6,6 UV-I 867 W/m² 14,2 °C 26,4 °C 11,3 km/h (2 Bft)
05.06.2019 14:15 26,4 °C 50 % 1003,4 hPa 0,0 mm 9,7 km/h (2 Bft) O-NO 59 ° 1 min 0,000 mm 6,5 UV-I 867 W/m² 15,1 °C 26,4 °C 19,3 km/h (3 Bft)
05.06.2019 14:16 26,4 °C 47 % 1003,3 hPa 0,0 mm 13,4 km/h (3 Bft) O-SO 111 ° 1 min 0,000 mm 6,5 UV-I 865 W/m² 14,2 °C 26,4 °C 20,9 km/h (4 Bft)
05.06.2019 14:17 26,3 °C 46 % 1003,3 hPa 0,0 mm 4,7 km/h (1 Bft) SW 217 ° 1 min 0,000 mm 6,5 UV-I 865 W/m² 13,7 °C 26,3 °C 11,3 km/h (2 Bft)
05.06.2019 14:18 26,3 °C 48 % 1003,3 hPa 0,0 mm 6,9 km/h (2 Bft) N-NO 21 ° 1 min 0,000 mm 6,5 UV-I 863 W/m² 14,4 °C 26,3 °C 11,3 km/h (2 Bft)
05.06.2019 14:19 26,5 °C 48 % 1003,3 hPa 0,0 mm 6,4 km/h (2 Bft) N-NW 348 ° 1 min 0,000 mm 6,5 UV-I 863 W/m² 14,6 °C 26,5 °C 8,0 km/h (2 Bft)
05.06.2019 14:20 26,6 °C 48 % 1003,3 hPa 0,0 mm 10,5 km/h (2 Bft) N 5 ° 1 min 0,000 mm 6,5 UV-I 863 W/m² 14,7 °C 26,6 °C 14,5 km/h (3 Bft)
05.06.2019 14:21 26,7 °C 46 % 1003,3 hPa 0,0 mm 7,3 km/h (2 Bft) N-NO 33 ° 1 min 0,000 mm 6,5 UV-I 861 W/m² 14,1 °C 26,7 °C 11,3 km/h (2 Bft)
05.06.2019 14:22 26,7 °C 46 % 1003,3 hPa 0,0 mm 9,1 km/h (2 Bft) O-NO 69 ° 1 min 0,000 mm 6,5 UV-I 861 W/m² 14,1 °C 26,7 °C 17,7 km/h (3 Bft)
05.06.2019 14:23 26,7 °C 44 % 1003,3 hPa 0,0 mm 8,8 km/h (2 Bft) O-SO 106 ° 1 min 0,000 mm 6,5 UV-I 861 W/m² 13,4 °C 26,7 °C 14,5 km/h (3 Bft)
05.06.2019 14:24 26,7 °C 45 % 1003,3 hPa 0,0 mm 5,7 km/h (1 Bft) O 82 ° 1 min 0,000 mm 6,5 UV-I 860 W/m² 13,8 °C 26,7 °C 11,3 km/h (2 Bft)
05.06.2019 14:25 26,7 °C 43 % 1003,2 hPa 0,0 mm 5,7 km/h (1 Bft) O-SO 111 ° 1 min 0,000 mm 6,5 UV-I 860 W/m² 13,1 °C 26,7 °C 11,3 km/h (2 Bft)
05.06.2019 14:26 26,6 °C 47 % 1003,3 hPa 0,0 mm 5,4 km/h (1 Bft) O-NO 58 ° 1 min 0,000 mm 6,5 UV-I 860 W/m² 14,3 °C 26,6 °C 8,0 km/h (2 Bft)
05.06.2019 14:27 26,6 °C 42 % 1003,2 hPa 0,0 mm 8,0 km/h (2 Bft) N-NO 32 ° 1 min 0,000 mm 6,5 UV-I 860 W/m² 12,6 °C 26,6 °C 16,1 km/h (3 Bft)
05.06.2019 14:28 26,6 °C 42 % 1003,2 hPa 0,0 mm 5,2 km/h (1 Bft) N-NO 25 ° 1 min 0,000 mm 6,5 UV-I 858 W/m² 12,6 °C 26,6 °C 9,7 km/h (2 Bft)
05.06.2019 14:29 26,6 °C 45 % 1003,2 hPa 0,0 mm 6,7 km/h (2 Bft) NO 44 ° 1 min 0,000 mm 6,4 UV-I 856 W/m² 13,7 °C 26,6 °C 12,9 km/h (3 Bft)
05.06.2019 14:30 26,7 °C 46 % 1003,1 hPa 0,0 mm 6,4 km/h (2 Bft) NO 43 ° 1 min 0,000 mm 6,4 UV-I 854 W/m² 14,1 °C 26,7 °C 9,7 km/h (2 Bft)
05.06.2019 14:31 26,7 °C 47 % 1003,3 hPa 0,0 mm 11,0 km/h (2 Bft) NO 52 ° 1 min 0,000 mm 6,4 UV-I 853 W/m² 14,4 °C 26,7 °C 16,1 km/h (3 Bft)
05.06.2019 14:32 26,7 °C 44 % 1003,2 hPa 0,0 mm 8,4 km/h (2 Bft) N 11 ° 1 min 0,000 mm 6,4 UV-I 853 W/m² 13,4 °C 26,7 °C 17,7 km/h (3 Bft)
05.06.2019 14:33 26,7 °C 44 % 1003,1 hPa 0,0 mm 10,4 km/h (2 Bft) O 90 ° 1 min 0,000 mm 6,4 UV-I 851 W/m² 13,4 °C 26,7 °C 14,5 km/h (3 Bft)
05.06.2019 14:34 26,7 °C 46 % 1003,1 hPa 0,0 mm 8,4 km/h (2 Bft) O-NO 63 ° 1 min 0,000 mm 6,3 UV-I 847 W/m² 14,1 °C 26,7 °C 17,7 km/h (3 Bft)
05.06.2019 14:35 26,7 °C 45 % 1003,1 hPa 0,0 mm 4,4 km/h (1 Bft) O-NO 64 ° 1 min 0,000 mm 6,3 UV-I 846 W/m² 13,8 °C 26,7 °C 9,7 km/h (2 Bft)
05.06.2019 14:36 26,7 °C 44 % 1003,1 hPa 0,0 mm 6,0 km/h (2 Bft) N-NO 17 ° 1 min 0,000 mm 6,3 UV-I 844 W/m² 13,4 °C 26,7 °C 11,3 km/h (2 Bft)
05.06.2019 14:37 26,7 °C 47 % 1003,1 hPa 0,0 mm 4,7 km/h (1 Bft) NO 51 ° 1 min 0,000 mm 6,2 UV-I 844 W/m² 14,4 °C 26,7 °C 8,0 km/h (2 Bft)
05.06.2019 14:38 26,7 °C 44 % 1003,1 hPa 0,0 mm 9,3 km/h (2 Bft) N-NO 28 ° 1 min 0,000 mm 6,2 UV-I 842 W/m² 13,4 °C 26,7 °C 12,9 km/h (3 Bft)
05.06.2019 14:39 26,7 °C 48 % 1003,1 hPa 0,0 mm 7,6 km/h (2 Bft) N-NO 30 ° 1 min 0,000 mm 6,2 UV-I 840 W/m² 14,8 °C 26,7 °C 12,9 km/h (3 Bft)
05.06.2019 14:40 26,7 °C 47 % 1003,1 hPa 0,0 mm 7,8 km/h (2 Bft) O-NO 62 ° 1 min 0,000 mm 6,2 UV-I 840 W/m² 14,4 °C 26,7 °C 11,3 km/h (2 Bft)
05.06.2019 14:41 26,7 °C 46 % 1003,1 hPa 0,0 mm 4,2 km/h (1 Bft) NO 49 ° 1 min 0,000 mm 6,2 UV-I 835 W/m² 14,1 °C 26,7 °C 9,7 km/h (2 Bft)
05.06.2019 14:42 26,7 °C 45 % 1003,1 hPa 0,0 mm 8,6 km/h (2 Bft) O-NO 78 ° 1 min 0,000 mm 6,1 UV-I 833 W/m² 13,8 °C 26,7 °C 14,5 km/h (3 Bft)
05.06.2019 14:43 26,6 °C 45 % 1003,1 hPa 0,0 mm 7,7 km/h (2 Bft) N 355 ° 1 min 0,000 mm 6,1 UV-I 833 W/m² 13,7 °C 26,6 °C 12,9 km/h (3 Bft)
05.06.2019 14:44 26,6 °C 47 % 1003,0 hPa 0,0 mm 10,0 km/h (2 Bft) N-NO 12 ° 1 min 0,000 mm 6,1 UV-I 833 W/m² 14,3 °C 26,6 °C 20,9 km/h (4 Bft)
05.06.2019 14:45 26,6 °C 47 % 1003,0 hPa 0,0 mm 7,3 km/h (2 Bft) NO 43 ° 1 min 0,000 mm 6,1 UV-I 833 W/m² 14,3 °C 26,6 °C 11,3 km/h (2 Bft)
05.06.2019 14:46 26,6 °C 45 % 1002,9 hPa 0,0 mm 4,4 km/h (1 Bft) NO 52 ° 1 min 0,000 mm 6,1 UV-I 830 W/m² 13,7 °C 26,6 °C 8,0 km/h (2 Bft)
05.06.2019 14:47 26,6 °C 45 % 1002,9 hPa 0,0 mm 1,2 km/h (1 Bft) NO 46 ° 1 min 0,000 mm 6,1 UV-I 828 W/m² 13,7 °C 26,6 °C 4,8 km/h (1 Bft)
05.06.2019 14:48 26,7 °C 48 % 1002,9 hPa 0,0 mm 2,5 km/h (1 Bft) NO 34 ° 1 min 0,000 mm 6,1 UV-I 828 W/m² 14,8 °C 26,7 °C 4,8 km/h (1 Bft)
05.06.2019 14:49 26,8 °C 49 % 1002,9 hPa 0,0 mm 3,1 km/h (1 Bft) O-NO 57 ° 1 min 0,000 mm 6,0 UV-I 826 W/m² 15,2 °C 26,8 °C 6,4 km/h (2 Bft)
05.06.2019 14:50 26,9 °C 48 % 1002,9 hPa 0,0 mm 4,3 km/h (1 Bft) O-NO 74 ° 1 min 0,000 mm 6,0 UV-I 828 W/m² 14,9 °C 26,9 °C 6,4 km/h (2 Bft)
05.06.2019 14:51 26,9 °C 46 % 1002,9 hPa 0,0 mm 6,0 km/h (2 Bft) O 81 ° 1 min 0,000 mm 6,0 UV-I 823 W/m² 14,3 °C 26,9 °C 9,7 km/h (2 Bft)
05.06.2019 14:52 26,9 °C 46 % 1002,9 hPa 0,0 mm 7,3 km/h (2 Bft) O-NO 59 ° 1 min 0,000 mm 6,0 UV-I 819 W/m² 14,3 °C 26,9 °C 12,9 km/h (3 Bft)
05.06.2019 14:53 26,9 °C 44 % 1002,8 hPa 0,0 mm 5,7 km/h (1 Bft) NO 36 ° 1 min 0,000 mm 5,9 UV-I 816 W/m² 13,6 °C 26,9 °C 11,3 km/h (2 Bft)
05.06.2019 14:54 26,8 °C 45 % 1002,9 hPa 0,0 mm 4,5 km/h (1 Bft) O-SO 105 ° 1 min 0,000 mm 5,9 UV-I 814 W/m² 13,9 °C 26,8 °C 6,4 km/h (2 Bft)
05.06.2019 14:55 26,8 °C 46 % 1002,8 hPa 0,0 mm 8,5 km/h (2 Bft) O-NO 61 ° 1 min 0,000 mm 5,9 UV-I 812 W/m² 14,2 °C 26,8 °C 11,3 km/h (2 Bft)
05.06.2019 14:56 26,7 °C 44 % 1002,8 hPa 0,0 mm 5,1 km/h (1 Bft) O-NO 59 ° 1 min 0,000 mm 5,9 UV-I 812 W/m² 13,4 °C 26,7 °C 8,0 km/h (2 Bft)
05.06.2019 14:57 26,7 °C 45 % 1002,8 hPa 0,0 mm 2,5 km/h (1 Bft) O-NO 59 ° 1 min 0,000 mm 5,9 UV-I 810 W/m² 13,8 °C 26,7 °C 3,2 km/h (1 Bft)
05.06.2019 14:58 26,6 °C 45 % 1002,8 hPa 0,0 mm 2,3 km/h (1 Bft) O 81 ° 1 min 0,000 mm 5,9 UV-I 809 W/m² 13,7 °C 26,6 °C 4,8 km/h (1 Bft)
05.06.2019 14:59 26,6 °C 44 % 1002,8 hPa 0,0 mm 5,6 km/h (1 Bft) NO 47 ° 1 min 0,000 mm 5,8 UV-I 807 W/m² 13,3 °C 26,6 °C 8,0 km/h (2 Bft)
05.06.2019 15:00 26,6 °C 45 % 1002,8 hPa 0,0 mm 9,0 km/h (2 Bft) NO 49 ° 1 min 0,000 mm 5,8 UV-I 809 W/m² 13,7 °C 26,6 °C 16,1 km/h (3 Bft)
05.06.2019 15:01 26,6 °C 45 % 1002,8 hPa 0,0 mm 9,4 km/h (2 Bft) N 5 ° 1 min 0,610 mm 5,8 UV-I 809 W/m² 13,7 °C 26,6 °C 16,1 km/h (3 Bft)
05.06.2019 15:02 26,7 °C 46 % 1002,8 hPa 0,0 mm 7,6 km/h (2 Bft) O-NO 72 ° 1 min 0,000 mm 5,8 UV-I 807 W/m² 14,1 °C 26,7 °C 12,9 km/h (3 Bft)
05.06.2019 15:03 26,8 °C 46 % 1002,8 hPa 0,0 mm 6,7 km/h (2 Bft) NO 54 ° 1 min 0,000 mm 5,8 UV-I 807 W/m² 14,2 °C 26,8 °C 14,5 km/h (3 Bft)
05.06.2019 15:04 26,8 °C 47 % 1002,8 hPa 0,0 mm 8,2 km/h (2 Bft) O-SO 119 ° 1 min 0,000 mm 5,8 UV-I 805 W/m² 14,5 °C 26,8 °C 12,9 km/h (3 Bft)
05.06.2019 15:05 26,8 °C 44 % 1002,7 hPa 0,0 mm 0,8 km/h (0 Bft) S 172 ° 1 min 0,000 mm 5,8 UV-I 805 W/m² 13,5 °C 26,8 °C 3,2 km/h (1 Bft)
05.06.2019 15:06 26,8 °C 44 % 1002,7 hPa 0,0 mm 3,7 km/h (1 Bft) O-NO 67 ° 1 min 0,000 mm 5,7 UV-I 802 W/m² 13,5 °C 26,8 °C 8,0 km/h (2 Bft)
05.06.2019 15:07 26,8 °C 44 % 1002,8 hPa 0,0 mm 10,2 km/h (2 Bft) O 84 ° 1 min 0,000 mm 5,7 UV-I 802 W/m² 13,5 °C 26,8 °C 14,5 km/h (3 Bft)
05.06.2019 15:08 26,7 °C 44 % 1002,7 hPa 0,0 mm 3,7 km/h (1 Bft) NO 55 ° 1 min 0,000 mm 5,7 UV-I 800 W/m² 13,4 °C 26,7 °C 6,4 km/h (2 Bft)
05.06.2019 15:09 26,7 °C 43 % 1002,7 hPa 0,0 mm 4,1 km/h (1 Bft) SO 131 ° 1 min 0,000 mm 5,7 UV-I 796 W/m² 13,1 °C 26,7 °C 6,4 km/h (2 Bft)
05.06.2019 15:10 26,7 °C 44 % 1002,6 hPa 0,0 mm 5,6 km/h (1 Bft) O-NO 57 ° 1 min 0,000 mm 5,7 UV-I 793 W/m² 13,4 °C 26,7 °C 9,7 km/h (2 Bft)
05.06.2019 15:11 26,7 °C 48 % 1002,6 hPa 0,0 mm 8,8 km/h (2 Bft) O-NO 59 ° 1 min 0,000 mm 5,7 UV-I 793 W/m² 14,8 °C 26,7 °C 14,5 km/h (3 Bft)
05.06.2019 15:12 26,8 °C 44 % 1002,6 hPa 0,0 mm 7,6 km/h (2 Bft) O 84 ° 1 min 0,000 mm 5,6 UV-I 793 W/m² 13,5 °C 26,8 °C 12,9 km/h (3 Bft)
05.06.2019 15:13 26,8 °C 48 % 1002,6 hPa 0,0 mm 7,8 km/h (2 Bft) NO 49 ° 1 min 0,000 mm 5,7 UV-I 795 W/m² 14,9 °C 26,8 °C 11,3 km/h (2 Bft)
05.06.2019 15:14 26,8 °C 43 % 1002,6 hPa 0,0 mm 6,2 km/h (2 Bft) O 83 ° 1 min 0,000 mm 5,7 UV-I 795 W/m² 13,2 °C 26,8 °C 12,9 km/h (3 Bft)
05.06.2019 15:15 26,8 °C 44 % 1002,6 hPa 0,0 mm 4,6 km/h (1 Bft) NO 54 ° 1 min 0,000 mm 5,6 UV-I 791 W/m² 13,5 °C 26,8 °C 6,4 km/h (2 Bft)
05.06.2019 15:16 26,8 °C 44 % 1002,5 hPa 0,0 mm 6,4 km/h (2 Bft) O 80 ° 1 min 0,000 mm 5,6 UV-I 791 W/m² 13,5 °C 26,8 °C 12,9 km/h (3 Bft)
05.06.2019 15:17 26,8 °C 44 % 1002,6 hPa 0,0 mm 9,7 km/h (2 Bft) N-NO 24 ° 1 min 0,000 mm 5,6 UV-I 788 W/m² 13,5 °C 26,8 °C 14,5 km/h (3 Bft)
05.06.2019 15:18 26,8 °C 44 % 1002,6 hPa 0,0 mm 5,7 km/h (1 Bft) NO 49 ° 1 min 0,000 mm 5,6 UV-I 786 W/m² 13,5 °C 26,8 °C 11,3 km/h (2 Bft)
05.06.2019 15:19 26,9 °C 43 % 1002,5 hPa 0,0 mm 10,1 km/h (2 Bft) S-SO 149 ° 1 min 0,000 mm 5,5 UV-I 786 W/m² 13,2 °C 26,9 °C 16,1 km/h (3 Bft)
05.06.2019 15:20 26,9 °C 42 % 1002,5 hPa 0,0 mm 7,0 km/h (2 Bft) O-NO 60 ° 1 min 0,000 mm 5,5 UV-I 782 W/m² 12,9 °C 26,9 °C 11,3 km/h (2 Bft)
05.06.2019 15:21 26,9 °C 41 % 1002,5 hPa 0,0 mm 5,0 km/h (1 Bft) N 11 ° 1 min 0,000 mm 5,5 UV-I 780 W/m² 12,5 °C 26,9 °C 11,3 km/h (2 Bft)
05.06.2019 15:22 26,9 °C 41 % 1002,5 hPa 0,0 mm 4,9 km/h (1 Bft) O-NO 64 ° 1 min 0,000 mm 5,5 UV-I 777 W/m² 12,5 °C 26,9 °C 8,0 km/h (2 Bft)
05.06.2019 15:23 27,0 °C 44 % 1002,5 hPa 0,0 mm 8,5 km/h (2 Bft) O-NO 76 ° 1 min 0,000 mm 5,5 UV-I 779 W/m² 13,7 °C 27,0 °C 14,5 km/h (3 Bft)
05.06.2019 15:24 27,1 °C 42 % 1002,5 hPa 0,0 mm 6,9 km/h (2 Bft) NO 56 ° 1 min 0,000 mm 5,5 UV-I 777 W/m² 13,1 °C 27,1 °C 12,9 km/h (3 Bft)
05.06.2019 15:25 27,1 °C 42 % 1002,5 hPa 0,0 mm 4,1 km/h (1 Bft) O 81 ° 1 min 0,000 mm 5,4 UV-I 775 W/m² 13,1 °C 27,1 °C 9,7 km/h (2 Bft)
05.06.2019 15:26 27,0 °C 42 % 1002,5 hPa 0,0 mm 9,8 km/h (2 Bft) O 79 ° 1 min 0,000 mm 5,4 UV-I 773 W/m² 13,0 °C 27,0 °C 17,7 km/h (3 Bft)
05.06.2019 15:27 26,9 °C 41 % 1002,5 hPa 0,0 mm 9,3 km/h (2 Bft) N 11 ° 1 min 0,000 mm 5,4 UV-I 768 W/m² 12,5 °C 26,9 °C 12,9 km/h (3 Bft)
05.06.2019 15:28 26,8 °C 41 % 1002,5 hPa 0,0 mm 8,0 km/h (2 Bft) O 84 ° 1 min 0,000 mm 5,3 UV-I 766 W/m² 12,4 °C 26,8 °C 12,9 km/h (3 Bft)
05.06.2019 15:29 26,9 °C 43 % 1002,5 hPa 0,0 mm 4,1 km/h (1 Bft) O-NO 63 ° 1 min 0,000 mm 5,3 UV-I 765 W/m² 13,2 °C 26,9 °C 12,9 km/h (3 Bft)
05.06.2019 15:30 26,9 °C 43 % 1002,5 hPa 0,0 mm 8,5 km/h (2 Bft) O-NO 75 ° 1 min 0,000 mm 5,3 UV-I 765 W/m² 13,2 °C 26,9 °C 17,7 km/h (3 Bft)
05.06.2019 15:31 26,8 °C 42 % 1002,5 hPa 0,0 mm 7,9 km/h (2 Bft) NO 52 ° 1 min 0,000 mm 5,3 UV-I 765 W/m² 12,8 °C 26,8 °C 16,1 km/h (3 Bft)
05.06.2019 15:32 26,8 °C 42 % 1002,4 hPa 0,0 mm 4,0 km/h (1 Bft) NO 53 ° 1 min 0,000 mm 5,2 UV-I 761 W/m² 12,8 °C 26,8 °C 6,4 km/h (2 Bft)
05.06.2019 15:33 26,9 °C 41 % 1002,4 hPa 0,0 mm 8,8 km/h (2 Bft) NO 42 ° 1 min 0,000 mm 5,1 UV-I 761 W/m² 12,5 °C 26,9 °C 16,1 km/h (3 Bft)
05.06.2019 15:34 26,9 °C 43 % 1002,5 hPa 0,0 mm 10,8 km/h (2 Bft) N-NO 14 ° 1 min 0,000 mm 5,1 UV-I 759 W/m² 13,2 °C 26,9 °C 19,3 km/h (3 Bft)
05.06.2019 15:35 26,9 °C 42 % 1002,4 hPa 0,0 mm 10,5 km/h (2 Bft) N 355 ° 1 min 0,000 mm 5,0 UV-I 758 W/m² 12,9 °C 26,9 °C 17,7 km/h (3 Bft)
05.06.2019 15:36 27,1 °C 46 % 1002,4 hPa 0,0 mm 4,9 km/h (1 Bft) N-NW 335 ° 1 min 0,000 mm 4,9 UV-I 756 W/m² 14,5 °C 27,1 °C 9,7 km/h (2 Bft)
05.06.2019 15:37 27,1 °C 45 % 1002,4 hPa 0,0 mm 8,0 km/h (2 Bft) O-NO 71 ° 1 min 0,000 mm 4,9 UV-I 752 W/m² 14,1 °C 27,1 °C 17,7 km/h (3 Bft)
05.06.2019 15:38 27,0 °C 41 % 1002,4 hPa 0,0 mm 11,3 km/h (2 Bft) O 90 ° 1 min 0,000 mm 4,8 UV-I 747 W/m² 12,6 °C 27,0 °C 16,1 km/h (3 Bft)
05.06.2019 15:39 26,9 °C 41 % 1002,4 hPa 0,0 mm 5,8 km/h (2 Bft) N-NO 19 ° 1 min 0,000 mm 4,7 UV-I 744 W/m² 12,5 °C 26,9 °C 8,0 km/h (2 Bft)
05.06.2019 15:40 27,0 °C 43 % 1002,4 hPa 0,0 mm 8,0 km/h (2 Bft) O-NO 63 ° 1 min 0,000 mm 4,7 UV-I 744 W/m² 13,3 °C 27,0 °C 14,5 km/h (3 Bft)
05.06.2019 15:41 27,1 °C 42 % 1002,3 hPa 0,0 mm 10,2 km/h (2 Bft) O 92 ° 1 min 0,000 mm 4,6 UV-I 744 W/m² 13,1 °C 27,1 °C 17,7 km/h (3 Bft)
05.06.2019 15:42 27,0 °C 41 % 1002,4 hPa 0,0 mm 11,6 km/h (2 Bft) O-NO 78 ° 1 min 0,000 mm 4,6 UV-I 742 W/m² 12,6 °C 27,0 °C 16,1 km/h (3 Bft)
05.06.2019 15:43 26,9 °C 42 % 1002,3 hPa 0,0 mm 4,2 km/h (1 Bft) O 93 ° 1 min 0,000 mm 4,6 UV-I 740 W/m² 12,9 °C 26,9 °C 9,7 km/h (2 Bft)
05.06.2019 15:44 26,9 °C 41 % 1002,4 hPa 0,0 mm 11,8 km/h (2 Bft) O-NO 74 ° 1 min 0,000 mm 4,6 UV-I 737 W/m² 12,5 °C 26,9 °C 17,7 km/h (3 Bft)
05.06.2019 15:45 26,8 °C 43 % 1002,4 hPa 0,0 mm 7,8 km/h (2 Bft) NO 55 ° 1 min 0,000 mm 4,6 UV-I 737 W/m² 13,2 °C 26,8 °C 16,1 km/h (3 Bft)
05.06.2019 15:46 26,8 °C 40 % 1002,3 hPa 0,0 mm 6,5 km/h (2 Bft) O-NO 58 ° 1 min 0,000 mm 4,5 UV-I 737 W/m² 12,1 °C 26,8 °C 11,3 km/h (2 Bft)
05.06.2019 15:47 26,7 °C 42 % 1002,3 hPa 0,0 mm 5,0 km/h (1 Bft) NO 40 ° 1 min 0,000 mm 4,5 UV-I 735 W/m² 12,7 °C 26,7 °C 9,7 km/h (2 Bft)
05.06.2019 15:48 26,7 °C 41 % 1002,3 hPa 0,0 mm 4,1 km/h (1 Bft) O-NO 59 ° 1 min 0,000 mm 4,5 UV-I 735 W/m² 12,3 °C 26,7 °C 6,4 km/h (2 Bft)
05.06.2019 15:49 26,8 °C 42 % 1002,2 hPa 0,0 mm 6,4 km/h (2 Bft) NO 50 ° 1 min 0,000 mm 4,5 UV-I 733 W/m² 12,8 °C 26,8 °C 9,7 km/h (2 Bft)
05.06.2019 15:50 26,8 °C 40 % 1002,3 hPa 0,0 mm 5,2 km/h (1 Bft) N-NO 28 ° 1 min 0,000 mm 4,5 UV-I 728 W/m² 12,1 °C 26,8 °C 9,7 km/h (2 Bft)
05.06.2019 15:51 26,8 °C 41 % 1002,2 hPa 0,0 mm 6,4 km/h (2 Bft) N-NO 31 ° 1 min 0,000 mm 4,4 UV-I 726 W/m² 12,4 °C 26,8 °C 8,0 km/h (2 Bft)
05.06.2019 15:52 26,8 °C 42 % 1002,2 hPa 0,0 mm 4,4 km/h (1 Bft) NO 52 ° 1 min 0,000 mm 4,4 UV-I 724 W/m² 12,8 °C 26,8 °C 9,7 km/h (2 Bft)
05.06.2019 15:53 26,8 °C 41 % 1002,2 hPa 0,0 mm 4,7 km/h (1 Bft) NO 49 ° 1 min 0,000 mm 4,4 UV-I 721 W/m² 12,4 °C 26,8 °C 6,4 km/h (2 Bft)
05.06.2019 15:54 26,9 °C 44 % 1002,2 hPa 0,0 mm 5,7 km/h (1 Bft) N 10 ° 1 min 0,000 mm 4,4 UV-I 721 W/m² 13,6 °C 26,9 °C 8,0 km/h (2 Bft)
05.06.2019 15:55 27,1 °C 43 % 1002,2 hPa 0,0 mm 3,2 km/h (1 Bft) N-NW 345 ° 1 min 0,000 mm 4,4 UV-I 721 W/m² 13,4 °C 27,1 °C 4,8 km/h (1 Bft)
05.06.2019 15:56 27,1 °C 42 % 1002,1 hPa 0,0 mm 12,0 km/h (2 Bft) N 360 ° 1 min 0,000 mm 4,4 UV-I 719 W/m² 13,1 °C 27,1 °C 17,7 km/h (3 Bft)
05.06.2019 15:57 27,1 °C 41 % 1002,0 hPa 0,0 mm 4,2 km/h (1 Bft) O-NO 75 ° 1 min 0,000 mm 4,3 UV-I 715 W/m² 12,7 °C 27,1 °C 6,4 km/h (2 Bft)
05.06.2019 15:58 27,2 °C 45 % 1002,1 hPa 0,0 mm 9,4 km/h (2 Bft) N-NO 19 ° 1 min 0,000 mm 4,3 UV-I 714 W/m² 14,2 °C 27,2 °C 16,1 km/h (3 Bft)
05.06.2019 15:59 27,2 °C 40 % 1002,1 hPa 0,0 mm 7,8 km/h (2 Bft) NO 48 ° 1 min 0,000 mm 4,3 UV-I 714 W/m² 12,4 °C 27,2 °C 14,5 km/h (3 Bft)
05.06.2019 16:00 27,2 °C 39 % 1002,1 hPa 0,0 mm 8,3 km/h (2 Bft) NO 43 ° 1 min 0,000 mm 4,3 UV-I 712 W/m² 12,0 °C 27,2 °C 12,9 km/h (3 Bft)
05.06.2019 16:01 27,2 °C 39 % 1002,1 hPa 0,0 mm 11,0 km/h (2 Bft) NO 51 ° 1 min 0,559 mm 4,3 UV-I 712 W/m² 12,0 °C 27,2 °C 17,7 km/h (3 Bft)
05.06.2019 16:02 27,1 °C 39 % 1002,2 hPa 0,0 mm 10,1 km/h (2 Bft) O-NO 67 ° 1 min 0,000 mm 4,3 UV-I 705 W/m² 11,9 °C 27,1 °C 17,7 km/h (3 Bft)
05.06.2019 16:03 27,1 °C 41 % 1002,1 hPa 0,0 mm 7,6 km/h (2 Bft) O 92 ° 1 min 0,000 mm 4,2 UV-I 703 W/m² 12,7 °C 27,1 °C 12,9 km/h (3 Bft)
05.06.2019 16:04 26,9 °C 41 % 1002,0 hPa 0,0 mm 7,6 km/h (2 Bft) NO 55 ° 1 min 0,000 mm 4,2 UV-I 701 W/m² 12,5 °C 26,9 °C 12,9 km/h (3 Bft)
05.06.2019 16:05 26,9 °C 39 % 1002,1 hPa 0,0 mm 3,4 km/h (1 Bft) N 5 ° 1 min 0,000 mm 4,2 UV-I 701 W/m² 11,8 °C 26,9 °C 8,0 km/h (2 Bft)
05.06.2019 16:06 26,8 °C 40 % 1002,0 hPa 0,0 mm 7,3 km/h (2 Bft) N-NO 31 ° 1 min 0,000 mm 4,2 UV-I 698 W/m² 12,1 °C 26,8 °C 14,5 km/h (3 Bft)
05.06.2019 16:07 26,7 °C 40 % 1002,0 hPa 0,0 mm 9,3 km/h (2 Bft) NO 46 ° 1 min 0,000 mm 4,1 UV-I 698 W/m² 12,0 °C 26,7 °C 14,5 km/h (3 Bft)
05.06.2019 16:08 26,8 °C 41 % 1002,0 hPa 0,0 mm 6,9 km/h (2 Bft) O-NO 63 ° 1 min 0,000 mm 3,5 UV-I 698 W/m² 12,4 °C 26,8 °C 12,9 km/h (3 Bft)
05.06.2019 16:09 26,8 °C 40 % 1002,0 hPa 0,0 mm 5,2 km/h (1 Bft) NO 51 ° 0 min 0,000 mm 2,6 UV-I 109 W/m² 12,1 °C 26,8 °C 8,0 km/h (2 Bft)
05.06.2019 16:10 26,8 °C 41 % 1002,0 hPa 0,0 mm 3,8 km/h (1 Bft) O-NO 64 ° 0 min 0,000 mm 2,7 UV-I 105 W/m² 12,4 °C 26,8 °C 8,0 km/h (2 Bft)
05.06.2019 16:11 26,8 °C 40 % 1002,0 hPa 0,0 mm 3,5 km/h (1 Bft) N-NO 33 ° 0 min 0,000 mm 2,5 UV-I 105 W/m² 12,1 °C 26,8 °C 6,4 km/h (2 Bft)
05.06.2019 16:12 26,8 °C 39 % 1002,0 hPa 0,0 mm 4,9 km/h (1 Bft) NO 53 ° 0 min 0,000 mm 2,4 UV-I 105 W/m² 11,7 °C 26,8 °C 8,0 km/h (2 Bft)
05.06.2019 16:13 26,9 °C 43 % 1002,0 hPa 0,0 mm 4,6 km/h (1 Bft) NO 48 ° 0 min 0,000 mm 2,4 UV-I 105 W/m² 13,2 °C 26,9 °C 12,9 km/h (3 Bft)
05.06.2019 16:14 26,9 °C 41 % 1001,9 hPa 0,0 mm 4,1 km/h (1 Bft) O-NO 59 ° 0 min 0,000 mm 2,4 UV-I 104 W/m² 12,5 °C 26,9 °C 6,4 km/h (2 Bft)
05.06.2019 16:15 26,9 °C 44 % 1001,9 hPa 0,0 mm 7,1 km/h (2 Bft) O-NO 60 ° 0 min 0,000 mm 2,4 UV-I 104 W/m² 13,6 °C 26,9 °C 11,3 km/h (2 Bft)
05.06.2019 16:16 26,9 °C 41 % 1001,9 hPa 0,0 mm 4,0 km/h (1 Bft) O-NO 72 ° 0 min 0,000 mm 2,4 UV-I 104 W/m² 12,5 °C 26,9 °C 8,0 km/h (2 Bft)
05.06.2019 16:17 27,1 °C 42 % 1001,9 hPa 0,0 mm 9,4 km/h (2 Bft) O 88 ° 0 min 0,000 mm 2,4 UV-I 104 W/m² 13,1 °C 27,1 °C 16,1 km/h (3 Bft)
05.06.2019 16:18 27,1 °C 45 % 1001,9 hPa 0,0 mm 8,2 km/h (2 Bft) O-NO 61 ° 0 min 0,000 mm 2,4 UV-I 104 W/m² 14,1 °C 27,1 °C 12,9 km/h (3 Bft)
05.06.2019 16:19 27,1 °C 42 % 1001,8 hPa 0,0 mm 5,1 km/h (1 Bft) O-NO 71 ° 0 min 0,000 mm 2,4 UV-I 104 W/m² 13,1 °C 27,1 °C 11,3 km/h (2 Bft)
05.06.2019 16:20 27,1 °C 39 % 1001,8 hPa 0,0 mm 5,3 km/h (1 Bft) O 99 ° 0 min 0,000 mm 2,3 UV-I 104 W/m² 11,9 °C 27,1 °C 11,3 km/h (2 Bft)
05.06.2019 16:21 26,9 °C 40 % 1001,9 hPa 0,0 mm 11,3 km/h (2 Bft) O 89 ° 0 min 0,000 mm 2,3 UV-I 104 W/m² 12,1 °C 26,9 °C 16,1 km/h (3 Bft)
05.06.2019 16:22 26,9 °C 40 % 1001,9 hPa 0,0 mm 9,2 km/h (2 Bft) O-NO 75 ° 0 min 0,000 mm 2,4 UV-I 104 W/m² 12,1 °C 26,9 °C 11,3 km/h (2 Bft)
05.06.2019 16:23 26,8 °C 41 % 1001,8 hPa 0,0 mm 4,2 km/h (1 Bft) NO 34 ° 0 min 0,000 mm 2,3 UV-I 102 W/m² 12,4 °C 26,8 °C 8,0 km/h (2 Bft)
05.06.2019 16:24 26,8 °C 39 % 1001,8 hPa 0,0 mm 5,0 km/h (1 Bft) O-NO 62 ° 0 min 0,000 mm 2,3 UV-I 104 W/m² 11,7 °C 26,8 °C 9,7 km/h (2 Bft)
05.06.2019 16:25 26,8 °C 39 % 1001,8 hPa 0,0 mm 4,4 km/h (1 Bft) O-NO 70 ° 0 min 0,000 mm 2,3 UV-I 102 W/m² 11,7 °C 26,8 °C 8,0 km/h (2 Bft)
05.06.2019 16:26 26,8 °C 43 % 1001,8 hPa 0,0 mm 10,3 km/h (2 Bft) NO 35 ° 0 min 0,000 mm 2,3 UV-I 100 W/m² 13,2 °C 26,8 °C 16,1 km/h (3 Bft)
05.06.2019 16:27 26,7 °C 39 % 1001,8 hPa 0,0 mm 10,1 km/h (2 Bft) NO 46 ° 0 min 0,000 mm 2,3 UV-I 102 W/m² 11,6 °C 26,7 °C 17,7 km/h (3 Bft)
05.06.2019 16:28 26,8 °C 40 % 1001,8 hPa 0,0 mm 6,5 km/h (2 Bft) O 92 ° 0 min 0,000 mm 2,3 UV-I 102 W/m² 12,1 °C 26,8 °C 11,3 km/h (2 Bft)
05.06.2019 16:29 26,8 °C 39 % 1001,8 hPa 0,0 mm 5,8 km/h (2 Bft) O-NO 67 ° 0 min 0,000 mm 2,3 UV-I 102 W/m² 11,7 °C 26,8 °C 14,5 km/h (3 Bft)
05.06.2019 16:30 26,8 °C 39 % 1001,8 hPa 0,0 mm 10,2 km/h (2 Bft) O-NO 59 ° 0 min 0,000 mm 2,3 UV-I 107 W/m² 11,7 °C 26,8 °C 14,5 km/h (3 Bft)
05.06.2019 16:31 26,8 °C 39 % 1001,8 hPa 0,0 mm 12,2 km/h (2 Bft) NO 36 ° 0 min 0,000 mm 2,2 UV-I 107 W/m² 11,7 °C 26,8 °C 14,5 km/h (3 Bft)
05.06.2019 16:32 26,7 °C 40 % 1001,7 hPa 0,0 mm 9,5 km/h (2 Bft) N 5 ° 0 min 0,000 mm 2,3 UV-I 105 W/m² 12,0 °C 26,7 °C 16,1 km/h (3 Bft)
05.06.2019 16:33 26,7 °C 39 % 1001,7 hPa 0,0 mm 5,9 km/h (2 Bft) N-NO 28 ° 0 min 0,000 mm 2,2 UV-I 134 W/m² 11,6 °C 26,7 °C 12,9 km/h (3 Bft)
05.06.2019 16:34 26,7 °C 38 % 1001,7 hPa 0,0 mm 10,6 km/h (2 Bft) N-NO 30 ° 0 min 0,000 mm 2,2 UV-I 104 W/m² 11,2 °C 26,7 °C 16,1 km/h (3 Bft)
05.06.2019 16:35 26,7 °C 40 % 1001,7 hPa 0,0 mm 5,8 km/h (2 Bft) O-NO 57 ° 0 min 0,000 mm 2,2 UV-I 98 W/m² 12,0 °C 26,7 °C 9,7 km/h (2 Bft)
05.06.2019 16:36 26,7 °C 39 % 1001,7 hPa 0,0 mm 6,0 km/h (2 Bft) O-NO 69 ° 0 min 0,000 mm 2,2 UV-I 100 W/m² 11,6 °C 26,7 °C 12,9 km/h (3 Bft)
05.06.2019 16:37 26,6 °C 38 % 1001,7 hPa 0,0 mm 5,4 km/h (1 Bft) N-NW 331 ° 0 min 0,000 mm 2,2 UV-I 98 W/m² 11,1 °C 26,6 °C 8,0 km/h (2 Bft)
05.06.2019 16:38 26,7 °C 41 % 1001,6 hPa 0,0 mm 7,6 km/h (2 Bft) N-NW 334 ° 0 min 0,000 mm 2,2 UV-I 98 W/m² 12,3 °C 26,7 °C 12,9 km/h (3 Bft)
05.06.2019 16:39 26,7 °C 39 % 1001,6 hPa 0,0 mm 5,2 km/h (1 Bft) N 355 ° 0 min 0,000 mm 2,2 UV-I 98 W/m² 11,6 °C 26,7 °C 8,0 km/h (2 Bft)
05.06.2019 16:40 26,8 °C 39 % 1001,5 hPa 0,0 mm 4,4 km/h (1 Bft) NO 34 ° 0 min 0,000 mm 2,2 UV-I 98 W/m² 11,7 °C 26,8 °C 8,0 km/h (2 Bft)
05.06.2019 16:41 26,8 °C 42 % 1001,6 hPa 0,0 mm 3,4 km/h (1 Bft) NO 54 ° 0 min 0,000 mm 2,2 UV-I 98 W/m² 12,8 °C 26,8 °C 6,4 km/h (2 Bft)
05.06.2019 16:42 26,8 °C 39 % 1001,5 hPa 0,0 mm 4,5 km/h (1 Bft) O-NO 57 ° 0 min 0,000 mm 2,2 UV-I 98 W/m² 11,7 °C 26,8 °C 8,0 km/h (2 Bft)
05.06.2019 16:43 26,9 °C 40 % 1001,6 hPa 0,0 mm 3,8 km/h (1 Bft) NW 312 ° 0 min 0,000 mm 2,1 UV-I 102 W/m² 12,1 °C 26,9 °C 6,4 km/h (2 Bft)
05.06.2019 16:44 26,9 °C 40 % 1001,5 hPa 0,0 mm 5,8 km/h (2 Bft) O-NO 65 ° 0 min 0,000 mm 2,1 UV-I 105 W/m² 12,1 °C 26,9 °C 8,0 km/h (2 Bft)
05.06.2019 16:45 27,0 °C 42 % 1001,6 hPa 0,0 mm 4,7 km/h (1 Bft) O 92 ° 0 min 0,000 mm 2,1 UV-I 109 W/m² 13,0 °C 27,0 °C 6,4 km/h (2 Bft)
05.06.2019 16:46 27,0 °C 41 % 1001,6 hPa 0,0 mm 1,0 km/h (0 Bft) NO 38 ° 0 min 0,000 mm 2,1 UV-I 113 W/m² 12,6 °C 27,0 °C 3,2 km/h (1 Bft)
05.06.2019 16:47 27,1 °C 39 % 1001,5 hPa 0,0 mm 3,6 km/h (1 Bft) S-SO 156 ° 0 min 0,000 mm 2,1 UV-I 114 W/m² 11,9 °C 27,1 °C 6,4 km/h (2 Bft)
05.06.2019 16:48 27,0 °C 39 % 1001,6 hPa 0,0 mm 7,2 km/h (2 Bft) NO 49 ° 0 min 0,000 mm 2,1 UV-I 111 W/m² 11,8 °C 27,0 °C 12,9 km/h (3 Bft)
05.06.2019 16:49 26,9 °C 39 % 1001,6 hPa 0,0 mm 7,3 km/h (2 Bft) NO 50 ° 0 min 0,000 mm 2,1 UV-I 102 W/m² 11,8 °C 26,9 °C 17,7 km/h (3 Bft)
05.06.2019 16:50 26,8 °C 39 % 1001,5 hPa 0,0 mm 11,4 km/h (2 Bft) O 92 ° 0 min 0,000 mm 2,1 UV-I 102 W/m² 11,7 °C 26,8 °C 17,7 km/h (3 Bft)
05.06.2019 16:51 26,8 °C 38 % 1001,6 hPa 0,0 mm 15,2 km/h (3 Bft) NO 43 ° 0 min 0,000 mm 2,1 UV-I 102 W/m² 11,3 °C 26,8 °C 22,5 km/h (4 Bft)
05.06.2019 16:52 26,8 °C 38 % 1001,6 hPa 0,0 mm 7,9 km/h (2 Bft) O-NO 74 ° 0 min 0,000 mm 2,1 UV-I 102 W/m² 11,3 °C 26,8 °C 11,3 km/h (2 Bft)
05.06.2019 16:53 26,8 °C 39 % 1001,6 hPa 0,0 mm 4,6 km/h (1 Bft) SO 136 ° 0 min 0,000 mm 2,1 UV-I 109 W/m² 11,7 °C 26,8 °C 8,0 km/h (2 Bft)
05.06.2019 16:54 26,8 °C 40 % 1001,6 hPa 0,0 mm 4,2 km/h (1 Bft) S 170 ° 0 min 0,000 mm 2,1 UV-I 114 W/m² 12,1 °C 26,8 °C 8,0 km/h (2 Bft)
05.06.2019 16:55 26,7 °C 38 % 1001,6 hPa 0,0 mm 5,5 km/h (1 Bft) N-NO 24 ° 0 min 0,000 mm 2,1 UV-I 114 W/m² 11,2 °C 26,7 °C 8,0 km/h (2 Bft)
05.06.2019 16:56 26,6 °C 38 % 1001,6 hPa 0,0 mm 3,6 km/h (1 Bft) N 11 ° 0 min 0,000 mm 2,0 UV-I 107 W/m² 11,1 °C 26,6 °C 6,4 km/h (2 Bft)
05.06.2019 16:57 26,6 °C 37 % 1001,6 hPa 0,0 mm 3,5 km/h (1 Bft) NO 35 ° 0 min 0,000 mm 2,0 UV-I 107 W/m² 10,7 °C 26,6 °C 4,8 km/h (1 Bft)
05.06.2019 16:58 26,7 °C 37 % 1001,6 hPa 0,0 mm 3,6 km/h (1 Bft) O-NO 75 ° 0 min 0,000 mm 2,0 UV-I 114 W/m² 10,8 °C 26,7 °C 8,0 km/h (2 Bft)
05.06.2019 16:59 26,7 °C 38 % 1001,6 hPa 0,0 mm 3,7 km/h (1 Bft) NO 38 ° 0 min 0,000 mm 2,0 UV-I 120 W/m² 11,2 °C 26,7 °C 4,8 km/h (1 Bft)
05.06.2019 17:00 26,7 °C 38 % 1001,5 hPa 0,0 mm 1,3 km/h (1 Bft) NO 38 ° 0 min 0,000 mm 2,0 UV-I 127 W/m² 11,2 °C 26,7 °C 3,2 km/h (1 Bft)
05.06.2019 17:01 26,6 °C 40 % 1001,6 hPa 0,0 mm 1,4 km/h (1 Bft) O 92 ° 0 min 0,177 mm 2,0 UV-I 128 W/m² 11,9 °C 26,6 °C 4,8 km/h (1 Bft)
05.06.2019 17:02 26,6 °C 40 % 1001,5 hPa 0,0 mm 2,5 km/h (1 Bft) NO 46 ° 0 min 0,000 mm 2,0 UV-I 120 W/m² 11,9 °C 26,6 °C 4,8 km/h (1 Bft)
05.06.2019 17:03 26,7 °C 43 % 1001,5 hPa 0,0 mm 4,5 km/h (1 Bft) NO 35 ° 0 min 0,000 mm 1,9 UV-I 118 W/m² 13,1 °C 26,7 °C 4,8 km/h (1 Bft)
05.06.2019 17:04 26,7 °C 42 % 1001,5 hPa 0,0 mm 8,0 km/h (2 Bft) N-NO 15 ° 0 min 0,000 mm 1,9 UV-I 114 W/m² 12,7 °C 26,7 °C 12,9 km/h (3 Bft)
05.06.2019 17:05 26,7 °C 41 % 1001,5 hPa 0,0 mm 6,7 km/h (2 Bft) O-NO 70 ° 0 min 0,000 mm 1,8 UV-I 111 W/m² 12,3 °C 26,7 °C 12,9 km/h (3 Bft)
05.06.2019 17:06 26,6 °C 42 % 1001,5 hPa 0,0 mm 3,9 km/h (1 Bft) O-NO 78 ° 0 min 0,000 mm 1,8 UV-I 114 W/m² 12,6 °C 26,6 °C 8,0 km/h (2 Bft)
05.06.2019 17:07 26,4 °C 43 % 1001,6 hPa 0,0 mm 3,9 km/h (1 Bft) NO 38 ° 0 min 0,000 mm 1,9 UV-I 144 W/m² 12,8 °C 26,4 °C 6,4 km/h (2 Bft)
05.06.2019 17:08 26,3 °C 43 % 1001,5 hPa 0,0 mm 2,7 km/h (1 Bft) O 87 ° 0 min 0,000 mm 1,9 UV-I 144 W/m² 12,7 °C 26,3 °C 4,8 km/h (1 Bft)
05.06.2019 17:09 26,2 °C 43 % 1001,5 hPa 0,0 mm 4,1 km/h (1 Bft) N-NO 31 ° 0 min 0,000 mm 2,0 UV-I 151 W/m² 12,6 °C 26,2 °C 4,8 km/h (1 Bft)
05.06.2019 17:10 26,2 °C 41 % 1001,5 hPa 0,0 mm 5,3 km/h (1 Bft) NO 46 ° 0 min 0,000 mm 1,9 UV-I 151 W/m² 11,9 °C 26,2 °C 8,0 km/h (2 Bft)
05.06.2019 17:11 26,3 °C 41 % 1001,4 hPa 0,0 mm 2,0 km/h (1 Bft) NO 49 ° 0 min 0,000 mm 1,9 UV-I 142 W/m² 12,0 °C 26,3 °C 6,4 km/h (2 Bft)
05.06.2019 17:12 26,3 °C 40 % 1001,4 hPa 0,0 mm 4,9 km/h (1 Bft) S 175 ° 0 min 0,000 mm 1,8 UV-I 137 W/m² 11,6 °C 26,3 °C 11,3 km/h (2 Bft)
05.06.2019 17:13 26,3 °C 41 % 1001,4 hPa 0,0 mm 3,6 km/h (1 Bft) S 169 ° 0 min 0,000 mm 1,8 UV-I 139 W/m² 12,0 °C 26,3 °C 8,0 km/h (2 Bft)
05.06.2019 17:14 26,2 °C 40 % 1001,5 hPa 0,0 mm 6,5 km/h (2 Bft) O-NO 70 ° 0 min 0,000 mm 1,8 UV-I 146 W/m² 11,5 °C 26,2 °C 14,5 km/h (3 Bft)
05.06.2019 17:15 26,1 °C 44 % 1001,5 hPa 0,0 mm 3,9 km/h (1 Bft) O-NO 76 ° 0 min 0,000 mm 1,8 UV-I 153 W/m² 12,9 °C 26,1 °C 8,0 km/h (2 Bft)
05.06.2019 17:16 26,0 °C 41 % 1001,5 hPa 0,0 mm 1,0 km/h (0 Bft) O-NO 76 ° 0 min 0,000 mm 1,8 UV-I 160 W/m² 11,7 °C 26,0 °C 4,8 km/h (1 Bft)
05.06.2019 17:17 25,9 °C 45 % 1001,5 hPa 0,0 mm 2,3 km/h (1 Bft) O-NO 74 ° 0 min 0,000 mm 1,9 UV-I 169 W/m² 13,0 °C 25,9 °C 3,2 km/h (1 Bft)
05.06.2019 17:18 25,8 °C 45 % 1001,5 hPa 0,0 mm 1,2 km/h (1 Bft) O-NO 67 ° 0 min 0,000 mm 2,0 UV-I 178 W/m² 13,0 °C 25,8 °C 3,2 km/h (1 Bft)
05.06.2019 17:19 25,8 °C 44 % 1001,4 hPa 0,0 mm 5,1 km/h (1 Bft) O 91 ° 0 min 0,000 mm 2,0 UV-I 183 W/m² 12,6 °C 25,8 °C 12,9 km/h (3 Bft)
05.06.2019 17:20 25,8 °C 43 % 1001,4 hPa 0,0 mm 6,0 km/h (2 Bft) O 79 ° 0 min 0,000 mm 2,0 UV-I 185 W/m² 12,3 °C 25,8 °C 11,3 km/h (2 Bft)
05.06.2019 17:21 25,9 °C 44 % 1001,4 hPa 0,0 mm 10,0 km/h (2 Bft) N-NO 30 ° 0 min 0,000 mm 2,0 UV-I 165 W/m² 12,7 °C 25,9 °C 14,5 km/h (3 Bft)
05.06.2019 17:22 26,0 °C 40 % 1001,5 hPa 0,0 mm 8,7 km/h (2 Bft) O-NO 74 ° 0 min 0,000 mm 2,0 UV-I 151 W/m² 11,3 °C 26,0 °C 12,9 km/h (3 Bft)
05.06.2019 17:23 26,1 °C 40 % 1001,4 hPa 0,0 mm 4,2 km/h (1 Bft) O 90 ° 0 min 0,000 mm 1,9 UV-I 134 W/m² 11,4 °C 26,1 °C 8,0 km/h (2 Bft)
05.06.2019 17:24 26,2 °C 39 % 1001,4 hPa 0,0 mm 3,1 km/h (1 Bft) N-NO 14 ° 0 min 0,000 mm 1,9 UV-I 116 W/m² 11,1 °C 26,2 °C 6,4 km/h (2 Bft)
05.06.2019 17:25 26,2 °C 40 % 1001,4 hPa 0,0 mm 8,1 km/h (2 Bft) N-NO 29 ° 0 min 0,000 mm 1,8 UV-I 127 W/m² 11,5 °C 26,2 °C 14,5 km/h (3 Bft)
05.06.2019 17:26 26,3 °C 38 % 1001,3 hPa 0,0 mm 9,5 km/h (2 Bft) O 82 ° 0 min 0,000 mm 1,8 UV-I 155 W/m² 10,8 °C 26,3 °C 14,5 km/h (3 Bft)
05.06.2019 17:27 26,3 °C 38 % 1001,4 hPa 0,0 mm 9,4 km/h (2 Bft) N 355 ° 0 min 0,000 mm 1,8 UV-I 113 W/m² 10,8 °C 26,3 °C 14,5 km/h (3 Bft)
05.06.2019 17:28 26,3 °C 39 % 1001,3 hPa 0,0 mm 1,0 km/h (0 Bft) N-NO 25 ° 0 min 0,000 mm 1,8 UV-I 113 W/m² 11,2 °C 26,3 °C 4,8 km/h (1 Bft)
05.06.2019 17:29 26,4 °C 39 % 1001,4 hPa 0,0 mm 3,1 km/h (1 Bft) O 91 ° 0 min 0,000 mm 1,8 UV-I 104 W/m² 11,3 °C 26,4 °C 6,4 km/h (2 Bft)
05.06.2019 17:30 26,4 °C 38 % 1001,3 hPa 0,0 mm 0,5 km/h (0 Bft) O-NO 71 ° 0 min 0,000 mm 1,8 UV-I 102 W/m² 10,9 °C 26,4 °C 1,6 km/h (1 Bft)
05.06.2019 17:31 26,4 °C 38 % 1001,3 hPa 0,0 mm 3,3 km/h (1 Bft) O 81 ° 0 min 0,000 mm 1,8 UV-I 104 W/m² 10,9 °C 26,4 °C 4,8 km/h (1 Bft)
05.06.2019 17:32 26,4 °C 39 % 1001,4 hPa 0,0 mm 5,4 km/h (1 Bft) O-NO 70 ° 0 min 0,000 mm 1,7 UV-I 102 W/m² 11,3 °C 26,4 °C 9,7 km/h (2 Bft)
05.06.2019 17:33 26,4 °C 38 % 1001,4 hPa 0,0 mm 3,8 km/h (1 Bft) NO 51 ° 0 min 0,000 mm 1,7 UV-I 104 W/m² 10,9 °C 26,4 °C 8,0 km/h (2 Bft)
05.06.2019 17:34 26,6 °C 37 % 1001,4 hPa 0,0 mm 6,7 km/h (2 Bft) O-NO 62 ° 0 min 0,000 mm 1,8 UV-I 107 W/m² 10,7 °C 26,6 °C 12,9 km/h (3 Bft)
05.06.2019 17:35 26,6 °C 37 % 1001,4 hPa 0,0 mm 6,7 km/h (2 Bft) NO 49 ° 0 min 0,000 mm 1,8 UV-I 111 W/m² 10,7 °C 26,6 °C 11,3 km/h (2 Bft)
05.06.2019 17:36 26,7 °C 39 % 1001,3 hPa 0,0 mm 4,7 km/h (1 Bft) N-NO 23 ° 0 min 0,000 mm 1,8 UV-I 120 W/m² 11,6 °C 26,7 °C 8,0 km/h (2 Bft)
05.06.2019 17:37 26,7 °C 38 % 1001,3 hPa 0,0 mm 3,1 km/h (1 Bft) N-NO 26 ° 0 min 0,000 mm 1,8 UV-I 121 W/m² 11,2 °C 26,7 °C 6,4 km/h (2 Bft)
05.06.2019 17:38 26,8 °C 39 % 1001,4 hPa 0,0 mm 6,4 km/h (2 Bft) O-NO 72 ° 0 min 0,000 mm 1,8 UV-I 125 W/m² 11,7 °C 26,8 °C 11,3 km/h (2 Bft)
05.06.2019 17:39 26,8 °C 37 % 1001,3 hPa 0,0 mm 6,1 km/h (2 Bft) NO 53 ° 0 min 0,000 mm 1,8 UV-I 153 W/m² 10,9 °C 26,8 °C 14,5 km/h (3 Bft)
05.06.2019 17:40 26,8 °C 40 % 1001,3 hPa 0,0 mm 7,3 km/h (2 Bft) N-NO 14 ° 0 min 0,000 mm 1,9 UV-I 149 W/m² 12,1 °C 26,8 °C 11,3 km/h (2 Bft)
05.06.2019 17:41 26,8 °C 40 % 1001,2 hPa 0,0 mm 3,7 km/h (1 Bft) NO 53 ° 0 min 0,000 mm 1,7 UV-I 130 W/m² 12,1 °C 26,8 °C 6,4 km/h (2 Bft)
05.06.2019 17:42 26,8 °C 40 % 1001,2 hPa 0,0 mm 8,8 km/h (2 Bft) O-NO 76 ° 0 min 0,000 mm 1,8 UV-I 127 W/m² 12,1 °C 26,8 °C 12,9 km/h (3 Bft)
05.06.2019 17:43 26,8 °C 39 % 1001,3 hPa 0,0 mm 4,9 km/h (1 Bft) N-NO 21 ° 0 min 0,000 mm 1,7 UV-I 128 W/m² 11,7 °C 26,8 °C 9,7 km/h (2 Bft)
05.06.2019 17:44 26,8 °C 39 % 1001,3 hPa 0,0 mm 3,9 km/h (1 Bft) NO 50 ° 0 min 0,000 mm 1,7 UV-I 148 W/m² 11,7 °C 26,8 °C 6,4 km/h (2 Bft)
05.06.2019 17:45 26,8 °C 39 % 1001,3 hPa 0,0 mm 6,3 km/h (2 Bft) NO 43 ° 0 min 0,000 mm 1,7 UV-I 146 W/m² 11,7 °C 26,8 °C 8,0 km/h (2 Bft)
05.06.2019 17:46 26,8 °C 40 % 1001,3 hPa 0,0 mm 3,2 km/h (1 Bft) O-NO 57 ° 0 min 0,000 mm 1,7 UV-I 130 W/m² 12,1 °C 26,8 °C 4,8 km/h (1 Bft)
05.06.2019 17:47 26,8 °C 43 % 1001,2 hPa 0,0 mm 4,6 km/h (1 Bft) NO 51 ° 0 min 0,000 mm 1,7 UV-I 127 W/m² 13,2 °C 26,8 °C 8,0 km/h (2 Bft)
05.06.2019 17:48 26,7 °C 38 % 1001,2 hPa 0,0 mm 4,1 km/h (1 Bft) O-NO 59 ° 0 min 0,000 mm 1,6 UV-I 121 W/m² 11,2 °C 26,7 °C 11,3 km/h (2 Bft)
05.06.2019 17:49 26,7 °C 39 % 1001,2 hPa 0,0 mm 7,1 km/h (2 Bft) NO 55 ° 0 min 0,000 mm 1,6 UV-I 118 W/m² 11,6 °C 26,7 °C 12,9 km/h (3 Bft)
05.06.2019 17:50 26,8 °C 38 % 1001,2 hPa 0,0 mm 5,8 km/h (2 Bft) N-NO 31 ° 0 min 0,000 mm 1,6 UV-I 114 W/m² 11,3 °C 26,8 °C 9,7 km/h (2 Bft)
05.06.2019 17:51 26,8 °C 40 % 1001,2 hPa 0,0 mm 5,1 km/h (1 Bft) NO 46 ° 0 min 0,000 mm 1,6 UV-I 113 W/m² 12,1 °C 26,8 °C 6,4 km/h (2 Bft)
05.06.2019 17:52 26,9 °C 40 % 1001,2 hPa 0,0 mm 5,1 km/h (1 Bft) O-NO 60 ° 0 min 0,000 mm 1,6 UV-I 116 W/m² 12,1 °C 26,9 °C 8,0 km/h (2 Bft)
05.06.2019 17:53 26,9 °C 40 % 1001,2 hPa 0,0 mm 4,4 km/h (1 Bft) O 86 ° 0 min 0,000 mm 1,6 UV-I 114 W/m² 12,1 °C 26,9 °C 11,3 km/h (2 Bft)
05.06.2019 17:54 26,9 °C 39 % 1001,2 hPa 0,0 mm 6,7 km/h (2 Bft) O-NO 65 ° 0 min 0,000 mm 1,6 UV-I 109 W/m² 11,8 °C 26,9 °C 16,1 km/h (3 Bft)
05.06.2019 17:55 26,8 °C 43 % 1001,2 hPa 0,0 mm 5,5 km/h (1 Bft) NO 47 ° 0 min 0,000 mm 1,6 UV-I 105 W/m² 13,2 °C 26,8 °C 9,7 km/h (2 Bft)
05.06.2019 17:56 26,8 °C 42 % 1001,1 hPa 0,0 mm 6,0 km/h (2 Bft) S 188 ° 0 min 0,000 mm 1,6 UV-I 109 W/m² 12,8 °C 26,8 °C 12,9 km/h (3 Bft)
05.06.2019 17:57 26,8 °C 41 % 1001,2 hPa 0,0 mm 5,9 km/h (2 Bft) O 99 ° 0 min 0,000 mm 1,5 UV-I 109 W/m² 12,4 °C 26,8 °C 12,9 km/h (3 Bft)
05.06.2019 17:58 26,7 °C 40 % 1001,2 hPa 0,0 mm 6,2 km/h (2 Bft) N 5 ° 0 min 0,000 mm 1,5 UV-I 93 W/m² 12,0 °C 26,7 °C 14,5 km/h (3 Bft)
05.06.2019 17:59 26,7 °C 39 % 1001,1 hPa 0,0 mm 6,4 km/h (2 Bft) SO 134 ° 0 min 0,000 mm 1,5 UV-I 91 W/m² 11,6 °C 26,7 °C 11,3 km/h (2 Bft)
05.06.2019 18:00 26,6 °C 39 % 1001,2 hPa 0,0 mm 7,3 km/h (2 Bft) NO 56 ° 0 min 0,000 mm 1,4 UV-I 95 W/m² 11,5 °C 26,6 °C 11,3 km/h (2 Bft)
05.06.2019 18:01 26,6 °C 39 % 1001,1 hPa 0,0 mm 7,7 km/h (2 Bft) N-NW 345 ° 0 min 0,153 mm 1,4 UV-I 86 W/m² 11,5 °C 26,6 °C 12,9 km/h (3 Bft)
05.06.2019 18:02 26,6 °C 39 % 1001,1 hPa 0,0 mm 4,1 km/h (1 Bft) NW 324 ° 0 min 0,000 mm 1,4 UV-I 83 W/m² 11,5 °C 26,6 °C 8,0 km/h (2 Bft)
05.06.2019 18:03 26,6 °C 40 % 1001,1 hPa 0,0 mm 3,0 km/h (1 Bft) N 5 ° 0 min 0,000 mm 1,4 UV-I 95 W/m² 11,9 °C 26,6 °C 4,8 km/h (1 Bft)
05.06.2019 18:04 26,6 °C 40 % 1001,1 hPa 0,0 mm 7,6 km/h (2 Bft) O-NO 58 ° 0 min 0,000 mm 1,4 UV-I 88 W/m² 11,9 °C 26,6 °C 11,3 km/h (2 Bft)
05.06.2019 18:05 26,6 °C 40 % 1001,2 hPa 0,0 mm 12,2 km/h (2 Bft) O 81 ° 0 min 0,000 mm 1,4 UV-I 83 W/m² 11,9 °C 26,6 °C 20,9 km/h (4 Bft)
05.06.2019 18:06 26,5 °C 39 % 1001,1 hPa 0,0 mm 10,4 km/h (2 Bft) N-NO 32 ° 0 min 0,000 mm 1,4 UV-I 77 W/m² 11,4 °C 26,5 °C 16,1 km/h (3 Bft)
05.06.2019 18:07 26,5 °C 39 % 1001,2 hPa 0,0 mm 9,1 km/h (2 Bft) O 80 ° 0 min 0,000 mm 1,4 UV-I 77 W/m² 11,4 °C 26,5 °C 14,5 km/h (3 Bft)
05.06.2019 18:08 26,4 °C 40 % 1001,1 hPa 0,0 mm 9,5 km/h (2 Bft) N-NO 32 ° 0 min 0,000 mm 1,4 UV-I 76 W/m² 11,7 °C 26,4 °C 16,1 km/h (3 Bft)
05.06.2019 18:09 26,4 °C 39 % 1001,1 hPa 0,0 mm 9,8 km/h (2 Bft) NO 40 ° 0 min 0,000 mm 1,4 UV-I 76 W/m² 11,3 °C 26,4 °C 16,1 km/h (3 Bft)
05.06.2019 18:10 26,4 °C 38 % 1001,0 hPa 0,0 mm 12,1 km/h (2 Bft) O-NO 62 ° 0 min 0,000 mm 1,4 UV-I 76 W/m² 10,9 °C 26,4 °C 19,3 km/h (3 Bft)
05.06.2019 18:11 26,4 °C 40 % 1001,1 hPa 0,0 mm 5,0 km/h (1 Bft) O 82 ° 0 min 0,000 mm 1,3 UV-I 76 W/m² 11,7 °C 26,4 °C 9,7 km/h (2 Bft)
05.06.2019 18:12 26,4 °C 39 % 1001,1 hPa 0,0 mm 5,4 km/h (1 Bft) O-NO 71 ° 0 min 0,000 mm 1,3 UV-I 77 W/m² 11,3 °C 26,4 °C 11,3 km/h (2 Bft)
05.06.2019 18:13 26,4 °C 40 % 1001,1 hPa 0,0 mm 6,7 km/h (2 Bft) NO 47 ° 0 min 0,000 mm 1,3 UV-I 74 W/m² 11,7 °C 26,4 °C 11,3 km/h (2 Bft)
05.06.2019 18:14 26,4 °C 42 % 1001,1 hPa 0,0 mm 7,2 km/h (2 Bft) O-SO 103 ° 0 min 0,000 mm 1,3 UV-I 74 W/m² 12,4 °C 26,4 °C 14,5 km/h (3 Bft)
05.06.2019 18:15 26,5 °C 41 % 1001,0 hPa 0,0 mm 4,3 km/h (1 Bft) O 93 ° 0 min 0,000 mm 1,3 UV-I 76 W/m² 12,2 °C 26,5 °C 8,0 km/h (2 Bft)
05.06.2019 18:16 26,5 °C 41 % 1001,1 hPa 0,0 mm 6,0 km/h (2 Bft) N-NO 31 ° 0 min 0,000 mm 1,3 UV-I 79 W/m² 12,2 °C 26,5 °C 11,3 km/h (2 Bft)
05.06.2019 18:17 26,4 °C 41 % 1001,1 hPa 0,0 mm 9,5 km/h (2 Bft) O 82 ° 0 min 0,000 mm 1,3 UV-I 83 W/m² 12,1 °C 26,4 °C 11,3 km/h (2 Bft)
05.06.2019 18:18 26,4 °C 41 % 1001,0 hPa 0,0 mm 9,4 km/h (2 Bft) NO 50 ° 0 min 0,000 mm 1,3 UV-I 74 W/m² 12,1 °C 26,4 °C 16,1 km/h (3 Bft)
05.06.2019 18:19 26,4 °C 41 % 1001,1 hPa 0,0 mm 7,0 km/h (2 Bft) NO 46 ° 0 min 0,000 mm 1,3 UV-I 79 W/m² 12,1 °C 26,4 °C 14,5 km/h (3 Bft)
05.06.2019 18:20 26,4 °C 39 % 1001,1 hPa 0,0 mm 9,7 km/h (2 Bft) NO 39 ° 0 min 0,000 mm 1,3 UV-I 76 W/m² 11,3 °C 26,4 °C 17,7 km/h (3 Bft)
05.06.2019 18:21 26,4 °C 39 % 1001,1 hPa 0,0 mm 5,1 km/h (1 Bft) NO 49 ° 0 min 0,000 mm 1,3 UV-I 79 W/m² 11,3 °C 26,4 °C 9,7 km/h (2 Bft)
05.06.2019 18:22 26,4 °C 39 % 1001,1 hPa 0,0 mm 5,5 km/h (1 Bft) O-NO 69 ° 0 min 0,000 mm 1,3 UV-I 76 W/m² 11,3 °C 26,4 °C 8,0 km/h (2 Bft)
05.06.2019 18:23 26,3 °C 40 % 1001,0 hPa 0,0 mm 5,1 km/h (1 Bft) O 90 ° 0 min 0,000 mm 1,3 UV-I 77 W/m² 11,6 °C 26,3 °C 9,7 km/h (2 Bft)
05.06.2019 18:24 26,3 °C 41 % 1001,1 hPa 0,0 mm 5,5 km/h (1 Bft) NO 49 ° 0 min 0,000 mm 1,3 UV-I 83 W/m² 12,0 °C 26,3 °C 9,7 km/h (2 Bft)
05.06.2019 18:25 26,3 °C 40 % 1000,9 hPa 0,0 mm 6,3 km/h (2 Bft) O-NO 61 ° 0 min 0,000 mm 1,3 UV-I 84 W/m² 11,6 °C 26,3 °C 11,3 km/h (2 Bft)
05.06.2019 18:26 26,3 °C 42 % 1001,0 hPa 0,0 mm 7,7 km/h (2 Bft) O-NO 69 ° 0 min 0,000 mm 1,3 UV-I 118 W/m² 12,3 °C 26,3 °C 11,3 km/h (2 Bft)
05.06.2019 18:27 26,2 °C 43 % 1001,0 hPa 0,0 mm 9,5 km/h (2 Bft) NO 52 ° 0 min 0,000 mm 1,4 UV-I 188 W/m² 12,6 °C 26,2 °C 12,9 km/h (3 Bft)
05.06.2019 18:28 26,2 °C 43 % 1001,0 hPa 0,0 mm 5,3 km/h (1 Bft) N-NO 27 ° 0 min 0,000 mm 1,4 UV-I 264 W/m² 12,6 °C 26,2 °C 8,0 km/h (2 Bft)
05.06.2019 18:29 26,2 °C 43 % 1001,0 hPa 0,0 mm 6,2 km/h (2 Bft) O-NO 57 ° 0 min 0,000 mm 1,6 UV-I 355 W/m² 12,6 °C 26,2 °C 12,9 km/h (3 Bft)
05.06.2019 18:30 26,2 °C 43 % 1000,9 hPa 0,0 mm 5,1 km/h (1 Bft) O 83 ° 0 min 0,000 mm 1,6 UV-I 352 W/m² 12,6 °C 26,2 °C 14,5 km/h (3 Bft)
05.06.2019 18:31 26,2 °C 44 % 1000,9 hPa 0,0 mm 8,0 km/h (2 Bft) NO 46 ° 0 min 0,000 mm 1,6 UV-I 346 W/m² 13,0 °C 26,2 °C 12,9 km/h (3 Bft)
05.06.2019 18:32 26,2 °C 44 % 1001,0 hPa 0,0 mm 9,1 km/h (2 Bft) SO 127 ° 0 min 0,000 mm 1,5 UV-I 338 W/m² 13,0 °C 26,2 °C 14,5 km/h (3 Bft)
05.06.2019 18:33 26,2 °C 45 % 1000,9 hPa 0,0 mm 10,9 km/h (2 Bft) O-NO 78 ° 0 min 0,000 mm 1,5 UV-I 334 W/m² 13,3 °C 26,2 °C 14,5 km/h (3 Bft)
05.06.2019 18:34 26,1 °C 44 % 1000,9 hPa 0,0 mm 9,9 km/h (2 Bft) O-SO 103 ° 0 min 0,000 mm 1,3 UV-I 334 W/m² 12,9 °C 26,1 °C 14,5 km/h (3 Bft)
05.06.2019 18:35 26,0 °C 43 % 1001,0 hPa 0,0 mm 10,1 km/h (2 Bft) O-SO 115 ° 0 min 0,000 mm 1,1 UV-I 130 W/m² 12,4 °C 26,0 °C 12,9 km/h (3 Bft)
05.06.2019 18:36 25,9 °C 45 % 1001,0 hPa 0,0 mm 9,7 km/h (2 Bft) O 82 ° 0 min 0,000 mm 1,1 UV-I 88 W/m² 13,0 °C 25,9 °C 14,5 km/h (3 Bft)
05.06.2019 18:37 25,9 °C 45 % 1000,9 hPa 0,0 mm 9,0 km/h (2 Bft) O-SO 104 ° 0 min 0,000 mm 1,2 UV-I 90 W/m² 13,0 °C 25,9 °C 14,5 km/h (3 Bft)
05.06.2019 18:38 25,9 °C 44 % 1000,9 hPa 0,0 mm 7,3 km/h (2 Bft) NO 51 ° 0 min 0,000 mm 1,3 UV-I 160 W/m² 12,7 °C 25,9 °C 12,9 km/h (3 Bft)
05.06.2019 18:39 25,9 °C 44 % 1000,9 hPa 0,0 mm 4,0 km/h (1 Bft) NO 42 ° 0 min 0,000 mm 1,3 UV-I 95 W/m² 12,7 °C 25,9 °C 6,4 km/h (2 Bft)
05.06.2019 18:40 25,9 °C 44 % 1000,9 hPa 0,0 mm 2,3 km/h (1 Bft) O-NO 58 ° 0 min 0,000 mm 1,3 UV-I 79 W/m² 12,7 °C 25,9 °C 4,8 km/h (1 Bft)
05.06.2019 18:41 25,8 °C 45 % 1000,9 hPa 0,0 mm 3,3 km/h (1 Bft) NO 40 ° 0 min 0,000 mm 1,3 UV-I 127 W/m² 13,0 °C 25,8 °C 6,4 km/h (2 Bft)
05.06.2019 18:42 25,8 °C 44 % 1000,8 hPa 0,0 mm 4,5 km/h (1 Bft) N-NO 31 ° 0 min 0,000 mm 1,3 UV-I 181 W/m² 12,6 °C 25,8 °C 8,0 km/h (2 Bft)
05.06.2019 18:43 25,9 °C 45 % 1000,8 hPa 0,0 mm 6,6 km/h (2 Bft) O-NO 59 ° 0 min 0,000 mm 1,3 UV-I 181 W/m² 13,0 °C 25,9 °C 9,7 km/h (2 Bft)
05.06.2019 18:44 25,8 °C 45 % 1000,9 hPa 0,0 mm 5,8 km/h (2 Bft) O 95 ° 0 min 0,000 mm 1,3 UV-I 295 W/m² 13,0 °C 25,8 °C 14,5 km/h (3 Bft)
05.06.2019 18:45 25,8 °C 48 % 1000,8 hPa 0,0 mm 6,1 km/h (2 Bft) O-NO 76 ° 0 min 0,000 mm 1,3 UV-I 292 W/m² 13,9 °C 25,8 °C 11,3 km/h (2 Bft)
05.06.2019 18:46 25,8 °C 45 % 1000,8 hPa 0,0 mm 8,8 km/h (2 Bft) O-SO 103 ° 0 min 0,000 mm 1,3 UV-I 207 W/m² 13,0 °C 25,8 °C 16,1 km/h (3 Bft)
05.06.2019 18:47 25,8 °C 45 % 1000,8 hPa 0,0 mm 5,9 km/h (2 Bft) O 85 ° 0 min 0,000 mm 1,3 UV-I 139 W/m² 13,0 °C 25,8 °C 11,3 km/h (2 Bft)
05.06.2019 18:48 25,8 °C 45 % 1000,8 hPa 0,0 mm 8,3 km/h (2 Bft) O 86 ° 0 min 0,000 mm 1,2 UV-I 139 W/m² 13,0 °C 25,8 °C 16,1 km/h (3 Bft)
05.06.2019 18:49 25,7 °C 44 % 1000,8 hPa 0,0 mm 5,6 km/h (1 Bft) NO 40 ° 0 min 0,000 mm 1,2 UV-I 274 W/m² 12,5 °C 25,7 °C 14,5 km/h (3 Bft)
05.06.2019 18:50 25,7 °C 45 % 1000,8 hPa 0,0 mm 6,6 km/h (2 Bft) O-SO 120 ° 0 min 0,000 mm 1,1 UV-I 241 W/m² 12,9 °C 25,7 °C 11,3 km/h (2 Bft)
05.06.2019 18:51 25,7 °C 45 % 1000,8 hPa 0,0 mm 3,0 km/h (1 Bft) NO 38 ° 0 min 0,000 mm 1,2 UV-I 172 W/m² 12,9 °C 25,7 °C 6,4 km/h (2 Bft)
05.06.2019 18:52 25,7 °C 45 % 1000,8 hPa 0,0 mm 6,9 km/h (2 Bft) O 92 ° 0 min 0,000 mm 1,1 UV-I 134 W/m² 12,9 °C 25,7 °C 14,5 km/h (3 Bft)
05.06.2019 18:53 25,7 °C 44 % 1000,8 hPa 0,0 mm 9,7 km/h (2 Bft) O-NO 65 ° 0 min 0,000 mm 1,1 UV-I 93 W/m² 12,5 °C 25,7 °C 17,7 km/h (3 Bft)
05.06.2019 18:54 25,8 °C 44 % 1000,8 hPa 0,0 mm 4,3 km/h (1 Bft) NO 52 ° 0 min 0,000 mm 1,0 UV-I 93 W/m² 12,6 °C 25,8 °C 16,1 km/h (3 Bft)
05.06.2019 18:55 25,7 °C 45 % 1000,8 hPa 0,0 mm 10,6 km/h (2 Bft) NO 51 ° 0 min 0,000 mm 1,1 UV-I 257 W/m² 12,9 °C 25,7 °C 14,5 km/h (3 Bft)
05.06.2019 18:56 25,7 °C 45 % 1000,8 hPa 0,0 mm 5,4 km/h (1 Bft) S-SO 158 ° 0 min 0,000 mm 1,1 UV-I 246 W/m² 12,9 °C 25,7 °C 12,9 km/h (3 Bft)
05.06.2019 18:57 25,7 °C 45 % 1000,8 hPa 0,0 mm 4,1 km/h (1 Bft) NO 38 ° 0 min 0,000 mm 1,1 UV-I 253 W/m² 12,9 °C 25,7 °C 8,0 km/h (2 Bft)
05.06.2019 18:58 25,7 °C 45 % 1000,8 hPa 0,0 mm 9,8 km/h (2 Bft) NO 55 ° 0 min 0,000 mm 1,1 UV-I 237 W/m² 12,9 °C 25,7 °C 14,5 km/h (3 Bft)
05.06.2019 18:59 25,6 °C 45 % 1000,8 hPa 0,0 mm 5,9 km/h (2 Bft) O-NO 67 ° 0 min 0,000 mm 1,0 UV-I 241 W/m² 12,8 °C 25,6 °C 14,5 km/h (3 Bft)
05.06.2019 19:00 25,6 °C 45 % 1000,8 hPa 0,0 mm 5,0 km/h (1 Bft) O-NO 63 ° 0 min 0,000 mm 1,0 UV-I 239 W/m² 12,8 °C 25,6 °C 8,0 km/h (2 Bft)
05.06.2019 19:01 25,7 °C 45 % 1000,8 hPa 0,0 mm 11,1 km/h (2 Bft) O-NO 75 ° 0 min 0,178 mm 1,0 UV-I 237 W/m² 12,9 °C 25,7 °C 22,5 km/h (4 Bft)
05.06.2019 19:02 25,7 °C 45 % 1000,8 hPa 0,0 mm 13,7 km/h (3 Bft) O-NO 63 ° 0 min 0,000 mm 1,0 UV-I 237 W/m² 12,9 °C 25,7 °C 17,7 km/h (3 Bft)
05.06.2019 19:03 25,6 °C 45 % 1000,8 hPa 0,0 mm 5,2 km/h (1 Bft) NO 54 ° 0 min 0,000 mm 1,0 UV-I 223 W/m² 12,8 °C 25,6 °C 8,0 km/h (2 Bft)
05.06.2019 19:04 25,6 °C 47 % 1000,8 hPa 0,0 mm 7,6 km/h (2 Bft) O-NO 71 ° 0 min 0,000 mm 1,0 UV-I 223 W/m² 13,4 °C 25,6 °C 8,0 km/h (2 Bft)
05.06.2019 19:05 25,6 °C 45 % 1000,8 hPa 0,0 mm 12,7 km/h (3 Bft) O 90 ° 0 min 0,000 mm 0,9 UV-I 134 W/m² 12,8 °C 25,6 °C 19,3 km/h (3 Bft)
05.06.2019 19:06 25,6 °C 45 % 1000,8 hPa 0,0 mm 7,7 km/h (2 Bft) O-NO 59 ° 0 min 0,000 mm 0,9 UV-I 67 W/m² 12,8 °C 25,6 °C 14,5 km/h (3 Bft)
05.06.2019 19:07 25,5 °C 45 % 1000,8 hPa 0,0 mm 9,2 km/h (2 Bft) NO 49 ° 0 min 0,000 mm 1,0 UV-I 69 W/m² 12,7 °C 25,5 °C 14,5 km/h (3 Bft)
05.06.2019 19:08 25,5 °C 45 % 1000,8 hPa 0,0 mm 7,3 km/h (2 Bft) O 98 ° 0 min 0,000 mm 0,9 UV-I 149 W/m² 12,7 °C 25,5 °C 11,3 km/h (2 Bft)
05.06.2019 19:09 25,5 °C 46 % 1000,7 hPa 0,0 mm 8,4 km/h (2 Bft) O-NO 71 ° 0 min 0,000 mm 0,9 UV-I 207 W/m² 13,0 °C 25,5 °C 14,5 km/h (3 Bft)
05.06.2019 19:10 25,4 °C 48 % 1000,8 hPa 0,0 mm 7,5 km/h (2 Bft) O 94 ° 0 min 0,000 mm 0,9 UV-I 218 W/m² 13,6 °C 25,4 °C 11,3 km/h (2 Bft)
05.06.2019 19:11 25,4 °C 50 % 1000,8 hPa 0,0 mm 3,8 km/h (1 Bft) SO 136 ° 0 min 0,000 mm 0,9 UV-I 218 W/m² 14,2 °C 25,4 °C 6,4 km/h (2 Bft)
05.06.2019 19:12 25,3 °C 48 % 1000,8 hPa 0,0 mm 6,4 km/h (2 Bft) O-NO 61 ° 0 min 0,000 mm 0,9 UV-I 114 W/m² 13,5 °C 25,3 °C 12,9 km/h (3 Bft)
05.06.2019 19:13 25,3 °C 49 % 1000,7 hPa 0,0 mm 11,3 km/h (2 Bft) O 84 ° 0 min 0,000 mm 0,9 UV-I 153 W/m² 13,8 °C 25,3 °C 17,7 km/h (3 Bft)
05.06.2019 19:14 25,3 °C 49 % 1000,7 hPa 0,0 mm 7,1 km/h (2 Bft) O-NO 68 ° 0 min 0,000 mm 0,9 UV-I 204 W/m² 13,8 °C 25,3 °C 9,7 km/h (2 Bft)
05.06.2019 19:15 25,3 °C 48 % 1000,6 hPa 0,0 mm 15,1 km/h (3 Bft) O-SO 110 ° 0 min 0,000 mm 0,8 UV-I 202 W/m² 13,5 °C 25,3 °C 19,3 km/h (3 Bft)
05.06.2019 19:16 25,2 °C 50 % 1000,8 hPa 0,0 mm 3,4 km/h (1 Bft) O-NO 58 ° 0 min 0,000 mm 0,8 UV-I 200 W/m² 14,0 °C 25,2 °C 6,4 km/h (2 Bft)
05.06.2019 19:17 25,2 °C 51 % 1000,7 hPa 0,0 mm 4,8 km/h (1 Bft) NO 54 ° 0 min 0,000 mm 0,8 UV-I 199 W/m² 14,3 °C 25,2 °C 6,4 km/h (2 Bft)
05.06.2019 19:18 25,1 °C 50 % 1000,8 hPa 0,0 mm 8,5 km/h (2 Bft) O-NO 57 ° 0 min 0,000 mm 0,8 UV-I 197 W/m² 13,9 °C 25,1 °C 14,5 km/h (3 Bft)
05.06.2019 19:19 25,1 °C 50 % 1000,8 hPa 0,0 mm 9,7 km/h (2 Bft) O 98 ° 0 min 0,000 mm 0,8 UV-I 195 W/m² 13,9 °C 25,1 °C 14,5 km/h (3 Bft)
05.06.2019 19:20 25,1 °C 51 % 1000,7 hPa 0,0 mm 6,0 km/h (2 Bft) O-NO 69 ° 0 min 0,000 mm 0,8 UV-I 193 W/m² 14,2 °C 25,1 °C 12,9 km/h (3 Bft)
05.06.2019 19:21 25,1 °C 51 % 1000,7 hPa 0,0 mm 8,0 km/h (2 Bft) O 79 ° 0 min 0,000 mm 0,8 UV-I 190 W/m² 14,2 °C 25,1 °C 16,1 km/h (3 Bft)
05.06.2019 19:22 25,0 °C 53 % 1000,8 hPa 0,0 mm 6,9 km/h (2 Bft) N-NO 15 ° 0 min 0,000 mm 0,8 UV-I 188 W/m² 14,7 °C 25,0 °C 14,5 km/h (3 Bft)
05.06.2019 19:23 25,0 °C 51 % 1000,7 hPa 0,0 mm 6,3 km/h (2 Bft) O 86 ° 0 min 0,000 mm 0,8 UV-I 185 W/m² 14,1 °C 25,0 °C 12,9 km/h (3 Bft)
05.06.2019 19:24 25,1 °C 52 % 1000,7 hPa 0,0 mm 7,9 km/h (2 Bft) O-NO 60 ° 0 min 0,000 mm 0,7 UV-I 183 W/m² 14,5 °C 25,1 °C 14,5 km/h (3 Bft)
05.06.2019 19:25 24,9 °C 52 % 1000,7 hPa 0,0 mm 5,3 km/h (1 Bft) N-NO 27 ° 0 min 0,000 mm 0,7 UV-I 179 W/m² 14,4 °C 24,9 °C 8,0 km/h (2 Bft)
05.06.2019 19:26 25,0 °C 52 % 1000,7 hPa 0,0 mm 4,6 km/h (1 Bft) O 98 ° 0 min 0,000 mm 0,7 UV-I 176 W/m² 14,4 °C 25,0 °C 8,0 km/h (2 Bft)
05.06.2019 19:27 24,9 °C 52 % 1000,7 hPa 0,0 mm 6,8 km/h (2 Bft) O 80 ° 0 min 0,000 mm 0,7 UV-I 172 W/m² 14,4 °C 24,9 °C 9,7 km/h (2 Bft)
05.06.2019 19:28 25,0 °C 52 % 1000,7 hPa 0,0 mm 6,0 km/h (2 Bft) O 80 ° 0 min 0,000 mm 0,7 UV-I 169 W/m² 14,4 °C 25,0 °C 11,3 km/h (2 Bft)
05.06.2019 19:29 24,9 °C 51 % 1000,6 hPa 0,0 mm 6,7 km/h (2 Bft) NO 47 ° 0 min 0,000 mm 0,7 UV-I 167 W/m² 14,1 °C 24,9 °C 12,9 km/h (3 Bft)
05.06.2019 19:30 24,9 °C 52 % 1000,6 hPa 0,0 mm 8,0 km/h (2 Bft) O 99 ° 0 min 0,000 mm 0,7 UV-I 165 W/m² 14,4 °C 24,9 °C 12,9 km/h (3 Bft)
05.06.2019 19:31 24,9 °C 51 % 1000,6 hPa 0,0 mm 10,3 km/h (2 Bft) NO 47 ° 0 min 0,000 mm 0,7 UV-I 162 W/m² 14,1 °C 24,9 °C 16,1 km/h (3 Bft)
05.06.2019 19:32 24,9 °C 51 % 1000,6 hPa 0,0 mm 8,5 km/h (2 Bft) O-NO 74 ° 0 min 0,000 mm 0,6 UV-I 160 W/m² 14,1 °C 24,9 °C 16,1 km/h (3 Bft)
05.06.2019 19:33 24,9 °C 52 % 1000,6 hPa 0,0 mm 3,3 km/h (1 Bft) O 82 ° 0 min 0,000 mm 0,6 UV-I 153 W/m² 14,4 °C 24,9 °C 9,7 km/h (2 Bft)
05.06.2019 19:34 24,8 °C 52 % 1000,6 hPa 0,0 mm 12,6 km/h (3 Bft) O 82 ° 0 min 0,000 mm 0,6 UV-I 151 W/m² 14,3 °C 24,8 °C 17,7 km/h (3 Bft)
05.06.2019 19:35 24,8 °C 52 % 1000,6 hPa 0,0 mm 10,3 km/h (2 Bft) NO 43 ° 0 min 0,000 mm 0,6 UV-I 149 W/m² 14,3 °C 24,8 °C 19,3 km/h (3 Bft)
05.06.2019 19:36 24,8 °C 52 % 1000,6 hPa 0,0 mm 7,2 km/h (2 Bft) O-NO 75 ° 0 min 0,000 mm 0,6 UV-I 148 W/m² 14,3 °C 24,8 °C 14,5 km/h (3 Bft)
05.06.2019 19:37 24,8 °C 54 % 1000,6 hPa 0,0 mm 3,9 km/h (1 Bft) O-NO 65 ° 0 min 0,000 mm 0,6 UV-I 144 W/m² 14,8 °C 24,8 °C 6,4 km/h (2 Bft)
05.06.2019 19:38 24,7 °C 52 % 1000,6 hPa 0,0 mm 4,2 km/h (1 Bft) O-NO 66 ° 0 min 0,000 mm 0,6 UV-I 141 W/m² 14,2 °C 24,7 °C 6,4 km/h (2 Bft)
05.06.2019 19:39 24,7 °C 53 % 1000,6 hPa 0,0 mm 4,3 km/h (1 Bft) NO 56 ° 0 min 0,000 mm 0,6 UV-I 137 W/m² 14,5 °C 24,7 °C 8,0 km/h (2 Bft)
05.06.2019 19:40 24,7 °C 53 % 1000,5 hPa 0,0 mm 9,5 km/h (2 Bft) O-NO 58 ° 0 min 0,000 mm 0,6 UV-I 135 W/m² 14,5 °C 24,7 °C 20,9 km/h (4 Bft)
05.06.2019 19:41 24,7 °C 52 % 1000,5 hPa 0,0 mm 10,6 km/h (2 Bft) NO 56 ° 0 min 0,000 mm 0,6 UV-I 132 W/m² 14,2 °C 24,7 °C 19,3 km/h (3 Bft)
05.06.2019 19:42 24,6 °C 52 % 1000,6 hPa 0,0 mm 9,4 km/h (2 Bft) SO 138 ° 0 min 0,000 mm 0,5 UV-I 130 W/m² 14,1 °C 24,6 °C 14,5 km/h (3 Bft)
05.06.2019 19:43 24,6 °C 53 % 1000,6 hPa 0,0 mm 5,8 km/h (2 Bft) O 85 ° 0 min 0,000 mm 0,5 UV-I 128 W/m² 14,4 °C 24,6 °C 12,9 km/h (3 Bft)
05.06.2019 19:44 24,6 °C 55 % 1000,5 hPa 0,0 mm 5,5 km/h (1 Bft) O 94 ° 0 min 0,000 mm 0,5 UV-I 127 W/m² 14,9 °C 24,6 °C 11,3 km/h (2 Bft)
05.06.2019 19:45 24,4 °C 53 % 1000,5 hPa 0,0 mm 5,0 km/h (1 Bft) NO 48 ° 0 min 0,000 mm 0,5 UV-I 123 W/m² 14,2 °C 24,4 °C 9,7 km/h (2 Bft)
05.06.2019 19:46 24,4 °C 53 % 1000,5 hPa 0,0 mm 13,6 km/h (3 Bft) O-NO 62 ° 0 min 0,000 mm 0,5 UV-I 121 W/m² 14,2 °C 24,4 °C 19,3 km/h (3 Bft)
05.06.2019 19:47 24,4 °C 53 % 1000,6 hPa 0,0 mm 5,2 km/h (1 Bft) O 100 ° 0 min 0,000 mm 0,5 UV-I 118 W/m² 14,2 °C 24,4 °C 9,7 km/h (2 Bft)
05.06.2019 19:48 24,3 °C 54 % 1000,6 hPa 0,0 mm 6,6 km/h (2 Bft) O-NO 65 ° 0 min 0,000 mm 0,5 UV-I 114 W/m² 14,4 °C 24,3 °C 9,7 km/h (2 Bft)
05.06.2019 19:49 24,3 °C 55 % 1000,6 hPa 0,0 mm 3,7 km/h (1 Bft) O-NO 58 ° 0 min 0,000 mm 0,5 UV-I 113 W/m² 14,7 °C 24,3 °C 8,0 km/h (2 Bft)
05.06.2019 19:50 24,3 °C 54 % 1000,5 hPa 0,0 mm 3,2 km/h (1 Bft) O-NO 59 ° 0 min 0,000 mm 0,5 UV-I 109 W/m² 14,4 °C 24,3 °C 4,8 km/h (1 Bft)
05.06.2019 19:51 24,2 °C 55 % 1000,6 hPa 0,0 mm 6,4 km/h (2 Bft) O 94 ° 0 min 0,000 mm 0,5 UV-I 105 W/m² 14,6 °C 24,2 °C 14,5 km/h (3 Bft)
05.06.2019 19:52 24,2 °C 54 % 1000,6 hPa 0,0 mm 5,1 km/h (1 Bft) O 82 ° 0 min 0,000 mm 0,0 UV-I 104 W/m² 14,3 °C 24,2 °C 11,3 km/h (2 Bft)
05.06.2019 19:53 24,2 °C 53 % 1000,5 hPa 0,0 mm 10,1 km/h (2 Bft) O-NO 68 ° 0 min 0,000 mm 0,0 UV-I 100 W/m² 14,0 °C 24,2 °C 16,1 km/h (3 Bft)
05.06.2019 19:54 24,2 °C 53 % 1000,6 hPa 0,0 mm 7,3 km/h (2 Bft) NO 41 ° 0 min 0,000 mm 0,0 UV-I 98 W/m² 14,0 °C 24,2 °C 11,3 km/h (2 Bft)
05.06.2019 19:55 24,2 °C 53 % 1000,6 hPa 0,0 mm 1,9 km/h (1 Bft) O-NO 63 ° 0 min 0,000 mm 0,0 UV-I 97 W/m² 14,0 °C 24,2 °C 4,8 km/h (1 Bft)
05.06.2019 19:56 24,1 °C 54 % 1000,6 hPa 0,0 mm 4,1 km/h (1 Bft) O-SO 107 ° 0 min 0,000 mm 0,0 UV-I 93 W/m² 14,2 °C 24,1 °C 6,4 km/h (2 Bft)
05.06.2019 19:57 24,1 °C 54 % 1000,5 hPa 0,0 mm 5,1 km/h (1 Bft) O-NO 71 ° 0 min 0,000 mm 0,0 UV-I 91 W/m² 14,2 °C 24,1 °C 6,4 km/h (2 Bft)
05.06.2019 19:58 24,0 °C 55 % 1000,5 hPa 0,0 mm 4,3 km/h (1 Bft) O-NO 57 ° 0 min 0,000 mm 0,0 UV-I 90 W/m² 14,4 °C 24,0 °C 9,7 km/h (2 Bft)
05.06.2019 19:59 23,9 °C 55 % 1000,5 hPa 0,0 mm 3,9 km/h (1 Bft) O-SO 103 ° 0 min 0,000 mm 0,0 UV-I 90 W/m² 14,3 °C 23,9 °C 6,4 km/h (2 Bft)
05.06.2019 20:00 23,8 °C 58 % 1000,6 hPa 0,0 mm 5,6 km/h (1 Bft) NO 41 ° 0 min 0,000 mm 0,0 UV-I 88 W/m² 15,0 °C 23,8 °C 11,3 km/h (2 Bft)
05.06.2019 20:01 23,8 °C 56 % 1000,6 hPa 0,0 mm 6,7 km/h (2 Bft) O 94 ° 0 min 0,152 mm 0,0 UV-I 84 W/m² 14,5 °C 23,8 °C 8,0 km/h (2 Bft)
05.06.2019 20:02 23,7 °C 56 % 1000,6 hPa 0,0 mm 2,6 km/h (1 Bft) N-NO 32 ° 0 min 0,000 mm 0,0 UV-I 81 W/m² 14,4 °C 23,7 °C 4,8 km/h (1 Bft)
05.06.2019 20:03 23,7 °C 56 % 1000,6 hPa 0,0 mm 4,5 km/h (1 Bft) NO 51 ° 0 min 0,000 mm 0,0 UV-I 79 W/m² 14,4 °C 23,7 °C 14,5 km/h (3 Bft)
05.06.2019 20:04 23,7 °C 56 % 1000,6 hPa 0,0 mm 2,7 km/h (1 Bft) O 90 ° 0 min 0,000 mm 0,0 UV-I 77 W/m² 14,4 °C 23,7 °C 4,8 km/h (1 Bft)
05.06.2019 20:05 23,7 °C 55 % 1000,6 hPa 0,0 mm 0,2 km/h (0 Bft) O 90 ° 0 min 0,000 mm 0,0 UV-I 76 W/m² 14,1 °C 23,7 °C 1,6 km/h (1 Bft)
05.06.2019 20:06 23,6 °C 55 % 1000,6 hPa 0,0 mm 0,1 km/h (0 Bft) O 90 ° 0 min 0,000 mm 0,0 UV-I 74 W/m² 14,0 °C 23,6 °C 1,6 km/h (1 Bft)
05.06.2019 20:07 23,6 °C 57 % 1000,6 hPa 0,0 mm 0,6 km/h (0 Bft) O 90 ° 0 min 0,000 mm 0,0 UV-I 72 W/m² 14,6 °C 23,6 °C 1,6 km/h (1 Bft)
05.06.2019 20:08 23,5 °C 57 % 1000,6 hPa 0,0 mm 0,8 km/h (0 Bft) O 90 ° 0 min 0,000 mm 0,0 UV-I 69 W/m² 14,5 °C 23,5 °C 3,2 km/h (1 Bft)
05.06.2019 20:09 23,4 °C 58 % 1000,6 hPa 0,0 mm 2,9 km/h (1 Bft) O 82 ° 0 min 0,000 mm 0,0 UV-I 67 W/m² 14,7 °C 23,4 °C 4,8 km/h (1 Bft)
05.06.2019 20:10 23,3 °C 59 % 1000,6 hPa 0,0 mm 1,0 km/h (0 Bft) O 82 ° 0 min 0,000 mm 0,0 UV-I 65 W/m² 14,8 °C 23,3 °C 3,2 km/h (1 Bft)
05.06.2019 20:11 23,3 °C 57 % 1000,6 hPa 0,0 mm 4,4 km/h (1 Bft) N 10 ° 0 min 0,000 mm 0,0 UV-I 63 W/m² 14,3 °C 23,3 °C 8,0 km/h (2 Bft)
05.06.2019 20:12 23,3 °C 58 % 1000,6 hPa 0,0 mm 2,1 km/h (1 Bft) O-SO 118 ° 0 min 0,000 mm 0,0 UV-I 54 W/m² 14,6 °C 23,3 °C 4,8 km/h (1 Bft)
05.06.2019 20:13 23,2 °C 59 % 1000,6 hPa 0,0 mm 2,9 km/h (1 Bft) SO 133 ° 0 min 0,000 mm 0,0 UV-I 40 W/m² 14,7 °C 23,2 °C 8,0 km/h (2 Bft)
05.06.2019 20:14 23,2 °C 57 % 1000,6 hPa 0,0 mm 0,0 km/h (0 Bft) SO 133 ° 0 min 0,000 mm 0,0 UV-I 33 W/m² 14,2 °C 23,2 °C 0,0 km/h (0 Bft)
05.06.2019 20:15 23,2 °C 58 % 1000,6 hPa 0,0 mm 0,0 km/h (0 Bft) SO 133 ° 0 min 0,000 mm 0,0 UV-I 32 W/m² 14,5 °C 23,2 °C 0,0 km/h (0 Bft)
05.06.2019 20:16 23,1 °C 58 % 1000,6 hPa 0,0 mm 0,9 km/h (0 Bft) SO 136 ° 0 min 0,000 mm 0,0 UV-I 28 W/m² 14,4 °C 23,1 °C 3,2 km/h (1 Bft)
05.06.2019 20:17 22,9 °C 60 % 1000,6 hPa 0,0 mm 2,3 km/h (1 Bft) SO 138 ° 0 min 0,000 mm 0,0 UV-I 28 W/m² 14,7 °C 22,9 °C 4,8 km/h (1 Bft)
05.06.2019 20:18 22,8 °C 60 % 1000,6 hPa 0,0 mm 0,0 km/h (0 Bft) SO 138 ° 0 min 0,000 mm 0,0 UV-I 26 W/m² 14,6 °C 22,8 °C 0,0 km/h (0 Bft)
05.06.2019 20:19 22,7 °C 61 % 1000,6 hPa 0,0 mm 0,0 km/h (0 Bft) SO 138 ° 0 min 0,000 mm 0,0 UV-I 26 W/m² 14,8 °C 22,7 °C 0,0 km/h (0 Bft)
05.06.2019 20:20 22,6 °C 60 % 1000,6 hPa 0,0 mm 0,0 km/h (0 Bft) SO 138 ° 0 min 0,000 mm 0,0 UV-I 26 W/m² 14,4 °C 22,6 °C 0,0 km/h (0 Bft)
05.06.2019 20:21 22,6 °C 60 % 1000,6 hPa 0,0 mm 0,0 km/h (0 Bft) SO 138 ° 0 min 0,000 mm 0,0 UV-I 26 W/m² 14,4 °C 22,6 °C 0,0 km/h (0 Bft)
05.06.2019 20:22 22,6 °C 60 % 1000,6 hPa 0,0 mm 0,0 km/h (0 Bft) SO 138 ° 0 min 0,000 mm 0,0 UV-I 26 W/m² 14,4 °C 22,6 °C 0,0 km/h (0 Bft)
05.06.2019 20:23 22,5 °C 60 % 1000,6 hPa 0,0 mm 0,0 km/h (0 Bft) SO 138 ° 0 min 0,000 mm 0,0 UV-I 28 W/m² 14,3 °C 22,5 °C 0,0 km/h (0 Bft)
05.06.2019 20:24 22,4 °C 61 % 1000,6 hPa 0,0 mm 0,3 km/h (0 Bft) SO 138 ° 0 min 0,000 mm 0,0 UV-I 28 W/m² 14,5 °C 22,4 °C 1,6 km/h (1 Bft)
05.06.2019 20:25 22,4 °C 60 % 1000,5 hPa 0,0 mm 0,1 km/h (0 Bft) SO 138 ° 0 min 0,000 mm 0,0 UV-I 25 W/m² 14,2 °C 22,4 °C 1,6 km/h (1 Bft)
05.06.2019 20:26 22,3 °C 60 % 1000,5 hPa 0,0 mm 1,2 km/h (1 Bft) SO 138 ° 0 min 0,000 mm 0,0 UV-I 21 W/m² 14,2 °C 22,3 °C 3,2 km/h (1 Bft)
05.06.2019 20:27 22,2 °C 63 % 1000,5 hPa 0,0 mm 0,2 km/h (0 Bft) SO 138 ° 0 min 0,000 mm 0,0 UV-I 19 W/m² 14,8 °C 22,2 °C 1,6 km/h (1 Bft)
05.06.2019 20:28 22,1 °C 62 % 1000,5 hPa 0,0 mm 0,3 km/h (0 Bft) SO 138 ° 0 min 0,000 mm 0,0 UV-I 18 W/m² 14,5 °C 22,1 °C 1,6 km/h (1 Bft)
05.06.2019 20:29 21,9 °C 64 % 1000,5 hPa 0,0 mm 0,9 km/h (0 Bft) SO 138 ° 0 min 0,000 mm 0,0 UV-I 18 W/m² 14,8 °C 21,9 °C 3,2 km/h (1 Bft)
05.06.2019 20:30 21,8 °C 63 % 1000,6 hPa 0,0 mm 0,1 km/h (0 Bft) SO 138 ° 0 min 0,000 mm 0,0 UV-I 18 W/m² 14,4 °C 21,8 °C 1,6 km/h (1 Bft)
05.06.2019 20:31 21,7 °C 64 % 1000,5 hPa 0,0 mm 0,7 km/h (0 Bft) SO 138 ° 0 min 0,000 mm 0,0 UV-I 18 W/m² 14,6 °C 21,7 °C 1,6 km/h (1 Bft)
05.06.2019 20:32 21,7 °C 62 % 1000,5 hPa 0,0 mm 2,3 km/h (1 Bft) SO 138 ° 0 min 0,000 mm 0,0 UV-I 18 W/m² 14,1 °C 21,7 °C 4,8 km/h (1 Bft)
05.06.2019 20:33 21,6 °C 63 % 1000,4 hPa 0,0 mm 0,4 km/h (0 Bft) SO 138 ° 0 min 0,000 mm 0,0 UV-I 16 W/m² 14,2 °C 21,6 °C 1,6 km/h (1 Bft)
05.06.2019 20:34 21,6 °C 65 % 1000,5 hPa 0,0 mm 0,0 km/h (0 Bft) SO 138 ° 0 min 0,000 mm 0,0 UV-I 16 W/m² 14,7 °C 21,6 °C 0,0 km/h (0 Bft)
05.06.2019 20:35 21,5 °C 64 % 1000,5 hPa 0,0 mm 1,3 km/h (1 Bft) SO 138 ° 0 min 0,000 mm 0,0 UV-I 14 W/m² 14,4 °C 21,5 °C 3,2 km/h (1 Bft)
05.06.2019 20:36 21,4 °C 65 % 1000,4 hPa 0,0 mm 2,3 km/h (1 Bft) SO 138 ° 0 min 0,000 mm 0,0 UV-I 14 W/m² 14,5 °C 21,4 °C 3,2 km/h (1 Bft)
05.06.2019 20:37 21,3 °C 64 % 1000,5 hPa 0,0 mm 2,6 km/h (1 Bft) SO 127 ° 0 min 0,000 mm 0,0 UV-I 14 W/m² 14,2 °C 21,3 °C 4,8 km/h (1 Bft)
05.06.2019 20:38 21,3 °C 66 % 1000,5 hPa 0,0 mm 1,2 km/h (1 Bft) SO 127 ° 0 min 0,000 mm 0,0 UV-I 14 W/m² 14,7 °C 21,3 °C 3,2 km/h (1 Bft)
05.06.2019 20:39 21,2 °C 65 % 1000,5 hPa 0,0 mm 2,0 km/h (1 Bft) SO 127 ° 0 min 0,000 mm 0,0 UV-I 14 W/m² 14,4 °C 21,2 °C 3,2 km/h (1 Bft)
05.06.2019 20:40 21,2 °C 64 % 1000,5 hPa 0,0 mm 0,1 km/h (0 Bft) SO 127 ° 0 min 0,000 mm 0,0 UV-I 12 W/m² 14,1 °C 21,2 °C 1,6 km/h (1 Bft)
05.06.2019 20:41 21,2 °C 65 % 1000,5 hPa 0,0 mm 1,1 km/h (1 Bft) SO 127 ° 0 min 0,000 mm 0,0 UV-I 12 W/m² 14,4 °C 21,2 °C 3,2 km/h (1 Bft)
05.06.2019 20:42 21,2 °C 63 % 1000,5 hPa 0,0 mm 1,5 km/h (1 Bft) SO 127 ° 0 min 0,000 mm 0,0 UV-I 12 W/m² 13,9 °C 21,2 °C 3,2 km/h (1 Bft)
05.06.2019 20:43 21,2 °C 65 % 1000,5 hPa 0,0 mm 2,0 km/h (1 Bft) SO 127 ° 0 min 0,000 mm 0,0 UV-I 12 W/m² 14,4 °C 21,2 °C 3,2 km/h (1 Bft)
05.06.2019 20:44 21,1 °C 65 % 1000,5 hPa 0,0 mm 2,8 km/h (1 Bft) SO 127 ° 0 min 0,000 mm 0,0 UV-I 12 W/m² 14,3 °C 21,1 °C 4,8 km/h (1 Bft)
05.06.2019 20:45 21,1 °C 63 % 1000,5 hPa 0,0 mm 2,0 km/h (1 Bft) SO 127 ° 0 min 0,000 mm 0,0 UV-I 12 W/m² 13,8 °C 21,1 °C 4,8 km/h (1 Bft)
05.06.2019 20:46 21,1 °C 65 % 1000,5 hPa 0,0 mm 2,7 km/h (1 Bft) SO 127 ° 0 min 0,000 mm 0,0 UV-I 12 W/m² 14,3 °C 21,1 °C 4,8 km/h (1 Bft)
05.06.2019 20:47 21,1 °C 65 % 1000,5 hPa 0,0 mm 1,9 km/h (1 Bft) SO 127 ° 0 min 0,000 mm 0,0 UV-I 11 W/m² 14,3 °C 21,1 °C 4,8 km/h (1 Bft)
05.06.2019 20:48 21,0 °C 65 % 1000,5 hPa 0,0 mm 0,0 km/h (0 Bft) SO 127 ° 0 min 0,000 mm 0,0 UV-I 11 W/m² 14,2 °C 21,0 °C 0,0 km/h (0 Bft)
05.06.2019 20:49 21,0 °C 65 % 1000,5 hPa 0,0 mm 0,0 km/h (0 Bft) SO 127 ° 0 min 0,000 mm 0,0 UV-I 9 W/m² 14,2 °C 21,0 °C 0,0 km/h (0 Bft)
05.06.2019 20:50 20,9 °C 65 % 1000,5 hPa 0,0 mm 0,4 km/h (0 Bft) SO 127 ° 0 min 0,000 mm 0,0 UV-I 9 W/m² 14,1 °C 20,9 °C 1,6 km/h (1 Bft)
05.06.2019 20:51 20,9 °C 64 % 1000,5 hPa 0,0 mm 0,3 km/h (0 Bft) SO 127 ° 0 min 0,000 mm 0,0 UV-I 9 W/m² 13,8 °C 20,9 °C 1,6 km/h (1 Bft)
05.06.2019 20:52 20,9 °C 64 % 1000,5 hPa 0,0 mm 2,0 km/h (1 Bft) SO 127 ° 0 min 0,000 mm 0,0 UV-I 9 W/m² 13,8 °C 20,9 °C 3,2 km/h (1 Bft)
05.06.2019 20:53 20,9 °C 64 % 1000,4 hPa 0,0 mm 0,3 km/h (0 Bft) SO 127 ° 0 min 0,000 mm 0,0 UV-I 9 W/m² 13,8 °C 20,9 °C 1,6 km/h (1 Bft)
05.06.2019 20:54 21,0 °C 64 % 1000,5 hPa 0,0 mm 2,3 km/h (1 Bft) SO 127 ° 0 min 0,000 mm 0,0 UV-I 9 W/m² 13,9 °C 21,0 °C 4,8 km/h (1 Bft)
05.06.2019 20:55 21,0 °C 64 % 1000,5 hPa 0,0 mm 0,1 km/h (0 Bft) SO 127 ° 0 min 0,000 mm 0,0 UV-I 9 W/m² 13,9 °C 21,0 °C 1,6 km/h (1 Bft)
05.06.2019 20:56 21,0 °C 64 % 1000,5 hPa 0,0 mm 3,0 km/h (1 Bft) O-SO 119 ° 0 min 0,000 mm 0,0 UV-I 7 W/m² 13,9 °C 21,0 °C 4,8 km/h (1 Bft)
05.06.2019 20:57 21,0 °C 64 % 1000,4 hPa 0,0 mm 2,3 km/h (1 Bft) O-SO 119 ° 0 min 0,000 mm 0,0 UV-I 7 W/m² 13,9 °C 21,0 °C 3,2 km/h (1 Bft)
05.06.2019 20:58 21,0 °C 63 % 1000,5 hPa 0,0 mm 1,5 km/h (1 Bft) O-SO 119 ° 0 min 0,000 mm 0,0 UV-I 7 W/m² 13,7 °C 21,0 °C 4,8 km/h (1 Bft)
05.06.2019 20:59 21,0 °C 64 % 1000,5 hPa 0,0 mm 0,2 km/h (0 Bft) O-SO 119 ° 0 min 0,000 mm 0,0 UV-I 7 W/m² 13,9 °C 21,0 °C 1,6 km/h (1 Bft)
05.06.2019 21:00 20,9 °C 64 % 1000,5 hPa 0,0 mm 1,4 km/h (1 Bft) O-SO 119 ° 0 min 0,000 mm 0,0 UV-I 7 W/m² 13,8 °C 20,9 °C 4,8 km/h (1 Bft)
05.06.2019 21:01 20,9 °C 64 % 1000,5 hPa 0,0 mm 1,7 km/h (1 Bft) O-SO 119 ° 0 min 0,025 mm 0,0 UV-I 5 W/m² 13,8 °C 20,9 °C 3,2 km/h (1 Bft)
05.06.2019 21:02 20,8 °C 65 % 1000,5 hPa 0,0 mm 2,0 km/h (1 Bft) O-SO 119 ° 0 min 0,000 mm 0,0 UV-I 5 W/m² 14,0 °C 20,8 °C 3,2 km/h (1 Bft)
05.06.2019 21:03 20,8 °C 64 % 1000,5 hPa 0,0 mm 1,6 km/h (1 Bft) W-SW 242 ° 0 min 0,000 mm 0,0 UV-I 5 W/m² 13,7 °C 20,8 °C 4,8 km/h (1 Bft)
05.06.2019 21:04 20,8 °C 63 % 1000,5 hPa 0,0 mm 2,3 km/h (1 Bft) S-SO 159 ° 0 min 0,000 mm 0,0 UV-I 5 W/m² 13,5 °C 20,8 °C 8,0 km/h (2 Bft)
05.06.2019 21:05 20,8 °C 63 % 1000,5 hPa 0,0 mm 0,0 km/h (0 Bft) S-SO 159 ° 0 min 0,000 mm 0,0 UV-I 5 W/m² 13,5 °C 20,8 °C 0,0 km/h (0 Bft)
05.06.2019 21:06 20,9 °C 62 % 1000,6 hPa 0,0 mm 1,1 km/h (1 Bft) O-SO 109 ° 0 min 0,000 mm 0,0 UV-I 5 W/m² 13,3 °C 20,9 °C 3,2 km/h (1 Bft)
05.06.2019 21:07 21,1 °C 61 % 1000,6 hPa 0,0 mm 0,1 km/h (0 Bft) O-SO 109 ° 0 min 0,000 mm 0,0 UV-I 0 W/m² 13,3 °C 21,1 °C 1,6 km/h (1 Bft)
05.06.2019 21:08 21,1 °C 62 % 1000,5 hPa 0,0 mm 2,0 km/h (1 Bft) O-SO 110 ° 0 min 0,000 mm 0,0 UV-I 0 W/m² 13,5 °C 21,1 °C 4,8 km/h (1 Bft)
05.06.2019 21:09 21,2 °C 60 % 1000,5 hPa 0,0 mm 4,5 km/h (1 Bft) O-SO 102 ° 0 min 0,000 mm 0,0 UV-I 0 W/m² 13,1 °C 21,2 °C 6,4 km/h (2 Bft)
05.06.2019 21:10 21,3 °C 62 % 1000,5 hPa 0,0 mm 0,2 km/h (0 Bft) O-SO 102 ° 0 min 0,000 mm 0,0 UV-I 0 W/m² 13,7 °C 21,3 °C 1,6 km/h (1 Bft)
05.06.2019 21:11 21,3 °C 61 % 1000,5 hPa 0,0 mm 2,7 km/h (1 Bft) O-SO 103 ° 0 min 0,000 mm 0,0 UV-I 0 W/m² 13,5 °C 21,3 °C 4,8 km/h (1 Bft)
05.06.2019 21:12 21,2 °C 62 % 1000,5 hPa 0,0 mm 1,1 km/h (1 Bft) O-SO 103 ° 0 min 0,000 mm 0,0 UV-I 0 W/m² 13,6 °C 21,2 °C 3,2 km/h (1 Bft)
05.06.2019 21:13 21,1 °C 61 % 1000,5 hPa 0,0 mm 1,1 km/h (1 Bft) O-SO 103 ° 0 min 0,000 mm 0,0 UV-I 0 W/m² 13,3 °C 21,1 °C 1,6 km/h (1 Bft)
05.06.2019 21:14 21,1 °C 61 % 1000,5 hPa 0,0 mm 2,7 km/h (1 Bft) O-SO 103 ° 0 min 0,000 mm 0,0 UV-I 0 W/m² 13,3 °C 21,1 °C 4,8 km/h (1 Bft)
05.06.2019 21:15 20,9 °C 62 % 1000,5 hPa 0,0 mm 2,2 km/h (1 Bft) O-SO 103 ° 0 min 0,000 mm 0,0 UV-I 0 W/m² 13,3 °C 20,9 °C 4,8 km/h (1 Bft)
05.06.2019 21:16 20,8 °C 63 % 1000,5 hPa 0,0 mm 0,5 km/h (0 Bft) O-SO 103 ° 0 min 0,000 mm 0,0 UV-I 0 W/m² 13,5 °C 20,8 °C 3,2 km/h (1 Bft)
05.06.2019 21:17 20,8 °C 62 % 1000,5 hPa 0,0 mm 3,4 km/h (1 Bft) O-SO 108 ° 0 min 0,000 mm 0,0 UV-I 0 W/m² 13,2 °C 20,8 °C 11,3 km/h (2 Bft)
05.06.2019 21:18 20,8 °C 62 % 1000,5 hPa 0,0 mm 3,7 km/h (1 Bft) O 94 ° 0 min 0,000 mm 0,0 UV-I 0 W/m² 13,2 °C 20,8 °C 9,7 km/h (2 Bft)
05.06.2019 21:19 20,7 °C 63 % 1000,5 hPa 0,0 mm 1,7 km/h (1 Bft) O 94 ° 0 min 0,000 mm 0,0 UV-I 0 W/m² 13,4 °C 20,7 °C 3,2 km/h (1 Bft)
05.06.2019 21:20 20,7 °C 64 % 1000,5 hPa 0,0 mm 0,2 km/h (0 Bft) O 94 ° 0 min 0,000 mm 0,0 UV-I 0 W/m² 13,6 °C 20,7 °C 1,6 km/h (1 Bft)
05.06.2019 21:21 20,6 °C 63 % 1000,5 hPa 0,0 mm 0,0 km/h (0 Bft) O 94 ° 0 min 0,000 mm 0,0 UV-I 0 W/m² 13,3 °C 20,6 °C 0,0 km/h (0 Bft)
05.06.2019 21:22 20,5 °C 64 % 1000,5 hPa 0,0 mm 0,0 km/h (0 Bft) O 94 ° 0 min 0,000 mm 0,0 UV-I 0 W/m² 13,5 °C 20,5 °C 0,0 km/h (0 Bft)
05.06.2019 21:23 20,5 °C 63 % 1000,5 hPa 0,0 mm 0,0 km/h (0 Bft) O 94 ° 0 min 0,000 mm 0,0 UV-I 0 W/m² 13,2 °C 20,5 °C 0,0 km/h (0 Bft)
05.06.2019 21:24 20,4 °C 64 % 1000,5 hPa 0,0 mm 0,0 km/h (0 Bft) O 94 ° 0 min 0,000 mm 0,0 UV-I 0 W/m² 13,4 °C 20,4 °C 0,0 km/h (0 Bft)
05.06.2019 21:25 20,4 °C 64 % 1000,6 hPa 0,0 mm 1,2 km/h (1 Bft) O 94 ° 0 min 0,000 mm 0,0 UV-I 0 W/m² 13,4 °C 20,4 °C 3,2 km/h (1 Bft)
05.06.2019 21:26 20,4 °C 63 % 1000,5 hPa 0,0 mm 1,2 km/h (1 Bft) SO 132 ° 0 min 0,000 mm 0,0 UV-I 0 W/m² 13,1 °C 20,4 °C 3,2 km/h (1 Bft)
05.06.2019 21:27 20,4 °C 64 % 1000,5 hPa 0,0 mm 0,9 km/h (0 Bft) SO 132 ° 0 min 0,000 mm 0,0 UV-I 0 W/m² 13,4 °C 20,4 °C 1,6 km/h (1 Bft)
05.06.2019 21:28 20,4 °C 63 % 1000,5 hPa 0,0 mm 0,0 km/h (0 Bft) SO 132 ° 0 min 0,000 mm 0,0 UV-I 0 W/m² 13,1 °C 20,4 °C 0,0 km/h (0 Bft)
05.06.2019 21:29 20,4 °C 62 % 1000,5 hPa 0,0 mm 0,0 km/h (0 Bft) SO 132 ° 0 min 0,000 mm 0,0 UV-I 0 W/m² 12,9 °C 20,4 °C 0,0 km/h (0 Bft)
05.06.2019 21:30 20,5 °C 61 % 1000,5 hPa 0,0 mm 0,0 km/h (0 Bft) SO 132 ° 0 min 0,000 mm 0,0 UV-I 0 W/m² 12,7 °C 20,5 °C 0,0 km/h (0 Bft)
05.06.2019 21:31 20,6 °C 62 % 1000,5 hPa 0,0 mm 0,0 km/h (0 Bft) SO 132 ° 0 min 0,000 mm 0,0 UV-I 0 W/m² 13,1 °C 20,6 °C 0,0 km/h (0 Bft)
05.06.2019 21:32 20,5 °C 62 % 1000,5 hPa 0,0 mm 0,0 km/h (0 Bft) SO 132 ° 0 min 0,000 mm 0,0 UV-I 0 W/m² 13,0 °C 20,5 °C 0,0 km/h (0 Bft)
05.06.2019 21:33 20,5 °C 62 % 1000,5 hPa 0,0 mm 0,0 km/h (0 Bft) SO 132 ° 0 min 0,000 mm 0,0 UV-I 0 W/m² 13,0 °C 20,5 °C 0,0 km/h (0 Bft)
05.06.2019 21:34 20,4 °C 62 % 1000,5 hPa 0,0 mm 0,0 km/h (0 Bft) SO 132 ° 0 min 0,000 mm 0,0 UV-I 0 W/m² 12,9 °C 20,4 °C 0,0 km/h (0 Bft)
05.06.2019 21:35 20,3 °C 63 % 1000,5 hPa 0,0 mm 0,0 km/h (0 Bft) SO 132 ° 0 min 0,000 mm 0,0 UV-I 0 W/m² 13,0 °C 20,3 °C 0,0 km/h (0 Bft)
05.06.2019 21:36 20,3 °C 63 % 1000,5 hPa 0,0 mm 0,0 km/h (0 Bft) SO 132 ° 0 min 0,000 mm 0,0 UV-I 0 W/m² 13,0 °C 20,3 °C 0,0 km/h (0 Bft)
05.06.2019 21:37 20,2 °C 63 % 1000,5 hPa 0,0 mm 0,0 km/h (0 Bft) SO 132 ° 0 min 0,000 mm 0,0 UV-I 0 W/m² 12,9 °C 20,2 °C 0,0 km/h (0 Bft)
05.06.2019 21:38 20,2 °C 63 % 1000,5 hPa 0,0 mm 0,0 km/h (0 Bft) SO 132 ° 0 min 0,000 mm 0,0 UV-I 0 W/m² 12,9 °C 20,2 °C 0,0 km/h (0 Bft)
05.06.2019 21:39 20,1 °C 63 % 1000,5 hPa 0,0 mm 0,0 km/h (0 Bft) SO 132 ° 0 min 0,000 mm 0,0 UV-I 0 W/m² 12,8 °C 20,1 °C 0,0 km/h (0 Bft)
05.06.2019 21:40 20,1 °C 64 % 1000,5 hPa 0,0 mm 0,0 km/h (0 Bft) SO 132 ° 0 min 0,000 mm 0,0 UV-I 0 W/m² 13,1 °C 20,1 °C 0,0 km/h (0 Bft)
05.06.2019 21:41 19,8 °C 66 % 1000,6 hPa 0,0 mm 0,0 km/h (0 Bft) SO 132 ° 0 min 0,000 mm 0,0 UV-I 0 W/m² 13,3 °C 19,8 °C 0,0 km/h (0 Bft)
05.06.2019 21:42 19,7 °C 67 % 1000,5 hPa 0,0 mm 0,0 km/h (0 Bft) SO 132 ° 0 min 0,000 mm 0,0 UV-I 0 W/m² 13,4 °C 19,7 °C 0,0 km/h (0 Bft)
05.06.2019 21:43 19,4 °C 67 % 1000,5 hPa 0,0 mm 0,0 km/h (0 Bft) SO 132 ° 0 min 0,000 mm 0,0 UV-I 0 W/m² 13,1 °C 19,4 °C 0,0 km/h (0 Bft)
05.06.2019 21:44 19,3 °C 67 % 1000,6 hPa 0,0 mm 0,0 km/h (0 Bft) SO 132 ° 0 min 0,000 mm 0,0 UV-I 0 W/m² 13,0 °C 19,3 °C 0,0 km/h (0 Bft)
05.06.2019 21:45 19,1 °C 69 % 1000,6 hPa 0,0 mm 0,0 km/h (0 Bft) SO 132 ° 0 min 0,000 mm 0,0 UV-I 0 W/m² 13,3 °C 19,1 °C 0,0 km/h (0 Bft)
05.06.2019 21:46 18,9 °C 69 % 1000,6 hPa 0,0 mm 0,0 km/h (0 Bft) SO 132 ° 0 min 0,000 mm 0,0 UV-I 0 W/m² 13,1 °C 18,9 °C 0,0 km/h (0 Bft)
05.06.2019 21:47 18,9 °C 69 % 1000,6 hPa 0,0 mm 0,0 km/h (0 Bft) SO 132 ° 0 min 0,000 mm 0,0 UV-I 0 W/m² 13,1 °C 18,9 °C 0,0 km/h (0 Bft)
05.06.2019 21:48 18,7 °C 70 % 1000,6 hPa 0,0 mm 0,0 km/h (0 Bft) SO 132 ° 0 min 0,000 mm 0,0 UV-I 0 W/m² 13,1 °C 18,7 °C 0,0 km/h (0 Bft)
05.06.2019 21:49 18,7 °C 70 % 1000,6 hPa 0,0 mm 0,0 km/h (0 Bft) SO 132 ° 0 min 0,000 mm 0,0 UV-I 0 W/m² 13,1 °C 18,7 °C 0,0 km/h (0 Bft)
05.06.2019 21:50 18,7 °C 70 % 1000,6 hPa 0,0 mm 0,0 km/h (0 Bft) SO 132 ° 0 min 0,000 mm 0,0 UV-I 0 W/m² 13,1 °C 18,7 °C 0,0 km/h (0 Bft)
05.06.2019 21:51 18,7 °C 69 % 1000,6 hPa 0,0 mm 0,0 km/h (0 Bft) SO 132 ° 0 min 0,000 mm 0,0 UV-I 0 W/m² 12,9 °C 18,7 °C 0,0 km/h (0 Bft)
05.06.2019 21:52 18,7 °C 69 % 1000,6 hPa 0,0 mm 0,0 km/h (0 Bft) SO 132 ° 0 min 0,000 mm 0,0 UV-I 0 W/m² 12,9 °C 18,7 °C 0,0 km/h (0 Bft)
05.06.2019 21:53 18,7 °C 69 % 1000,6 hPa 0,0 mm 0,0 km/h (0 Bft) SO 132 ° 0 min 0,000 mm 0,0 UV-I 0 W/m² 12,9 °C 18,7 °C 0,0 km/h (0 Bft)
05.06.2019 21:54 18,8 °C 68 % 1000,7 hPa 0,0 mm 0,0 km/h (0 Bft) SO 132 ° 0 min 0,000 mm 0,0 UV-I 0 W/m² 12,8 °C 18,8 °C 0,0 km/h (0 Bft)
05.06.2019 21:55 18,7 °C 69 % 1000,7 hPa 0,0 mm 0,0 km/h (0 Bft) SO 132 ° 0 min 0,000 mm 0,0 UV-I 0 W/m² 12,9 °C 18,7 °C 0,0 km/h (0 Bft)
05.06.2019 21:56 18,8 °C 68 % 1000,7 hPa 0,0 mm 0,0 km/h (0 Bft) SO 132 ° 0 min 0,000 mm 0,0 UV-I 0 W/m² 12,8 °C 18,8 °C 0,0 km/h (0 Bft)
05.06.2019 21:57 18,7 °C 68 % 1000,7 hPa 0,0 mm 0,0 km/h (0 Bft) SO 132 ° 0 min 0,000 mm 0,0 UV-I 0 W/m² 12,7 °C 18,7 °C 0,0 km/h (0 Bft)
05.06.2019 21:58 18,7 °C 68 % 1000,7 hPa 0,0 mm 0,0 km/h (0 Bft) SO 132 ° 0 min 0,000 mm 0,0 UV-I 0 W/m² 12,7 °C 18,7 °C 0,0 km/h (0 Bft)
05.06.2019 21:59 18,7 °C 68 % 1000,7 hPa 0,0 mm 0,0 km/h (0 Bft) SO 132 ° 0 min 0,000 mm 0,0 UV-I 0 W/m² 12,7 °C 18,7 °C 0,0 km/h (0 Bft)
05.06.2019 22:00 18,7 °C 68 % 1000,7 hPa 0,0 mm 0,0 km/h (0 Bft) SO 132 ° 0 min 0,000 mm 0,0 UV-I 0 W/m² 12,7 °C 18,7 °C 0,0 km/h (0 Bft)
05.06.2019 22:01 18,7 °C 69 % 1000,7 hPa 0,0 mm 0,0 km/h (0 Bft) SO 132 ° 0 min 0,000 mm 0,0 UV-I 0 W/m² 12,9 °C 18,7 °C 0,0 km/h (0 Bft)
05.06.2019 22:02 18,6 °C 69 % 1000,7 hPa 0,0 mm 0,0 km/h (0 Bft) SO 132 ° 0 min 0,000 mm 0,0 UV-I 0 W/m² 12,8 °C 18,6 °C 0,0 km/h (0 Bft)
05.06.2019 22:03 18,6 °C 69 % 1000,7 hPa 0,0 mm 0,0 km/h (0 Bft) SO 132 ° 0 min 0,000 mm 0,0 UV-I 0 W/m² 12,8 °C 18,6 °C 0,0 km/h (0 Bft)
05.06.2019 22:04 18,6 °C 68 % 1000,7 hPa 0,0 mm 0,0 km/h (0 Bft) SO 132 ° 0 min 0,000 mm 0,0 UV-I 0 W/m² 12,6 °C 18,6 °C 0,0 km/h (0 Bft)
05.06.2019 22:05 18,6 °C 70 % 1000,7 hPa 0,0 mm 0,0 km/h (0 Bft) SO 132 ° 0 min 0,000 mm 0,0 UV-I 0 W/m² 13,0 °C 18,6 °C 0,0 km/h (0 Bft)
05.06.2019 22:06 18,4 °C 70 % 1000,7 hPa 0,0 mm 0,0 km/h (0 Bft) SO 132 ° 0 min 0,000 mm 0,0 UV-I 0 W/m² 12,8 °C 18,4 °C 0,0 km/h (0 Bft)
05.06.2019 22:07 18,2 °C 71 % 1000,6 hPa 0,0 mm 0,0 km/h (0 Bft) SO 132 ° 0 min 0,000 mm 0,0 UV-I 0 W/m² 12,9 °C 18,2 °C 0,0 km/h (0 Bft)
05.06.2019 22:08 18,2 °C 71 % 1000,6 hPa 0,0 mm 0,0 km/h (0 Bft) SO 132 ° 0 min 0,000 mm 0,0 UV-I 0 W/m² 12,9 °C 18,2 °C 0,0 km/h (0 Bft)
05.06.2019 22:09 18,1 °C 71 % 1000,6 hPa 0,0 mm 0,0 km/h (0 Bft) SO 132 ° 0 min 0,000 mm 0,0 UV-I 0 W/m² 12,8 °C 18,1 °C 0,0 km/h (0 Bft)
05.06.2019 22:10 17,9 °C 72 % 1000,6 hPa 0,0 mm 0,0 km/h (0 Bft) SO 132 ° 0 min 0,000 mm 0,0 UV-I 0 W/m² 12,8 °C 17,9 °C 0,0 km/h (0 Bft)
05.06.2019 22:11 17,8 °C 72 % 1000,6 hPa 0,0 mm 0,0 km/h (0 Bft) SO 132 ° 0 min 0,000 mm 0,0 UV-I 0 W/m² 12,7 °C 17,8 °C 0,0 km/h (0 Bft)
05.06.2019 22:12 17,8 °C 72 % 1000,7 hPa 0,0 mm 0,0 km/h (0 Bft) SO 132 ° 0 min 0,000 mm 0,0 UV-I 0 W/m² 12,7 °C 17,8 °C 0,0 km/h (0 Bft)
05.06.2019 22:13 17,8 °C 72 % 1000,7 hPa 0,0 mm 0,0 km/h (0 Bft) SO 132 ° 0 min 0,000 mm 0,0 UV-I 0 W/m² 12,7 °C 17,8 °C 0,0 km/h (0 Bft)
05.06.2019 22:14 17,8 °C 71 % 1000,6 hPa 0,0 mm 0,0 km/h (0 Bft) SO 132 ° 0 min 0,000 mm 0,0 UV-I 0 W/m² 12,5 °C 17,8 °C 0,0 km/h (0 Bft)
05.06.2019 22:15 17,8 °C 73 % 1000,7 hPa 0,0 mm 0,0 km/h (0 Bft) SO 132 ° 0 min 0,000 mm 0,0 UV-I 0 W/m² 12,9 °C 17,8 °C 0,0 km/h (0 Bft)
05.06.2019 22:16 17,6 °C 73 % 1000,6 hPa 0,0 mm 0,0 km/h (0 Bft) SO 132 ° 0 min 0,000 mm 0,0 UV-I 0 W/m² 12,7 °C 17,6 °C 0,0 km/h (0 Bft)
05.06.2019 22:17 17,5 °C 73 % 1000,6 hPa 0,0 mm 0,0 km/h (0 Bft) SO 132 ° 0 min 0,000 mm 0,0 UV-I 0 W/m² 12,6 °C 17,5 °C 0,0 km/h (0 Bft)
05.06.2019 22:18 17,4 °C 74 % 1000,6 hPa 0,0 mm 0,0 km/h (0 Bft) SO 132 ° 0 min 0,000 mm 0,0 UV-I 0 W/m² 12,7 °C 17,4 °C 0,0 km/h (0 Bft)
05.06.2019 22:19 17,3 °C 74 % 1000,6 hPa 0,0 mm 0,0 km/h (0 Bft) SO 132 ° 0 min 0,000 mm 0,0 UV-I 0 W/m² 12,6 °C 17,3 °C 0,0 km/h (0 Bft)
05.06.2019 22:20 17,3 °C 73 % 1000,6 hPa 0,0 mm 0,0 km/h (0 Bft) SO 132 ° 0 min 0,000 mm 0,0 UV-I 0 W/m² 12,4 °C 17,3 °C 0,0 km/h (0 Bft)
05.06.2019 22:21 17,3 °C 73 % 1000,6 hPa 0,0 mm 0,0 km/h (0 Bft) SO 132 ° 0 min 0,000 mm 0,0 UV-I 0 W/m² 12,4 °C 17,3 °C 0,0 km/h (0 Bft)
05.06.2019 22:22 17,3 °C 73 % 1000,6 hPa 0,0 mm 0,0 km/h (0 Bft) SO 132 ° 0 min 0,000 mm 0,0 UV-I 0 W/m² 12,4 °C 17,3 °C 0,0 km/h (0 Bft)
05.06.2019 22:23 17,2 °C 74 % 1000,5 hPa 0,0 mm 0,0 km/h (0 Bft) SO 132 ° 0 min 0,000 mm 0,0 UV-I 0 W/m² 12,5 °C 17,2 °C 0,0 km/h (0 Bft)
05.06.2019 22:24 17,2 °C 74 % 1000,6 hPa 0,0 mm 0,0 km/h (0 Bft) SO 132 ° 0 min 0,000 mm 0,0 UV-I 0 W/m² 12,5 °C 17,2 °C 0,0 km/h (0 Bft)
05.06.2019 22:25 17,2 °C 74 % 1000,5 hPa 0,0 mm 0,0 km/h (0 Bft) SO 132 ° 0 min 0,000 mm 0,0 UV-I 0 W/m² 12,5 °C 17,2 °C 0,0 km/h (0 Bft)
05.06.2019 22:26 17,2 °C 75 % 1000,6 hPa 0,0 mm 0,0 km/h (0 Bft) SO 132 ° 0 min 0,000 mm 0,0 UV-I 0 W/m² 12,7 °C 17,2 °C 0,0 km/h (0 Bft)
05.06.2019 22:27 17,1 °C 76 % 1000,6 hPa 0,0 mm 0,0 km/h (0 Bft) SO 132 ° 0 min 0,000 mm 0,0 UV-I 0 W/m² 12,8 °C 17,1 °C 0,0 km/h (0 Bft)
05.06.2019 22:28 17,0 °C 76 % 1000,6 hPa 0,0 mm 0,0 km/h (0 Bft) SO 132 ° 0 min 0,000 mm 0,0 UV-I 0 W/m² 12,7 °C 17,0 °C 0,0 km/h (0 Bft)
05.06.2019 22:29 16,9 °C 76 % 1000,6 hPa 0,0 mm 0,0 km/h (0 Bft) SO 132 ° 0 min 0,000 mm 0,0 UV-I 0 W/m² 12,6 °C 16,9 °C 0,0 km/h (0 Bft)
05.06.2019 22:30 16,9 °C 77 % 1000,5 hPa 0,0 mm 0,0 km/h (0 Bft) SO 132 ° 0 min 0,000 mm 0,0 UV-I 0 W/m² 12,8 °C 16,9 °C 0,0 km/h (0 Bft)
05.06.2019 22:31 16,8 °C 77 % 1000,5 hPa 0,0 mm 0,0 km/h (0 Bft) SO 132 ° 0 min 0,000 mm 0,0 UV-I 0 W/m² 12,7 °C 16,8 °C 0,0 km/h (0 Bft)
05.06.2019 22:32 16,8 °C 77 % 1000,5 hPa 0,0 mm 0,0 km/h (0 Bft) SO 132 ° 0 min 0,000 mm 0,0 UV-I 0 W/m² 12,7 °C 16,8 °C 0,0 km/h (0 Bft)
05.06.2019 22:33 16,8 °C 77 % 1000,5 hPa 0,0 mm 0,0 km/h (0 Bft) SO 132 ° 0 min 0,000 mm 0,0 UV-I 0 W/m² 12,7 °C 16,8 °C 0,0 km/h (0 Bft)
05.06.2019 22:34 16,8 °C 77 % 1000,5 hPa 0,0 mm 0,0 km/h (0 Bft) SO 132 ° 0 min 0,000 mm 0,0 UV-I 0 W/m² 12,7 °C 16,8 °C 0,0 km/h (0 Bft)
05.06.2019 22:35 16,8 °C 77 % 1000,5 hPa 0,0 mm 0,0 km/h (0 Bft) SO 132 ° 0 min 0,000 mm 0,0 UV-I 0 W/m² 12,7 °C 16,8 °C 0,0 km/h (0 Bft)
05.06.2019 22:36 16,8 °C 77 % 1000,4 hPa 0,0 mm 0,0 km/h (0 Bft) SO 132 ° 0 min 0,000 mm 0,0 UV-I 0 W/m² 12,7 °C 16,8 °C 0,0 km/h (0 Bft)
05.06.2019 22:37 16,8 °C 77 % 1000,5 hPa 0,0 mm 0,0 km/h (0 Bft) SO 132 ° 0 min 0,000 mm 0,0 UV-I 0 W/m² 12,7 °C 16,8 °C 0,0 km/h (0 Bft)
05.06.2019 22:38 16,8 °C 77 % 1000,4 hPa 0,0 mm 0,0 km/h (0 Bft) SO 132 ° 0 min 0,000 mm 0,0 UV-I 0 W/m² 12,7 °C 16,8 °C 0,0 km/h (0 Bft)
05.06.2019 22:39 16,8 °C 77 % 1000,5 hPa 0,0 mm 0,0 km/h (0 Bft) SO 132 ° 0 min 0,000 mm 0,0 UV-I 0 W/m² 12,7 °C 16,8 °C 0,0 km/h (0 Bft)
05.06.2019 22:40 16,8 °C 77 % 1000,5 hPa 0,0 mm 0,0 km/h (0 Bft) SO 132 ° 0 min 0,000 mm 0,0 UV-I 0 W/m² 12,7 °C 16,8 °C 0,0 km/h (0 Bft)
05.06.2019 22:41 16,7 °C 77 % 1000,5 hPa 0,0 mm 0,0 km/h (0 Bft) SO 132 ° 0 min 0,000 mm 0,0 UV-I 0 W/m² 12,6 °C 16,7 °C 0,0 km/h (0 Bft)
05.06.2019 22:42 16,7 °C 77 % 1000,4 hPa 0,0 mm 0,0 km/h (0 Bft) SO 132 ° 0 min 0,000 mm 0,0 UV-I 0 W/m² 12,6 °C 16,7 °C 0,0 km/h (0 Bft)
05.06.2019 22:43 16,7 °C 77 % 1000,4 hPa 0,0 mm 0,0 km/h (0 Bft) SO 132 ° 0 min 0,000 mm 0,0 UV-I 0 W/m² 12,6 °C 16,7 °C 0,0 km/h (0 Bft)
05.06.2019 22:44 16,8 °C 77 % 1000,3 hPa 0,0 mm 0,0 km/h (0 Bft) SO 132 ° 0 min 0,000 mm 0,0 UV-I 0 W/m² 12,7 °C 16,8 °C 0,0 km/h (0 Bft)
05.06.2019 22:45 16,9 °C 77 % 1000,4 hPa 0,0 mm 0,0 km/h (0 Bft) SO 132 ° 0 min 0,000 mm 0,0 UV-I 0 W/m² 12,8 °C 16,9 °C 0,0 km/h (0 Bft)
05.06.2019 22:46 16,9 °C 77 % 1000,4 hPa 0,0 mm 0,0 km/h (0 Bft) SO 132 ° 0 min 0,000 mm 0,0 UV-I 0 W/m² 12,8 °C 16,9 °C 0,0 km/h (0 Bft)
05.06.2019 22:47 17,1 °C 76 % 1000,4 hPa 0,0 mm 0,0 km/h (0 Bft) SO 132 ° 0 min 0,000 mm 0,0 UV-I 0 W/m² 12,8 °C 17,1 °C 0,0 km/h (0 Bft)
05.06.2019 22:48 17,2 °C 76 % 1000,4 hPa 0,0 mm 0,0 km/h (0 Bft) SO 132 ° 0 min 0,000 mm 0,0 UV-I 0 W/m² 12,9 °C 17,2 °C 0,0 km/h (0 Bft)
05.06.2019 22:49 17,2 °C 76 % 1000,4 hPa 0,0 mm 0,0 km/h (0 Bft) SO 132 ° 0 min 0,000 mm 0,0 UV-I 0 W/m² 12,9 °C 17,2 °C 0,0 km/h (0 Bft)
05.06.2019 22:50 17,0 °C 77 % 1000,4 hPa 0,0 mm 0,0 km/h (0 Bft) SO 132 ° 0 min 0,000 mm 0,0 UV-I 0 W/m² 12,9 °C 17,0 °C 0,0 km/h (0 Bft)
05.06.2019 22:51 16,8 °C 77 % 1000,3 hPa 0,0 mm 0,0 km/h (0 Bft) SO 132 ° 0 min 0,000 mm 0,0 UV-I 0 W/m² 12,7 °C 16,8 °C 0,0 km/h (0 Bft)
05.06.2019 22:52 16,7 °C 78 % 1000,3 hPa 0,0 mm 0,0 km/h (0 Bft) SO 132 ° 0 min 0,000 mm 0,0 UV-I 0 W/m² 12,8 °C 16,7 °C 0,0 km/h (0 Bft)
05.06.2019 22:53 16,7 °C 79 % 1000,3 hPa 0,0 mm 0,0 km/h (0 Bft) SO 132 ° 0 min 0,000 mm 0,0 UV-I 0 W/m² 13,0 °C 16,7 °C 0,0 km/h (0 Bft)
05.06.2019 22:54 16,7 °C 79 % 1000,3 hPa 0,0 mm 0,0 km/h (0 Bft) SO 132 ° 0 min 0,000 mm 0,0 UV-I 0 W/m² 13,0 °C 16,7 °C 0,0 km/h (0 Bft)
05.06.2019 22:55 16,7 °C 78 % 1000,3 hPa 0,0 mm 0,0 km/h (0 Bft) SO 132 ° 0 min 0,000 mm 0,0 UV-I 0 W/m² 12,8 °C 16,7 °C 0,0 km/h (0 Bft)
05.06.2019 22:56 16,8 °C 78 % 1000,3 hPa 0,0 mm 0,0 km/h (0 Bft) SO 132 ° 0 min 0,000 mm 0,0 UV-I 0 W/m² 12,9 °C 16,8 °C 0,0 km/h (0 Bft)
05.06.2019 22:57 16,9 °C 77 % 1000,3 hPa 0,0 mm 0,0 km/h (0 Bft) SO 132 ° 0 min 0,000 mm 0,0 UV-I 0 W/m² 12,8 °C 16,9 °C 0,0 km/h (0 Bft)
05.06.2019 22:58 17,1 °C 77 % 1000,4 hPa 0,0 mm 0,0 km/h (0 Bft) SO 132 ° 0 min 0,000 mm 0,0 UV-I 0 W/m² 13,0 °C 17,1 °C 0,0 km/h (0 Bft)
05.06.2019 22:59 17,2 °C 76 % 1000,4 hPa 0,0 mm 0,0 km/h (0 Bft) SO 132 ° 0 min 0,000 mm 0,0 UV-I 0 W/m² 12,9 °C 17,2 °C 0,0 km/h (0 Bft)
05.06.2019 23:00 17,3 °C 76 % 1000,3 hPa 0,0 mm 0,0 km/h (0 Bft) SO 125 ° 0 min 0,000 mm 0,0 UV-I 0 W/m² 13,0 °C 17,3 °C 0,0 km/h (0 Bft)
05.06.2019 23:01 17,4 °C 76 % 1000,4 hPa 0,0 mm 0,0 km/h (0 Bft) SO 125 ° 0 min 0,026 mm 0,0 UV-I 0 W/m² 13,1 °C 17,4 °C 0,0 km/h (0 Bft)
05.06.2019 23:02 17,3 °C 76 % 1000,4 hPa 0,0 mm 0,0 km/h (0 Bft) SO 125 ° 0 min 0,000 mm 0,0 UV-I 0 W/m² 13,0 °C 17,3 °C 0,0 km/h (0 Bft)
05.06.2019 23:03 17,1 °C 76 % 1000,3 hPa 0,0 mm 0,0 km/h (0 Bft) SO 125 ° 0 min 0,000 mm 0,0 UV-I 0 W/m² 12,8 °C 17,1 °C 0,0 km/h (0 Bft)
05.06.2019 23:04 17,0 °C 77 % 1000,3 hPa 0,0 mm 0,0 km/h (0 Bft) SO 125 ° 0 min 0,000 mm 0,0 UV-I 0 W/m² 12,9 °C 17,0 °C 0,0 km/h (0 Bft)
05.06.2019 23:05 16,9 °C 77 % 1000,3 hPa 0,0 mm 0,0 km/h (0 Bft) SO 125 ° 0 min 0,000 mm 0,0 UV-I 0 W/m² 12,8 °C 16,9 °C 0,0 km/h (0 Bft)
05.06.2019 23:06 16,8 °C 78 % 1000,2 hPa 0,0 mm 0,0 km/h (0 Bft) SO 125 ° 0 min 0,000 mm 0,0 UV-I 0 W/m² 12,9 °C 16,8 °C 0,0 km/h (0 Bft)
05.06.2019 23:07 16,7 °C 78 % 1000,2 hPa 0,0 mm 0,0 km/h (0 Bft) SO 125 ° 0 min 0,000 mm 0,0 UV-I 0 W/m² 12,8 °C 16,7 °C 0,0 km/h (0 Bft)
05.06.2019 23:08 16,6 °C 79 % 1000,2 hPa 0,0 mm 0,0 km/h (0 Bft) SO 125 ° 0 min 0,000 mm 0,0 UV-I 0 W/m² 12,9 °C 16,6 °C 0,0 km/h (0 Bft)
05.06.2019 23:09 16,6 °C 79 % 1000,1 hPa 0,0 mm 0,0 km/h (0 Bft) SO 125 ° 0 min 0,000 mm 0,0 UV-I 0 W/m² 12,9 °C 16,6 °C 0,0 km/h (0 Bft)
05.06.2019 23:10 16,5 °C 80 % 1000,1 hPa 0,0 mm 0,0 km/h (0 Bft) SO 125 ° 0 min 0,000 mm 0,0 UV-I 0 W/m² 13,0 °C 16,5 °C 0,0 km/h (0 Bft)
05.06.2019 23:11 16,4 °C 80 % 1000,1 hPa 0,0 mm 0,0 km/h (0 Bft) SO 125 ° 0 min 0,000 mm 0,0 UV-I 0 W/m² 12,9 °C 16,4 °C 0,0 km/h (0 Bft)
05.06.2019 23:12 16,5 °C 80 % 1000,1 hPa 0,0 mm 0,0 km/h (0 Bft) SO 125 ° 0 min 0,000 mm 0,0 UV-I 0 W/m² 13,0 °C 16,5 °C 0,0 km/h (0 Bft)
05.06.2019 23:13 16,5 °C 80 % 1000,1 hPa 0,0 mm 0,0 km/h (0 Bft) SO 125 ° 0 min 0,000 mm 0,0 UV-I 0 W/m² 13,0 °C 16,5 °C 0,0 km/h (0 Bft)
05.06.2019 23:14 16,5 °C 79 % 1000,2 hPa 0,0 mm 0,0 km/h (0 Bft) SO 125 ° 0 min 0,000 mm 0,0 UV-I 0 W/m² 12,8 °C 16,5 °C 0,0 km/h (0 Bft)
05.06.2019 23:15 16,4 °C 79 % 1000,1 hPa 0,0 mm 0,0 km/h (0 Bft) SO 125 ° 0 min 0,000 mm 0,0 UV-I 0 W/m² 12,7 °C 16,4 °C 0,0 km/h (0 Bft)
05.06.2019 23:16 16,6 °C 79 % 1000,2 hPa 0,0 mm 0,0 km/h (0 Bft) SO 125 ° 0 min 0,000 mm 0,0 UV-I 0 W/m² 12,9 °C 16,6 °C 0,0 km/h (0 Bft)
05.06.2019 23:17 16,6 °C 79 % 1000,1 hPa 0,0 mm 0,0 km/h (0 Bft) SO 125 ° 0 min 0,000 mm 0,0 UV-I 0 W/m² 12,9 °C 16,6 °C 0,0 km/h (0 Bft)
05.06.2019 23:18 16,7 °C 79 % 1000,1 hPa 0,0 mm 0,0 km/h (0 Bft) SO 126 ° 0 min 0,000 mm 0,0 UV-I 0 W/m² 13,0 °C 16,7 °C 0,0 km/h (0 Bft)
05.06.2019 23:19 16,7 °C 79 % 1000,2 hPa 0,0 mm 0,8 km/h (0 Bft) W 261 ° 0 min 0,000 mm 0,0 UV-I 0 W/m² 13,0 °C 16,7 °C 4,8 km/h (1 Bft)
05.06.2019 23:20 16,7 °C 79 % 1000,2 hPa 0,0 mm 1,3 km/h (1 Bft) W 261 ° 0 min 0,000 mm 0,0 UV-I 0 W/m² 13,0 °C 16,7 °C 3,2 km/h (1 Bft)
05.06.2019 23:21 16,6 °C 79 % 1000,1 hPa 0,0 mm 0,0 km/h (0 Bft) W 261 ° 0 min 0,000 mm 0,0 UV-I 0 W/m² 12,9 °C 16,6 °C 0,0 km/h (0 Bft)
05.06.2019 23:22 16,5 °C 79 % 1000,1 hPa 0,0 mm 0,0 km/h (0 Bft) W 261 ° 0 min 0,000 mm 0,0 UV-I 0 W/m² 12,8 °C 16,5 °C 0,0 km/h (0 Bft)
05.06.2019 23:23 16,4 °C 79 % 1000,1 hPa 0,0 mm 0,0 km/h (0 Bft) W 261 ° 0 min 0,000 mm 0,0 UV-I 0 W/m² 12,7 °C 16,4 °C 0,0 km/h (0 Bft)
05.06.2019 23:24 16,4 °C 79 % 1000,1 hPa 0,0 mm 0,0 km/h (0 Bft) W 261 ° 0 min 0,000 mm 0,0 UV-I 0 W/m² 12,7 °C 16,4 °C 0,0 km/h (0 Bft)
05.06.2019 23:25 16,4 °C 79 % 1000,1 hPa 0,0 mm 0,0 km/h (0 Bft) W 261 ° 0 min 0,000 mm 0,0 UV-I 0 W/m² 12,7 °C 16,4 °C 0,0 km/h (0 Bft)
05.06.2019 23:26 16,5 °C 79 % 1000,1 hPa 0,0 mm 0,1 km/h (0 Bft) W 261 ° 0 min 0,000 mm 0,0 UV-I 0 W/m² 12,8 °C 16,5 °C 1,6 km/h (1 Bft)
05.06.2019 23:27 16,6 °C 79 % 1000,1 hPa 0,0 mm 0,0 km/h (0 Bft) W 261 ° 0 min 0,000 mm 0,0 UV-I 0 W/m² 12,9 °C 16,6 °C 0,0 km/h (0 Bft)
05.06.2019 23:28 16,6 °C 79 % 1000,1 hPa 0,0 mm 0,0 km/h (0 Bft) W 261 ° 0 min 0,000 mm 0,0 UV-I 0 W/m² 12,9 °C 16,6 °C 0,0 km/h (0 Bft)
05.06.2019 23:29 16,6 °C 79 % 1000,1 hPa 0,0 mm 0,0 km/h (0 Bft) W 261 ° 0 min 0,000 mm 0,0 UV-I 0 W/m² 12,9 °C 16,6 °C 0,0 km/h (0 Bft)
05.06.2019 23:30 16,6 °C 79 % 1000,1 hPa 0,0 mm 0,0 km/h (0 Bft) W 261 ° 0 min 0,000 mm 0,0 UV-I 0 W/m² 12,9 °C 16,6 °C 0,0 km/h (0 Bft)
05.06.2019 23:31 16,6 °C 78 % 1000,1 hPa 0,0 mm 0,0 km/h (0 Bft) W 261 ° 0 min 0,000 mm 0,0 UV-I 0 W/m² 12,7 °C 16,6 °C 0,0 km/h (0 Bft)
05.06.2019 23:32 16,7 °C 79 % 1000,1 hPa 0,0 mm 0,0 km/h (0 Bft) W 261 ° 0 min 0,000 mm 0,0 UV-I 0 W/m² 13,0 °C 16,7 °C 0,0 km/h (0 Bft)
05.06.2019 23:33 16,7 °C 78 % 1000,1 hPa 0,0 mm 0,0 km/h (0 Bft) W 261 ° 0 min 0,000 mm 0,0 UV-I 0 W/m² 12,8 °C 16,7 °C 0,0 km/h (0 Bft)
05.06.2019 23:34 16,6 °C 78 % 1000,1 hPa 0,0 mm 0,0 km/h (0 Bft) W 261 ° 0 min 0,000 mm 0,0 UV-I 0 W/m² 12,7 °C 16,6 °C 0,0 km/h (0 Bft)
05.06.2019 23:35 16,5 °C 79 % 1000,2 hPa 0,0 mm 0,0 km/h (0 Bft) W 261 ° 0 min 0,000 mm 0,0 UV-I 0 W/m² 12,8 °C 16,5 °C 0,0 km/h (0 Bft)
05.06.2019 23:36 16,4 °C 79 % 1000,1 hPa 0,0 mm 0,0 km/h (0 Bft) W 261 ° 0 min 0,000 mm 0,0 UV-I 0 W/m² 12,7 °C 16,4 °C 0,0 km/h (0 Bft)
05.06.2019 23:37 16,3 °C 79 % 1000,2 hPa 0,0 mm 0,0 km/h (0 Bft) W 261 ° 0 min 0,000 mm 0,0 UV-I 0 W/m² 12,6 °C 16,3 °C 0,0 km/h (0 Bft)
05.06.2019 23:38 16,3 °C 79 % 1000,3 hPa 0,0 mm 0,0 km/h (0 Bft) W 261 ° 0 min 0,000 mm 0,0 UV-I 0 W/m² 12,6 °C 16,3 °C 0,0 km/h (0 Bft)
05.06.2019 23:39 16,3 °C 79 % 1000,3 hPa 0,0 mm 0,0 km/h (0 Bft) W 261 ° 0 min 0,000 mm 0,0 UV-I 0 W/m² 12,6 °C 16,3 °C 0,0 km/h (0 Bft)
05.06.2019 23:40 16,3 °C 79 % 1000,2 hPa 0,0 mm 0,0 km/h (0 Bft) W 261 ° 0 min 0,000 mm 0,0 UV-I 0 W/m² 12,6 °C 16,3 °C 0,0 km/h (0 Bft)
05.06.2019 23:41 16,2 °C 79 % 1000,3 hPa 0,0 mm 0,0 km/h (0 Bft) W 261 ° 0 min 0,000 mm 0,0 UV-I 0 W/m² 12,6 °C 16,2 °C 0,0 km/h (0 Bft)
05.06.2019 23:42 16,1 °C 80 % 1000,2 hPa 0,0 mm 0,0 km/h (0 Bft) W 261 ° 0 min 0,000 mm 0,0 UV-I 0 W/m² 12,6 °C 16,1 °C 0,0 km/h (0 Bft)
05.06.2019 23:43 16,0 °C 81 % 1000,2 hPa 0,0 mm 0,0 km/h (0 Bft) W 261 ° 0 min 0,000 mm 0,0 UV-I 0 W/m² 12,7 °C 16,0 °C 0,0 km/h (0 Bft)
05.06.2019 23:44 15,9 °C 81 % 1000,1 hPa 0,0 mm 0,0 km/h (0 Bft) W 261 ° 0 min 0,000 mm 0,0 UV-I 0 W/m² 12,6 °C 15,9 °C 0,0 km/h (0 Bft)
05.06.2019 23:45 15,8 °C 81 % 1000,1 hPa 0,0 mm 0,0 km/h (0 Bft) W 261 ° 0 min 0,000 mm 0,0 UV-I 0 W/m² 12,5 °C 15,8 °C 0,0 km/h (0 Bft)
05.06.2019 23:46 15,8 °C 81 % 1000,2 hPa 0,0 mm 0,0 km/h (0 Bft) W 261 ° 0 min 0,000 mm 0,0 UV-I 0 W/m² 12,5 °C 15,8 °C 0,0 km/h (0 Bft)
05.06.2019 23:47 15,9 °C 80 % 1000,2 hPa 0,0 mm 0,0 km/h (0 Bft) W 261 ° 0 min 0,000 mm 0,0 UV-I 0 W/m² 12,5 °C 15,9 °C 0,0 km/h (0 Bft)
05.06.2019 23:48 15,9 °C 80 % 1000,1 hPa 0,0 mm 0,0 km/h (0 Bft) W 261 ° 0 min 0,000 mm 0,0 UV-I 0 W/m² 12,5 °C 15,9 °C 0,0 km/h (0 Bft)
05.06.2019 23:49 15,9 °C 81 % 1000,2 hPa 0,0 mm 0,0 km/h (0 Bft) W 261 ° 0 min 0,000 mm 0,0 UV-I 0 W/m² 12,6 °C 15,9 °C 0,0 km/h (0 Bft)
05.06.2019 23:50 15,8 °C 80 % 1000,1 hPa 0,0 mm 0,0 km/h (0 Bft) W 261 ° 0 min 0,000 mm 0,0 UV-I 0 W/m² 12,4 °C 15,8 °C 0,0 km/h (0 Bft)
05.06.2019 23:51 15,8 °C 80 % 1000,2 hPa 0,0 mm 1,4 km/h (1 Bft) N-NW 327 ° 0 min 0,000 mm 0,0 UV-I 0 W/m² 12,4 °C 15,8 °C 4,8 km/h (1 Bft)
05.06.2019 23:52 15,7 °C 81 % 1000,2 hPa 0,0 mm 3,0 km/h (1 Bft) NW 326 ° 0 min 0,000 mm 0,0 UV-I 0 W/m² 12,4 °C 15,7 °C 4,8 km/h (1 Bft)
05.06.2019 23:53 15,6 °C 81 % 1000,1 hPa 0,0 mm 0,0 km/h (0 Bft) NW 326 ° 0 min 0,000 mm 0,0 UV-I 0 W/m² 12,3 °C 15,6 °C 0,0 km/h (0 Bft)
05.06.2019 23:54 15,5 °C 81 % 1000,2 hPa 0,0 mm 0,0 km/h (0 Bft) NW 326 ° 0 min 0,000 mm 0,0 UV-I 0 W/m² 12,3 °C 15,5 °C 0,0 km/h (0 Bft)
05.06.2019 23:55 15,3 °C 82 % 1000,2 hPa 0,0 mm 0,0 km/h (0 Bft) NW 326 ° 0 min 0,000 mm 0,0 UV-I 0 W/m² 12,2 °C 15,3 °C 0,0 km/h (0 Bft)
05.06.2019 23:56 15,3 °C 82 % 1000,2 hPa 0,0 mm 0,0 km/h (0 Bft) NW 326 ° 0 min 0,000 mm 0,0 UV-I 0 W/m² 12,2 °C 15,3 °C 0,0 km/h (0 Bft)
05.06.2019 23:57 15,3 °C 82 % 1000,3 hPa 0,0 mm 0,0 km/h (0 Bft) NW 326 ° 0 min 0,000 mm 0,0 UV-I 0 W/m² 12,2 °C 15,3 °C 0,0 km/h (0 Bft)
05.06.2019 23:58 15,3 °C 82 % 1000,2 hPa 0,0 mm 0,0 km/h (0 Bft) NW 326 ° 0 min 0,000 mm 0,0 UV-I 0 W/m² 12,2 °C 15,3 °C 0,0 km/h (0 Bft)
05.06.2019 23:59 15,4 °C 82 % 1000,3 hPa 0,0 mm 4,9 km/h (1 Bft) S 187 ° 0 min 0,000 mm 0,0 UV-I 0 W/m² 12,3 °C 15,4 °C 8,0 km/h (2 Bft)
_ Min-Zeit 06:02 17:39 23:53 - 23:58 - - - - - - 05:31 06:02 23:58
Minimum _ 13,3 °C 37 % 1000,1 hPa - 0,0 km/h (0 Bft) - - - - - - 9,8 °C 13,3 °C 0,0 km/h (0 Bft)
_ Max-Zeit 16:01 01:12 00:41 23:59 09:54 - - 16:08 15:01 13:26 13:26 12:37 16:01 19:01
Maximum _ 27,2 °C 84 % 1006,7 hPa 0,0 mm 17,4 km/h
W-NW (3 Bft)
- - 1 min 0,610 mm 7,1 UV-I 905 W/m² 16,3 °C 27,2 °C 22,5 km/h
O-NO (4 Bft)
Durchschnitt _ 20,9 °C 62 % 1003,7 hPa #0,0 mm 2,9 km/h (1 Bft) O-NO - #6:28 h #5,004 mm 3,7 UV-I 286 W/m² 12,7 °C 20,9 °C 5,1 km/h (1 Bft)